[[{"header":{"parameterUnit":"m.s-1","parameterCategory":1,"la1":30.6,"la2":29.2853,"lo1":-89.7004,"lo2":-87.6739,"dy":0.0162,"dx":0.0183,"nx":112,"ny":82,"refTime":"2023-05-06T12:00:00:Z","depth":0,"parameterNumber":2,"parameterNumberName":"U-component_of_WINDS"},"data":[0.0,0.0,0.0,0.0,0.0,0.0,0.0,0.0,0.0,0.0,0.0,0.0,0.0,0.0,0.0,0.0,0.0,0.0,0.0,0.0,0.0,0.0,0.0,0.0,0.0,0.0,0.0,0.0,0.0,0.0,0.0,0.0,0.0,0.0,0.0,0.0,0.0,0.0,0.0,0.0,0.0,0.0,0.0,0.0,0.0,0.0,0.0,0.0,0.0,0.0,0.0,0.0,0.0,0.0,0.0,0.0,0.0,0.0,0.0,0.0,0.0,0.0,0.0,0.0,0.0,0.0,0.0,0.0,0.0,0.0,0.0,0.0,0.0,0.0,0.0,0.0,0.0,0.0,0.0,0.0,0.0,0.0,0.0,0.0,0.0,0.0,0.0,0.0,0.0,0.0,0.0,-0.7524,-0.7816,-0.8116,-0.8442,-0.8469,-0.855,-0.8791,0.0,0.0,0.0,0.0,0.0,0.0,0.0,0.0,0.0,0.0,0.0,0.0,0.0,0.0,0.0,0.0,0.0,0.0,0.0,0.0,0.0,0.0,0.0,0.0,0.0,0.0,0.0,0.0,0.0,0.0,0.0,0.0,0.0,0.0,0.0,0.0,0.0,0.0,0.0,0.0,0.0,0.0,0.0,0.0,0.0,0.0,0.0,0.0,0.0,0.0,0.0,0.0,0.0,0.0,0.0,0.0,0.0,0.0,0.0,0.0,0.0,0.0,0.0,0.0,0.0,0.0,0.0,0.0,0.0,0.0,0.0,0.0,0.0,0.0,0.0,0.0,0.0,0.0,0.0,0.0,0.0,0.0,0.0,0.0,0.0,0.0,0.0,0.0,0.0,0.0,0.0,0.0,0.0,0.0,0.0,0.0,0.0,0.0,0.0,0.0,0.0,0.0,0.0,0.0,-0.7213,-0.7779,-0.813,-0.8449,-0.8717,-0.8744,-0.8758,-0.8804,0.0,0.0,0.0,0.0,0.0,0.0,0.0,0.0,0.0,0.0,0.0,0.0,0.0,0.0,0.0,0.0,0.0,0.0,0.0,0.0,0.0,0.0,0.0,0.0,0.0,0.0,0.0,0.0,0.0,0.0,0.0,0.0,0.0,0.0,0.0,0.0,0.0,0.0,0.0,0.0,0.0,0.0,0.0,0.0,0.0,0.0,0.0,0.0,0.0,0.0,0.0,0.0,0.0,0.0,0.0,0.0,0.0,0.0,0.0,0.0,0.0,0.0,0.0,0.0,0.0,0.0,0.0,0.0,0.0,0.0,0.0,0.0,0.0,0.0,0.0,0.0,0.0,0.0,0.0,0.0,0.0,0.0,0.0,0.0,0.0,0.0,0.0,0.0,0.0,0.0,0.0,0.0,0.0,0.0,0.0,0.0,0.0,0.0,0.0,0.0,0.0,0.0,0.0,-0.737,-0.7435,-0.7859,-0.8196,-0.8456,-0.8564,-0.8717,-0.8738,-0.8584,-0.8571,0.0,0.0,0.0,0.0,0.0,0.0,0.0,0.0,0.0,0.0,0.0,0.0,0.0,0.0,0.0,0.0,0.0,0.0,0.0,0.0,0.0,0.0,0.0,0.0,0.0,0.0,0.0,0.0,0.0,0.0,0.0,0.0,0.0,0.0,0.0,0.0,0.0,0.0,0.0,0.0,0.0,0.0,0.0,0.0,0.0,0.0,0.0,0.0,0.0,0.0,0.0,0.0,0.0,0.0,0.0,0.0,0.0,0.0,0.0,0.0,0.0,0.0,0.0,0.0,0.0,0.0,0.0,0.0,0.0,0.0,0.0,0.0,0.0,0.0,0.0,0.0,0.0,0.0,0.0,0.0,0.0,0.0,0.0,0.0,0.0,0.0,0.0,0.0,0.0,0.0,0.0,0.0,0.0,0.0,0.0,0.0,0.0,0.0,0.0,0.0,0.0,0.0,-0.7383,-0.7497,-0.7766,-0.809,-0.8322,-0.8395,-0.8577,-0.8644,-0.8509,-0.8435,0.0,0.0,0.0,0.0,0.0,0.0,0.0,0.0,0.0,0.0,0.0,0.0,0.0,0.0,0.0,0.0,0.0,0.0,0.0,0.0,0.0,0.0,0.0,0.0,0.0,0.0,0.0,0.0,0.0,0.0,0.0,0.0,0.0,0.0,0.0,0.0,0.0,0.0,0.0,0.0,0.0,0.0,0.0,0.0,0.0,0.0,0.0,0.0,0.0,0.0,0.0,0.0,0.0,0.0,0.0,0.0,0.0,0.0,0.0,0.0,0.0,0.0,0.0,0.0,0.0,0.0,0.0,0.0,0.0,0.0,0.0,0.0,0.0,0.0,0.0,0.0,0.0,0.0,0.0,0.0,0.0,0.0,0.0,0.0,0.0,0.0,0.0,0.0,0.0,0.0,0.0,0.0,0.0,0.0,0.0,0.0,0.0,0.0,0.0,0.0,0.0,0.0,-0.7033,-0.7168,-0.7491,-0.7776,-0.8052,-0.8375,-0.8415,-0.8536,-0.8758,-0.8549,0.0,0.0,0.0,0.0,0.0,0.0,0.0,0.0,0.0,0.0,0.0,0.0,0.0,0.0,0.0,0.0,0.0,0.0,0.0,0.0,0.0,0.0,0.0,0.0,0.0,0.0,0.0,0.0,0.0,0.0,0.0,0.0,0.0,0.0,0.0,0.0,0.0,0.0,0.0,0.0,0.0,0.0,0.0,0.0,0.0,0.0,0.0,0.0,0.0,0.0,0.0,0.0,0.0,0.0,0.0,0.0,0.0,0.0,0.0,0.0,0.0,0.0,0.0,0.0,0.0,0.0,0.0,0.0,0.0,0.0,0.0,0.0,0.0,0.0,0.0,0.0,0.0,0.0,0.0,0.0,0.0,0.0,0.0,0.0,0.0,0.0,0.0,0.0,0.0,0.0,0.0,0.0,0.0,0.0,0.0,0.0,0.0,0.0,0.0,0.0,0.0,0.0,-0.7,-0.7046,0.0,-0.7612,-0.7952,-0.8065,-0.843,-0.8611,-0.8569,0.0,0.0,0.0,0.0,0.0,0.0,0.0,0.0,0.0,0.0,0.0,0.0,0.0,0.0,0.0,0.0,0.0,0.0,0.0,0.0,0.0,0.0,0.0,0.0,0.0,0.0,0.0,0.0,0.0,0.0,0.0,0.0,0.0,0.0,0.0,0.0,0.0,0.0,0.0,0.0,0.0,0.0,0.0,0.0,0.0,0.0,0.0,0.0,0.0,0.0,0.0,0.0,0.0,0.0,0.0,0.0,0.0,0.0,0.0,0.0,0.0,0.0,0.0,0.0,0.0,0.0,0.0,0.0,0.0,0.0,0.0,0.0,0.0,0.0,0.0,0.0,0.0,0.0,0.0,0.0,0.0,0.0,0.0,0.0,0.0,0.0,0.0,0.0,0.0,0.0,0.0,0.0,0.0,0.0,0.0,0.0,0.0,0.0,0.0,0.0,0.0,0.0,-0.7154,-0.7161,-0.7201,0.0,-0.7746,-0.8045,-0.8045,-0.8437,-0.8624,-0.8543,0.0,0.0,0.0,0.0,0.0,0.0,0.0,0.0,0.0,0.0,0.0,0.0,0.0,0.0,0.0,0.0,0.0,0.0,0.0,0.0,0.0,0.0,0.0,0.0,0.0,0.0,0.0,0.0,0.0,0.0,0.0,0.0,0.0,0.0,0.0,0.0,0.0,0.0,0.0,0.0,0.0,0.0,0.0,0.0,0.0,0.0,0.0,0.0,0.0,0.0,0.0,0.0,0.0,0.0,0.0,0.0,0.0,0.0,0.0,0.0,0.0,0.0,0.0,0.0,0.0,0.0,0.0,0.0,0.0,0.0,0.0,0.0,0.0,0.0,0.0,0.0,0.0,0.0,0.0,0.0,0.0,0.0,0.0,0.0,0.0,0.0,0.0,0.0,0.0,0.0,0.0,0.0,0.0,0.0,0.0,0.0,0.0,0.0,0.0,0.0,0.0,0.0,-0.7457,-0.7513,-0.7611,-0.7872,-0.8196,-0.8402,-0.8402,-0.8402,-0.8529,0.0,0.0,0.0,0.0,0.0,0.0,0.0,0.0,0.0,0.0,0.0,0.0,0.0,0.0,0.0,0.0,0.0,0.0,0.0,0.0,0.0,0.0,0.0,0.0,0.0,0.0,0.0,0.0,0.0,0.0,0.0,0.0,0.0,0.0,0.0,0.0,0.0,0.0,0.0,0.0,0.0,0.0,0.0,0.0,0.0,0.0,0.0,0.0,0.0,0.0,0.0,0.0,0.0,0.0,0.0,0.0,0.0,0.0,0.0,0.0,0.0,0.0,0.0,0.0,0.0,0.0,0.0,0.0,0.0,0.0,0.0,0.0,0.0,0.0,0.0,0.0,0.0,0.0,0.0,0.0,0.0,0.0,0.0,0.0,0.0,0.0,0.0,0.0,0.0,0.0,0.0,0.0,0.0,0.0,0.0,0.0,0.0,0.0,0.0,0.0,0.0,0.0,0.0,-0.7759,-0.7772,-0.7806,-0.7899,-0.8196,-0.8402,-0.8402,-0.8564,-0.8717,-0.8804,0.0,0.0,0.0,0.0,0.0,0.0,0.0,0.0,0.0,0.0,0.0,0.0,0.0,0.0,0.0,0.0,0.0,0.0,0.0,0.0,0.0,0.0,0.0,0.0,0.0,0.0,0.0,0.0,0.0,0.0,0.0,0.0,0.0,0.0,0.0,0.0,0.0,0.0,0.0,0.0,0.0,0.0,0.0,0.0,0.0,0.0,0.0,0.0,0.0,0.0,0.0,0.0,0.0,0.0,0.0,0.0,0.0,0.0,0.0,0.0,0.0,0.0,0.0,0.0,0.0,0.0,0.0,0.0,0.0,0.0,0.0,0.0,0.0,0.0,0.0,0.0,0.0,0.0,0.0,0.0,0.0,0.0,0.0,0.0,0.0,0.0,0.0,0.0,0.0,0.0,0.0,0.0,0.0,0.0,0.0,0.0,0.0,0.0,0.0,0.0,0.0,0.0,-0.8096,-0.811,-0.815,-0.8245,-0.8444,-0.855,-0.855,-0.8704,-0.8758,-0.8644,0.0,0.0,0.0,0.0,0.0,0.0,0.0,0.0,0.0,0.0,0.0,0.0,0.0,0.0,0.0,0.0,0.0,0.0,0.0,0.0,0.0,0.0,0.0,0.0,0.0,0.0,0.0,0.0,0.0,0.0,0.0,0.0,0.0,0.0,0.0,0.0,0.0,0.0,0.0,0.0,0.0,0.0,0.0,0.0,0.0,0.0,0.0,0.0,0.0,0.0,0.0,0.0,0.0,0.0,0.0,0.0,0.0,0.0,0.0,0.0,0.0,0.0,0.0,0.0,0.0,0.0,0.0,0.0,0.0,0.0,0.0,0.0,0.0,0.0,0.0,0.0,0.0,0.0,0.0,0.0,0.0,0.0,0.0,0.0,0.0,0.0,0.0,0.0,0.0,0.0,0.0,0.0,0.0,0.0,0.0,0.0,0.0,0.0,0.0,0.0,0.0,0.0,-0.8409,-0.8442,-0.8543,-0.8778,-0.8804,-0.8804,-0.8804,-0.8804,-0.8684,-0.8415,0.0,0.0,0.0,0.0,0.0,0.0,0.0,0.0,0.0,0.0,0.0,0.0,0.0,0.0,0.0,0.0,0.0,0.0,0.0,0.0,0.0,0.0,0.0,0.0,0.0,0.0,0.0,0.0,0.0,0.0,0.0,0.0,0.0,0.0,0.0,0.0,0.0,0.0,0.0,0.0,0.0,0.0,0.0,0.0,0.0,0.0,0.0,0.0,0.0,0.0,0.0,0.0,0.0,0.0,0.0,0.0,0.0,0.0,0.0,0.0,-0.9697,0.0,0.0,0.0,0.0,0.0,0.0,0.0,0.0,0.0,0.0,0.0,0.0,0.0,0.0,0.0,0.0,0.0,0.0,0.0,0.0,0.0,0.0,0.0,0.0,0.0,0.0,0.0,0.0,0.0,0.0,0.0,0.0,0.0,0.0,0.0,0.0,0.0,0.0,0.0,0.0,0.0,-0.8704,-0.8711,-0.8738,-0.8798,-0.8804,-0.8804,-0.8804,-0.8804,-0.8684,-0.8415,0.0,0.0,0.0,0.0,0.0,0.0,0.0,0.0,0.0,0.0,0.0,0.0,0.0,0.0,0.0,0.0,0.0,0.0,0.0,0.0,0.0,0.0,0.0,0.0,0.0,0.0,0.0,0.0,0.0,0.0,0.0,0.0,0.0,0.0,0.0,0.0,0.0,0.0,0.0,0.0,0.0,0.0,0.0,0.0,0.0,0.0,0.0,0.0,0.0,0.0,0.0,0.0,0.0,0.0,0.0,0.0,0.0,0.0,0.0,0.0,0.0,-1.0197,0.0,0.0,0.0,0.0,0.0,0.0,0.0,0.0,0.0,0.0,0.0,0.0,0.0,0.0,0.0,0.0,0.0,0.0,0.0,0.0,0.0,0.0,0.0,0.0,0.0,0.0,0.0,0.0,0.0,0.0,0.0,0.0,0.0,0.0,0.0,0.0,0.0,0.0,0.0,0.0,-0.8804,-0.8804,-0.8804,-0.8804,-0.8804,-0.8804,-0.8804,-0.8804,-0.8684,-0.8415,-0.8402,0.0,0.0,0.0,0.0,0.0,0.0,0.0,0.0,0.0,0.0,0.0,0.0,0.0,0.0,0.0,0.0,0.0,0.0,0.0,0.0,0.0,0.0,0.0,0.0,0.0,0.0,0.0,0.0,0.0,0.0,0.0,0.0,0.0,0.0,0.0,0.0,0.0,0.0,0.0,0.0,0.0,0.0,0.0,0.0,0.0,0.0,0.0,0.0,0.0,0.0,0.0,0.0,0.0,-1.2489,-1.2596,-1.2852,-1.3293,-1.334,-1.3073,-1.3073,-1.2091,-1.0481,0.0,0.0,0.0,0.0,0.0,0.0,0.0,0.0,0.0,0.0,0.0,0.0,0.0,0.0,0.0,0.0,0.0,0.0,0.0,0.0,0.0,0.0,0.0,0.0,0.0,-0.9178,-0.9084,0.0,0.0,0.0,0.0,0.0,0.0,0.0,0.0,0.0,0.0,0.0,0.0,-0.8804,-0.8804,-0.8804,-0.8804,-0.8804,-0.8804,-0.8804,-0.8804,-0.8684,-0.8415,-0.8348,-0.8183,0.0,0.0,0.0,0.0,0.0,0.0,0.0,0.0,0.0,0.0,0.0,0.0,0.0,0.0,0.0,0.0,0.0,0.0,0.0,0.0,0.0,0.0,0.0,0.0,0.0,0.0,0.0,0.0,0.0,0.0,0.0,0.0,-1.1209,-1.0181,0.0,0.0,0.0,0.0,0.0,0.0,0.0,0.0,0.0,0.0,0.0,0.0,0.0,0.0,-1.2496,-1.261,-1.2913,-1.3433,-1.4208,-1.4754,-1.5017,-1.5818,-1.6166,-1.6126,-1.6126,0.0,-1.1937,-1.0948,0.0,0.0,0.0,0.0,0.0,0.0,0.0,0.0,0.0,0.0,0.0,0.0,0.0,0.0,0.0,0.0,0.0,0.0,0.0,0.0,0.0,0.0,-0.9144,-0.8898,-0.9031,-0.9191,0.0,-0.9131,-0.9071,-0.8804,0.0,0.0,0.0,0.0,0.0,0.0,0.0,0.0,-0.8804,-0.8804,-0.8804,-0.8804,-0.8804,-0.8804,-0.8804,-0.8804,-0.8684,-0.8415,-0.813,-0.7945,-0.7905,-0.7651,0.0,0.0,0.0,0.0,0.0,0.0,0.0,0.0,0.0,0.0,0.0,0.0,0.0,0.0,0.0,0.0,0.0,0.0,0.0,0.0,0.0,0.0,0.0,0.0,0.0,0.0,0.0,0.0,0.0,-1.042,-1.0514,-0.9499,-1.011,-1.0191,0.0,0.0,0.0,0.0,0.0,0.0,0.0,0.0,0.0,-1.2013,-1.3199,-1.3903,-1.403,-1.4687,-1.5104,-1.5371,-1.5758,-1.6012,-1.6146,-1.6533,-1.6707,-1.6707,-1.6707,-1.5972,-1.4683,-1.3561,-1.2683,-1.1997,0.0,0.0,0.0,0.0,0.0,-1.1028,-1.0828,-1.0882,0.0,0.0,0.0,0.0,0.0,0.0,0.0,0.0,0.0,0.0,0.0,0.0,0.0,-0.9766,-0.9766,-0.9933,-0.9737,-0.9704,-0.957,0.0,-0.9024,-0.8971,-0.8838,0.0,0.0,0.0,0.0,0.0,-0.8804,-0.8804,-0.8804,-0.8804,-0.8804,-0.8804,-0.8804,-0.8657,-0.8536,-0.8409,-0.7929,-0.7669,-0.7669,-0.7375,-0.7281,0.0,0.0,0.0,0.0,0.0,0.0,0.0,0.0,0.0,0.0,0.0,0.0,0.0,0.0,0.0,0.0,0.0,0.0,0.0,0.0,0.0,0.0,0.0,0.0,0.0,0.0,0.0,0.0,-1.0254,-1.0555,-0.9593,-1.0381,-1.0661,0.0,0.0,0.0,0.0,0.0,0.0,-1.1764,-1.2864,-1.3467,-1.3467,-1.4834,-1.5571,-1.5571,-1.646,-1.6967,-1.7048,-1.7041,-1.7081,-1.7161,-1.7161,-1.7161,-1.7161,-1.7161,-1.7161,-1.7048,-1.5618,-1.4449,-1.3627,-1.3327,-1.3213,-1.318,-1.2991,-1.2904,-1.2871,-1.2612,-1.2679,-1.2904,-1.2904,0.0,-1.3106,-1.3186,0.0,0.0,0.0,0.0,-1.1817,-1.0568,-1.1269,-1.1951,-1.0561,-1.0432,-1.0553,-1.0374,-1.0341,-1.0127,0.0,-0.9211,-0.9118,-0.8858,0.0,0.0,0.0,0.0,-0.8804,-0.8804,-0.8871,-0.8891,-0.8891,-0.8985,-0.9031,-0.9031,-0.8838,-0.8703,-0.8604,-0.8127,-0.7799,-0.7725,-0.7415,-0.7233,-0.7233,0.0,0.0,0.0,0.0,0.0,0.0,0.0,0.0,0.0,0.0,0.0,0.0,0.0,0.0,0.0,0.0,0.0,0.0,0.0,0.0,0.0,0.0,0.0,0.0,0.0,0.0,0.0,0.0,0.0,-1.1395,-1.1837,0.0,0.0,0.0,0.0,-1.2926,-1.306,-1.3327,-1.3901,-1.4776,-1.5264,-1.5264,-1.6469,-1.7092,-1.7092,-1.7427,-1.7682,-1.7922,-1.7902,-1.811,-1.8397,-1.8397,-1.8397,-1.8397,-1.8397,-1.8397,-1.8223,-1.596,-1.4975,-1.4807,-1.3647,-1.3213,-1.3206,-1.3193,-1.3186,-1.3186,-1.3173,-1.3173,-1.3186,-1.3186,-1.3038,-1.2864,-1.312,-1.316,0.0,0.0,-1.3467,-1.3614,-1.2181,-1.2031,-1.2004,-1.0847,-1.0579,-1.0667,-1.0889,-1.0949,-1.0608,0.0,-0.9211,-0.9118,-0.8858,0.0,-0.8804,-0.8804,-0.8804,-0.8804,-0.8804,-0.9024,-0.9191,-0.9191,-0.9472,-0.9668,-0.9668,-0.9655,-0.9499,-0.9184,-0.8884,-0.8617,-0.8368,-0.8043,-0.7859,-0.7859,-0.7859,0.0,0.0,0.0,0.0,0.0,0.0,0.0,0.0,0.0,0.0,0.0,0.0,0.0,0.0,0.0,0.0,0.0,0.0,0.0,0.0,0.0,0.0,0.0,0.0,0.0,0.0,0.0,0.0,-1.2342,-1.3133,0.0,0.0,-1.2585,-1.2999,-1.3721,-1.4295,-1.479,-1.5184,-1.6226,-1.6894,-1.7043,-1.7508,-1.7822,-1.8009,-1.8116,-1.8223,-1.833,-1.8323,-1.8384,-1.849,-1.849,-1.849,-1.849,-1.849,-1.849,-1.8424,-1.7582,-1.7235,-1.7194,-1.6774,-1.6607,-1.6587,-1.6393,-1.6277,-1.6244,-1.6092,-1.6152,-1.6304,-1.6547,-1.6533,-1.6319,-1.5658,-1.5458,-1.5304,-1.4549,-1.503,-1.5478,-1.4238,-1.3976,-1.3715,-1.2328,-1.1424,-1.0847,-1.0767,-1.0747,-1.0534,-0.989,-0.996,-0.994,-0.9452,-0.9372,-0.9372,-0.9372,-0.9372,-0.9372,-0.9372,-0.9459,-0.9526,-0.9526,-0.9619,-0.9715,-0.9715,-0.9339,-0.9072,-0.8944,-0.8485,-0.8172,-0.8096,-0.7965,-0.7905,-0.7905,-0.7905,-0.7905,0.0,0.0,0.0,0.0,0.0,0.0,0.0,0.0,0.0,0.0,0.0,0.0,0.0,0.0,0.0,0.0,0.0,0.0,0.0,0.0,0.0,0.0,0.0,0.0,0.0,0.0,-1.3086,-1.3226,-1.4155,-1.4623,-1.4142,-1.4226,-1.4625,-1.5371,-1.5965,-1.642,-1.6714,-1.7462,-1.7983,-1.8135,-1.8235,-1.8382,-1.8637,-1.8738,-1.8784,-1.8784,-1.8784,-1.8784,-1.8784,-1.8784,-1.8784,-1.8784,-1.8784,-1.8784,-1.8784,-1.8784,-1.8784,-1.8771,-1.8571,-1.849,-1.847,-1.827,-1.8196,-1.8163,-1.7963,-1.8023,-1.823,-1.843,-1.849,-1.8343,-1.7549,-1.7308,-1.7148,-1.6373,-1.6714,-1.7041,-1.5858,-1.5303,-1.4633,-1.3139,-1.1886,-1.0942,-1.078,-1.0734,-1.068,-1.0448,-1.0408,-1.0285,-0.9796,-0.9715,-0.9715,-0.9715,-0.9715,-0.9715,-0.9715,-0.9773,-0.9826,-0.9826,-0.995,-1.001,-1.001,-0.9532,-0.9205,-0.9112,-0.8618,-0.8305,-0.8205,-0.8199,-0.8199,-0.8199,-0.8199,-0.8199,-0.8199,0.0,0.0,0.0,0.0,0.0,0.0,0.0,0.0,0.0,0.0,0.0,0.0,0.0,0.0,0.0,0.0,0.0,0.0,0.0,0.0,0.0,0.0,0.0,-1.2204,-1.3548,-1.4456,-1.4208,-1.4943,-1.5578,-1.5824,-1.5858,-1.6457,-1.7896,-1.8015,-1.8149,-1.849,-1.851,-1.8517,-1.8517,-1.8791,-1.8938,-1.8938,-1.9232,-1.9379,-1.9379,-1.945,-1.9392,-1.9392,-1.9392,-1.9392,-1.9392,-1.9392,-1.9392,-1.9392,-1.9392,-1.9392,-1.9397,-1.8744,-1.8517,-1.8517,-1.8517,-1.8517,-1.8517,-1.8517,-1.8517,-1.8517,-1.8517,-1.8517,-1.8517,-1.8517,-1.8517,-1.8517,-1.8517,-1.8517,-1.825,-1.7088,-1.5892,-1.4666,-1.3213,-1.1933,-1.1002,-1.0995,-1.0982,-1.0982,-1.0982,-1.0521,-1.004,-0.976,-0.9742,-0.9742,-0.9742,-0.9742,0.0,-0.9742,-0.996,-1.0134,-1.0134,-1.0419,-1.0593,-1.0593,-1.0281,-0.998,-0.9699,-0.9364,-0.9071,-0.8818,-0.8804,-0.8804,-0.8804,-0.8804,-0.8804,-0.8804,0.0,0.0,0.0,0.0,0.0,0.0,0.0,0.0,0.0,0.0,0.0,0.0,0.0,0.0,0.0,0.0,0.0,0.0,0.0,0.0,0.0,0.0,-1.5225,-1.4333,-1.476,-1.5438,-1.6261,-1.6707,-1.7101,-1.7356,-1.7635,-1.7929,-1.8337,-1.8564,-1.8661,-1.8804,-1.9005,-1.9125,-1.9125,-1.9199,-1.9245,-1.9245,-1.9539,-1.9679,-1.9686,-1.9893,-1.9993,-1.9993,-1.9993,-1.9993,-1.9993,-1.9993,-1.9993,-1.9993,-1.9993,-1.9993,-1.9933,-1.9352,-1.9125,-1.9125,-1.9125,-1.9125,-1.9125,-1.9125,-1.9125,-1.9125,-1.9125,-1.9125,-1.9125,-1.9125,-1.9125,-1.9125,-1.9125,-1.9125,-1.9109,-1.8724,-1.7121,-1.5438,-1.4816,-1.2946,-1.1249,-1.1042,-1.0861,-1.0713,-1.0713,-1.0579,-1.0445,-1.0365,-1.0352,-1.0352,-1.0352,-1.0352,0.0,-1.0352,-1.0419,-1.0472,-1.0472,-1.0546,-1.0593,-1.0593,-1.0094,-0.9773,0.0,-0.9205,-0.8891,-0.8811,-0.8804,-0.8804,-0.8804,-0.8804,-0.8804,0.0,0.0,0.0,0.0,0.0,0.0,0.0,0.0,0.0,0.0,0.0,0.0,0.0,0.0,0.0,0.0,0.0,0.0,0.0,0.0,0.0,0.0,-1.6184,-1.7307,-1.6987,-1.6587,-1.6613,-1.7428,-1.7782,-1.8083,-1.8328,-1.8571,-1.8724,-1.8851,-1.9011,-1.9112,-1.9112,-1.9392,-1.9546,-1.9546,-1.9666,-1.9733,-1.9733,-1.99,-1.998,-1.9987,-2.0154,-2.0173,-2.0173,-2.0173,-2.0173,0.0,-2.0173,-2.0173,-2.0173,-2.0173,-2.0173,0.0,0.0,0.0,0.0,0.0,-1.9424,-1.9424,-1.9424,-1.9424,-1.9424,-1.9424,-1.9424,-1.9424,-1.9424,-1.9424,-1.9424,-1.9424,-1.9424,-1.9424,-1.9424,-1.7609,-1.5711,-1.5464,-1.346,-1.1496,-1.1082,-1.0894,-1.0734,-1.062,0.0,0.0,-1.0593,-1.0593,-1.0593,-1.0593,-1.0593,-1.0593,-1.0593,-1.0593,-1.0593,-1.0593,-1.0593,-1.0593,-1.0593,-1.0057,0.0,0.0,0.0,-0.8804,-0.8804,-0.8804,0.0,0.0,0.0,-0.8804,0.0,0.0,0.0,0.0,-0.8731,-0.8717,0.0,0.0,0.0,0.0,0.0,0.0,0.0,0.0,0.0,0.0,0.0,0.0,0.0,0.0,0.0,0.0,-1.7877,-1.92,-1.9916,-1.8864,-1.8043,-1.811,-1.8377,-1.8651,-1.8945,-1.8978,-1.9085,-1.941,-1.9457,-1.9477,-1.9477,0.0,0.0,0.0,0.0,-2.0173,-2.0173,-2.0267,-2.0287,-2.0287,-2.0314,-2.0273,-2.0273,-2.0273,-2.0273,-2.0273,-2.0273,-2.0273,-2.0273,-2.0273,-2.0273,-2.026,-2.0261,-2.0074,-1.982,-1.9559,-1.9466,0.0,0.0,0.0,0.0,-1.9466,-1.9466,-1.9466,-1.9466,-1.9446,-1.9477,-1.9477,-1.9392,-1.9424,-1.9424,-1.7609,-1.5718,-1.5504,-1.3614,-1.1759,-1.1202,-1.1062,-1.0955,-1.07,-1.0672,-1.0665,-1.06,-1.0593,-1.0593,-1.0593,-1.0593,-1.0593,-1.0593,-1.0593,-1.0593,-1.0593,0.0,0.0,-1.0593,-1.0057,-0.9715,-0.9715,-0.9132,-0.8804,-0.8804,-0.8804,-0.8804,-0.8804,-0.8804,-0.8804,-0.8804,-0.8804,-0.8804,-0.8804,-0.8804,-0.8804,0.0,0.0,0.0,0.0,0.0,0.0,0.0,0.0,0.0,0.0,0.0,0.0,0.0,0.0,0.0,-1.907,-2.1389,-2.3031,-2.2704,-2.1347,-2.0027,-1.8857,-1.8804,-1.8958,-1.9252,-1.9279,-1.9305,-1.9424,-1.9586,-1.972,-1.972,-1.9993,0.0,-2.0147,-2.014,-2.0173,-2.0173,-2.0468,-2.0588,-2.0595,0.0,0.0,-2.0942,-2.0942,-2.0942,-2.0942,-2.0942,-2.0942,-2.0942,-2.0942,-2.0942,-2.0895,-2.0421,-2.0194,-2.014,-2.0087,-2.0067,-2.0067,-2.0067,-2.0067,-2.0067,-2.0067,-2.0067,-2.0067,-2.0067,-1.99,0.0,-1.972,-1.9546,-1.9424,-1.9424,-1.7609,-1.5764,-1.5711,-1.3761,-1.1873,-1.1759,-1.151,-1.1256,-1.0962,-1.1,-1.099,-1.0665,-1.0593,-1.0593,-1.0593,-1.0593,-1.0593,-1.0593,-1.0593,-1.0593,-1.0593,-1.0593,-1.0593,-1.0593,-1.0057,-0.9715,-0.9715,-0.9132,-0.8804,-0.8804,-0.8804,-0.8804,-0.8804,-0.8804,-0.8804,-0.8804,-0.8804,-0.8804,-0.8804,-0.8804,-0.8804,0.0,0.0,0.0,0.0,0.0,0.0,0.0,0.0,0.0,0.0,0.0,-1.617,0.0,0.0,-2.1413,-2.1698,-2.3488,-2.4728,-2.4425,-2.3269,-2.2171,-2.1466,-2.0685,-2.0302,-2.0465,-2.0614,-2.0429,-1.9638,-1.9853,-2.0013,-2.0013,-2.0294,-2.0454,-2.0454,-2.0595,-2.0668,-2.0668,-2.0822,-2.0895,-2.0895,-2.1196,-2.1329,-2.1336,-2.1483,-2.155,-2.155,-2.155,-2.1463,-2.1323,-2.1169,-2.1109,-2.1082,-2.0782,-2.0581,-2.0434,-2.0287,-2.0173,-2.0173,-2.0173,-2.0173,-2.0173,-2.0173,-2.0173,-2.0173,-2.0173,-2.0134,-2.0013,-2.0013,-1.9913,-1.98,-1.98,-1.849,-1.7007,-1.6406,-1.481,-1.3213,-1.2315,-1.1971,-1.173,-1.1431,-1.1255,-1.1171,-1.106,-1.0942,-1.0776,-1.0624,-1.0649,-1.0681,-1.0624,-1.0593,-1.0593,-1.0593,-1.0593,-1.0593,-1.0593,-1.0057,-0.9619,-0.9472,-0.9051,-0.8804,-0.8804,-0.8804,-0.8804,-0.8804,-0.8804,-0.8804,-0.8804,-0.8804,-0.8804,-0.8804,-0.8804,-0.8804,0.0,0.0,0.0,0.0,0.0,0.0,0.0,0.0,-1.6829,-1.9087,-1.9186,-1.9209,-2.0472,-2.2076,-2.3392,-2.401,-2.5112,-2.5951,-2.5951,-2.4959,-2.4403,-2.4757,-2.3247,-2.2188,-2.2188,-2.2429,-2.2001,-2.0579,-2.0683,-2.0733,-2.0497,-2.0718,-2.0879,-2.0879,-2.1105,-2.1196,-2.1196,-2.1249,-2.1283,-2.1283,-2.1523,-2.1702,-2.1715,-2.1877,-2.1984,-2.1984,-2.1984,-2.185,-2.1681,-2.1376,-2.1283,-2.1283,-2.1283,-2.1102,-2.0808,-2.0514,-2.034,-2.034,-2.034,-2.034,-2.034,-2.034,-2.034,-2.034,-2.034,-2.0368,-2.0321,-2.0321,-2.0274,-2.0173,-2.0173,-1.9366,-1.819,-1.6987,-1.5859,-1.4596,-1.2839,-1.2516,-1.2395,-1.188,-1.1594,-1.1434,-1.1425,-1.1252,-1.1028,-1.0688,-1.0744,-1.0744,-1.0624,-1.0593,-1.0593,-1.0593,-1.0593,-1.0566,-1.0512,-1.0017,-0.9559,-0.9231,-0.8938,-0.8804,-0.8804,-0.8804,-0.8804,-0.8804,-0.8804,-0.8804,-0.8804,-0.8804,-0.8804,-0.8804,-0.8804,-0.8804,-1.352,-1.4589,-1.6434,-1.7086,-1.8292,-1.9329,0.0,0.0,-2.0081,-2.0391,-2.1003,-2.1511,-2.169,-2.3732,-2.5402,-2.545,-2.6885,-2.7999,-2.7999,-2.6743,-2.6455,-2.8115,-2.5889,-2.4195,-2.4195,-2.4515,-2.4212,-2.2898,-2.3089,-2.2739,-2.16,-2.152,-2.1497,-2.1497,-2.1535,-2.1568,-2.1568,-2.1757,-2.1884,-2.1884,-2.1924,-2.1937,-2.1937,-2.1971,-2.1984,-2.1984,-2.1984,-2.1964,-2.1937,-2.1904,-2.1884,-2.1884,-2.1884,-2.171,-2.148,-2.1122,-2.1009,-2.1009,-2.1009,-2.1009,-2.1009,-2.1009,-2.1009,-2.1009,-2.1009,-2.0828,-2.0628,-2.0628,-2.0434,-2.0173,-2.0173,-1.9366,-1.819,-1.6987,-1.5961,-1.4885,-1.3414,-1.3257,-1.3101,-1.2228,-1.2171,-1.2033,-1.128,-1.1206,-1.1146,-1.0839,-1.08,-1.0744,-1.0624,-1.0593,-1.0593,-1.0593,-1.0593,-1.0486,-1.0187,-0.9866,-0.9559,-0.9231,-0.8938,-0.8804,-0.8804,-0.8804,-0.8804,-0.8804,-0.8804,-0.8804,-0.8804,-0.8804,-0.8804,-0.8804,-0.8804,-0.8804,-1.7783,-1.8048,-1.8608,0.0,-2.0723,-2.1426,-2.1426,-2.1953,-2.2656,-2.3418,-2.4268,-2.4951,-2.5253,-2.6133,-2.6943,0.0,-2.7822,-2.8291,-2.8291,-2.7991,-2.8038,-2.8787,-2.8258,-2.735,-2.6263,-2.6472,-2.6107,-2.4709,-2.4852,-2.4741,-2.42,-2.3421,-2.2983,-2.2983,-2.3221,-2.3321,-2.3321,-2.345,-2.3515,-2.3515,-2.2675,-2.2238,-2.2245,-2.2418,-2.2498,-2.2485,-2.2311,-2.2238,-2.2225,-2.2051,-2.1984,-2.1984,-2.1984,-2.181,-2.1601,-2.141,-2.1256,-2.1109,-2.1109,-2.1109,-2.1109,-2.1109,-2.1109,-2.1109,-2.1109,-2.1029,-2.0929,-2.0929,-2.0842,-2.0742,-2.0742,-2.0381,-1.9539,-1.7821,-1.6999,-1.6123,-1.4269,-1.3809,-1.3677,-1.3393,-1.3066,-1.2707,-1.2173,-1.18,-1.1422,-1.0891,-1.0807,-1.0776,-1.0713,-1.0656,-1.0593,-1.0593,-1.0593,-1.0472,-1.014,-0.9846,-0.9559,-0.9231,-0.8938,-0.8804,-0.8804,-0.8804,-0.8804,-0.8804,-0.8804,-0.8804,-0.8804,-0.8804,-0.8804,-0.8804,-0.8804,-0.8804,-2.0089,-2.0274,0.0,-2.1728,-2.2646,-2.3252,-2.3369,-2.3975,-2.4805,-2.5869,-2.668,-2.7295,-2.766,-2.7816,-2.7939,-2.8242,-2.8291,-2.8291,-2.8291,-2.8652,-2.8965,-2.9082,-2.9746,-2.9708,-2.8422,-2.8498,-2.8061,-2.6618,-2.6687,-2.6702,-2.6438,-2.5405,-2.4912,-2.5068,-2.5329,-2.5248,-2.4738,-2.482,-2.4611,-2.4101,-2.3022,-2.2539,-2.2545,-2.329,-2.3863,-2.4385,-2.4082,-2.3982,-2.3961,-2.3807,-2.3391,-2.3001,-2.3523,-2.3018,-2.2045,-2.2339,-2.1936,-2.1235,-2.1235,-2.1235,-2.1235,-2.1235,-2.1172,-2.1109,-2.1109,-2.1109,-2.1109,-2.1109,-2.1109,-2.1109,-2.1109,-2.1109,-2.0576,-1.8367,-1.7799,-1.7184,-1.4822,-1.4323,-1.4293,-1.4184,-1.3734,-1.3226,-1.2849,-1.2235,-1.164,-1.1067,-1.0918,-1.087,-1.0807,-1.0713,-1.0649,-1.0649,-1.0624,-1.0506,-1.0254,-0.9967,-0.9679,-0.9351,-0.9064,-0.8891,-0.8811,-0.8804,-0.8804,-0.8804,-0.8804,-0.8804,-0.8804,-0.8804,-0.8804,-0.8804,-0.8804,-0.8804,-1.8217,0.0,-2.0899,-2.2168,-2.375,-2.5107,-2.5489,-2.5986,-2.6435,-2.6885,-2.7334,-2.7699,-2.7718,-2.7998,-2.8281,-2.8291,-2.8291,-2.8291,-2.8291,-2.8652,-2.9082,-2.9502,-2.9932,-3.0371,0.0,-3.0801,-3.0255,-2.8902,-2.8792,-2.8427,-2.7588,-2.7173,-2.7218,-2.7651,-2.7613,-2.676,-2.5082,-2.533,-2.4627,-2.2969,-2.2914,-2.2846,-2.2914,-2.4648,-2.638,-2.804,-2.8032,-2.8023,-2.8015,-2.8015,-2.7007,-2.5554,-2.7338,-2.595,-2.3094,-2.413,-2.3242,-2.1607,-2.1607,-2.1607,-2.1607,-2.1607,-2.1355,-2.1109,-2.1109,-2.1109,-2.1109,-2.1109,-2.1109,-2.1109,-2.1109,-2.1109,-2.0514,-1.8143,-1.7957,-1.7555,-1.4955,-1.4768,-1.4889,-1.422,-1.392,-1.354,-1.2842,-1.2241,-1.1816,-1.1516,-1.1248,-1.1028,-1.0839,-1.0807,-1.08,-1.08,-1.0681,-1.0586,-1.0579,-1.0274,-0.998,-0.9715,-0.9364,-0.9071,-0.8818,-0.8804,-0.8804,-0.8804,-0.8804,-0.8804,-0.8804,-0.8804,-0.8804,-0.8804,-0.8804,-0.8804,-1.9453,0.0,-2.2656,-2.4248,-2.5303,-2.6055,-2.6484,-2.6924,-2.7275,-2.7422,-2.7109,-2.6816,-2.6816,-2.6934,-2.7031,-2.7031,-2.7744,-2.8291,-2.8291,-2.8906,-2.9404,-2.9551,-3.0215,0.0,0.0,0.0,0.0,-3.0274,-3.0464,-3.0496,-3.0208,-2.9527,-2.9233,-2.9356,-2.9599,-2.947,-2.8878,-2.9006,-2.873,-2.8139,-2.6972,-2.6447,-2.6447,-2.7047,-2.7643,-2.8172,-2.8172,-2.8172,-2.8172,-2.8172,-2.7842,-2.737,-2.7974,-2.7359,-2.6059,-2.5493,-2.4857,-2.4044,-2.2244,-2.1607,-2.1607,-2.1859,-2.1544,-2.1172,-2.1355,-2.1299,-2.1109,-2.1109,-2.1109,-2.1109,-2.1109,-2.1109,-2.0777,-1.9597,-1.8652,-1.7719,-1.6593,-1.5669,-1.5025,-1.481,-1.4391,-1.3857,-1.3257,-1.2699,-1.2143,-1.1755,-1.1447,-1.1185,-1.1028,-1.0996,-1.0965,-1.0807,-1.0776,-1.0662,-1.0465,-1.0356,-1.0173,-0.9838,-0.9427,-0.9171,-0.9071,-0.8911,-0.8804,-0.8804,-0.8804,-0.8804,-0.8804,-0.8804,-0.8804,-0.8804,-0.8804,-0.8804,-2.1163,-2.2637,-2.3929,-2.5528,-2.6289,-2.6728,-2.7148,-2.7461,-2.7757,-2.7861,-2.709,-2.6387,-2.6387,-2.5879,-2.5508,-2.5654,-2.625,-2.6904,-2.7519,-2.835,-2.9108,-2.9577,-3.0351,0.0,0.0,0.0,0.0,-3.0889,-3.1279,-3.1592,-3.1738,-3.138,-3.1169,-3.1318,-3.1559,-3.1433,-3.0836,-3.0771,-3.0513,-2.9865,-2.8755,-2.8501,-2.9148,-2.9148,-2.9474,-3.0004,-2.9548,-2.9613,-3.0012,-2.8969,-2.8509,-2.8369,-2.8509,-2.7711,-2.6509,-2.6005,-2.5574,-2.4982,-2.2737,-2.2026,-2.2131,-2.2083,-2.1796,-2.1481,-2.1734,-2.1607,-2.1488,-2.1488,-2.1488,-2.1425,-2.1299,-2.1355,-2.1251,-2.0285,-1.9119,-1.8042,-1.7332,-1.6154,-1.5179,-1.5063,-1.4676,-1.418,-1.3591,-1.2997,-1.2409,-1.1941,-1.17,-1.1495,-1.1293,-1.1216,-1.1122,-1.0989,-1.0863,-1.0725,-1.0564,-1.0489,-1.0329,-1.0001,-0.9688,-0.9431,-0.9217,-0.9031,-0.8884,-0.8811,-0.8804,-0.8804,-0.8804,-0.8804,-0.8804,-0.8804,-0.8804,-0.8804,-2.3037,-2.416,-2.4824,-2.6133,-2.6758,-2.7168,-2.7598,-2.7748,-2.7783,-2.8096,-2.7139,-2.623,0.0,0.0,-2.3916,-2.4316,-2.418,-2.46,-2.625,-2.7226,-2.8266,0.0,0.0,0.0,0.0,0.0,0.0,-3.0918,0.0,-3.1738,-3.2178,-3.2598,-3.3008,-3.3408,-3.3418,-3.2629,-3.0973,-3.0909,-3.0125,-2.8501,-2.8501,-2.9344,-3.0909,-3.0909,-3.1835,-3.3355,-3.1973,-3.2174,-3.3165,-3.0419,-2.9117,-2.8838,-2.9117,-2.7328,-2.4844,-2.5858,-2.5604,-2.4518,-2.3128,-2.2843,-2.2971,-2.2335,-2.2111,-2.2111,-2.2111,-2.2104,-2.2111,-2.2111,-2.2111,-2.1985,-2.167,-2.1859,-2.1755,-2.0361,-1.9388,-1.8481,-1.7385,-1.6212,-1.5294,-1.4988,-1.4731,-1.4388,-1.3796,-1.3135,-1.2554,-1.2109,-1.2025,-1.1886,-1.1635,-1.1435,-1.1303,-1.1303,-1.1021,-1.0839,-1.0839,-1.0713,-1.0504,-1.0154,-1.0127,-0.9866,-0.9284,-0.9224,-0.9084,-0.8838,-0.8818,-0.8804,-0.8804,-0.8804,-0.8804,-0.8804,-0.8804,-0.8804,-2.3877,-2.5059,-2.6123,-2.71,-2.7474,-2.7607,-2.8037,-2.8135,-2.7803,-2.6631,-2.5352,-2.4062,0.0,0.0,0.0,-2.3935,-2.5742,0.0,-2.7744,-2.8545,0.0,-2.9587,0.0,-3.0889,-3.0889,-3.0889,0.0,0.0,-3.1758,-3.2187,-3.2607,-3.3037,-3.331,-3.3418,-3.3418,-3.3155,-3.2756,-3.2756,-3.2502,-3.2046,-3.2046,-3.2301,-3.2756,-3.2756,-3.2956,-3.3355,-3.3029,-3.3092,-3.3292,-3.1515,-3.0734,-3.0531,-2.9574,-2.8555,-2.763,-2.716,-2.6438,-2.5579,-2.3876,-2.3221,-2.3099,-2.2902,-2.2487,-2.2174,-2.2425,-2.2299,-2.2111,-2.2111,-2.1922,-2.1796,-2.1922,-2.1859,-2.1783,-2.1904,-2.0345,-1.8769,-1.8709,-1.6972,-1.5318,-1.5107,-1.4581,-1.4059,-1.3422,-1.31,-1.288,-1.2747,-1.2317,-1.1886,-1.1635,-1.1435,-1.1303,-1.1303,-1.1209,-1.1115,-1.1028,-1.109,-1.0993,-1.0635,-1.0424,-1.0197,-0.987,-0.9444,-0.9178,-0.9104,-0.8891,-0.8804,-0.8804,-0.8804,-0.8804,-0.8804,-0.8804,-0.8804,-2.4951,-2.5957,-2.6826,-2.7552,-2.7855,-2.7803,-2.7285,-2.7168,-2.668,-2.4961,-2.3574,0.0,-2.1487,0.0,0.0,0.0,0.0,0.0,-2.7353,-2.8193,-2.9,0.0,-3.0351,0.0,-3.0889,-3.0889,-3.1143,0.0,-3.2031,-3.2353,-3.2773,-3.3193,-3.3418,-3.3418,-3.3418,-3.3418,-3.3418,-3.3418,-3.3418,-3.3418,-3.3418,-3.3418,-3.3418,-3.3418,-3.3092,-3.2438,0.0,-3.1534,-3.1396,-2.9435,-2.8875,-2.912,-2.7695,-2.6969,-2.6689,-2.6048,-2.5616,-2.5141,-2.3975,-2.3493,-2.329,-2.2964,-2.2738,-2.2543,-2.2738,-2.2668,-2.2487,-2.2362,-2.2193,-2.2025,-2.1901,-2.1963,-2.2095,-2.2343,-2.0644,-1.9063,-1.9279,-1.7252,-1.5301,-1.4895,-1.4392,-1.3894,-1.3433,-1.3266,-1.3177,-1.3031,-1.2694,-1.2343,-1.2021,-1.1672,-1.1435,-1.1435,-1.1334,-1.1279,-1.1185,-1.1216,-1.1122,-1.0933,-1.0712,-1.0469,-1.0242,-0.9829,-0.9537,-0.9439,-0.9118,-0.8971,-0.8971,-0.8871,-0.8804,-0.8804,-0.8804,-0.8878,-2.5957,-2.6699,-2.7119,-2.7559,-2.7978,-2.7842,-2.6074,-2.5693,-2.5118,-2.3188,0.0,-2.1026,-2.0987,-2.1017,-2.131,-2.2121,0.0,-2.4658,-2.6396,-2.7324,-2.8262,-2.9489,-3.0293,-3.082,-3.0889,-3.0947,-3.1309,-3.2109,-3.2217,-3.2441,-3.2861,-3.3223,-3.3418,-3.3418,-3.3418,-3.3418,-3.3418,-3.3418,-3.3418,-3.3418,-3.3418,-3.3418,-3.3418,-3.3418,-3.2702,-3.1515,0.0,0.0,-2.9236,-2.6632,-2.5973,-2.6508,-2.509,-2.4305,-2.402,-2.4064,-2.4027,-2.3918,-2.3684,-2.3567,-2.3423,-2.2887,-2.2856,-2.3106,-2.3106,-2.3106,-2.3036,-2.268,-2.2595,-2.2425,-2.1838,-2.2069,-2.245,-2.2187,-2.0648,-1.922,-1.9212,-1.7206,-1.5214,-1.4648,-1.4304,-1.3989,-1.3623,-1.3558,-1.3448,-1.3126,-1.3038,-1.2906,-1.2587,-1.2021,-1.1657,-1.1657,-1.1457,-1.1334,-1.1303,-1.1216,-1.1153,-1.109,-1.0965,-1.0753,-1.0461,-1.0262,-1.003,-0.9746,-0.9424,-0.9251,-0.9211,-0.9038,-0.8945,-0.8864,-0.8945,-0.9064,-2.6211,-2.6699,-2.7119,-2.7559,-2.7978,-2.7842,-2.6074,-2.5693,0.0,0.0,-2.0303,-1.9744,-1.8488,-1.9288,-2.0781,-2.2853,0.0,0.0,0.0,0.0,-2.8916,0.0,0.0,0.0,0.0,0.0,0.0,0.0,0.0,0.0,-3.3291,-3.3379,-3.3418,-3.3418,-3.3418,-3.3418,-3.3418,-3.3418,-3.3418,-3.3418,-3.3418,-3.3418,-3.3418,-3.3418,-3.3292,-3.3029,0.0,0.0,-3.0511,-2.8858,-2.7424,-2.6135,-2.4745,-2.3969,-2.3713,-2.3984,-2.3742,-2.331,-2.3523,-2.342,-2.3186,-2.3065,-2.3043,-2.3106,-2.3106,-2.3106,-2.3054,-2.2722,-2.2422,-2.2198,-2.2081,-2.2009,-2.1879,-2.2076,-2.0419,-1.8899,-1.8909,-1.7059,-1.5272,-1.4893,-1.4776,-1.455,-1.4004,-1.3894,-1.3784,-1.3455,-1.3184,-1.2987,-1.2928,-1.2358,-1.1923,-1.1923,-1.1689,-1.1466,-1.1303,-1.1435,-1.1404,-1.1122,-1.1185,-1.1062,-1.0725,-1.0493,-1.0245,-1.004,-0.9753,-0.9486,-0.9211,-0.965,-0.961,-0.9144,-0.9637,-0.9786,-2.6269,-2.6533,-2.6787,-2.7217,-2.748,-2.6943,-2.4326,0.0,0.0,0.0,-1.8227,-1.8076,-1.7501,0.0,0.0,0.0,0.0,0.0,0.0,0.0,0.0,0.0,0.0,0.0,0.0,0.0,0.0,0.0,0.0,0.0,-3.3398,-3.3418,-3.3418,-3.3418,-3.3418,-3.3418,-3.3418,-3.3418,-3.3418,-3.3418,-3.3418,-3.3418,-3.3418,-3.3418,-3.2575,-3.1194,-3.1057,0.0,-2.7579,-2.6689,-2.5775,-2.4769,-2.408,-2.3625,-2.3362,-2.3515,-2.3376,-2.3135,-2.3288,-2.3237,-2.3106,-2.3106,-2.3106,-2.3106,-2.3106,-2.3106,-2.3014,-2.2675,-2.24,-2.2118,-2.1966,-2.1929,-2.1966,-2.2118,-2.0565,-1.8848,-1.8173,-1.6634,-1.5287,-1.4966,-1.49,-1.4754,-1.4318,-1.4269,-1.4166,-1.3799,-1.3616,-1.3455,-1.3287,-1.284,-1.2441,-1.2273,-1.2153,-1.2025,-1.1927,-1.184,-1.1713,-1.1496,-1.1308,-1.109,-1.0807,-1.0726,-1.067,-1.0575,-1.0434,-1.0294,-1.0154,-1.0281,-1.02,-0.9927,-1.006,-1.0127,-2.6162,-2.6318,-2.6465,-2.6797,-2.6943,-2.6113,-2.2666,-2.1885,0.0,0.0,-1.6623,-1.6717,-1.706,0.0,-1.9568,0.0,0.0,0.0,0.0,0.0,0.0,0.0,0.0,0.0,0.0,0.0,0.0,0.0,0.0,0.0,-3.3408,-3.3481,-3.3481,-3.3418,-3.3481,-3.3481,-3.3418,-3.3418,-3.3418,-3.3418,-3.3418,-3.3418,-3.3418,-3.3418,-3.2046,-2.9613,-2.9369,0.0,0.0,-2.4555,-2.4099,-2.3493,-2.3493,-2.3332,-2.3106,-2.3106,-2.3106,-2.3106,-2.3106,-2.3106,-2.3106,-2.3106,-2.3106,-2.3106,-2.3106,-2.3106,-2.3036,-2.2714,-2.2468,-2.2197,-2.1877,-2.1989,-2.2118,-2.1832,-2.0431,-1.8848,-1.7523,-1.6279,-1.5309,-1.5053,-1.5009,-1.4907,-1.4626,-1.4575,-1.4496,-1.4174,-1.4064,-1.3887,-1.3631,-1.3309,-1.3016,-1.276,-1.2606,-1.2485,-1.2485,-1.2251,-1.2073,-1.1948,-1.155,-1.1255,-1.1063,-1.1126,-1.1115,-1.1089,-1.1089,-1.1056,-1.0995,-1.0921,-1.0807,-1.068,-1.0541,-1.0581,-2.5732,-2.6084,-2.6396,-2.6435,-2.6728,-2.6113,-2.2666,0.0,0.0,-1.7115,-1.6346,-1.6437,-1.6769,-1.6809,-1.7596,-2.0069,-2.0925,-2.2325,0.0,0.0,0.0,0.0,0.0,0.0,0.0,0.0,0.0,0.0,0.0,0.0,0.0,-3.367,-3.3733,-3.3418,-3.367,-3.3733,-3.3418,-3.3418,-3.3418,-3.3418,-3.3418,-3.3418,-3.3418,-3.3418,-3.2565,-3.1102,0.0,0.0,0.0,-2.5715,-2.4624,-2.3157,-2.3157,-2.3135,-2.3106,-2.3106,-2.3106,-2.3106,-2.3106,-2.3106,-2.3106,-2.3106,-2.3106,-2.3106,-2.3106,-2.3106,-2.3047,-2.2686,-2.2562,-2.252,-2.225,-2.2184,-2.1884,-2.0698,-1.9621,-1.8483,-1.7198,-1.6126,-1.5382,-1.5345,-1.5345,-1.5236,-1.4915,-1.4856,-1.4754,-1.4511,-1.4172,-1.4005,-1.3945,-1.3653,-1.344,-1.3411,-1.2877,-1.2485,-1.2485,-1.2456,-1.2441,-1.2441,-1.221,-1.2027,-1.1899,-1.1716,-1.156,-1.139,-1.1349,-1.1256,-1.0995,-1.1538,-1.1511,-1.0962,-1.1504,-1.1577,-2.5479,-2.5859,-2.5996,-2.5996,-2.5527,-2.4375,-2.174,0.0,-1.9285,-1.6494,-1.5989,-1.6107,-1.6331,-1.6436,-1.7019,-1.8568,-1.9723,0.0,0.0,0.0,0.0,0.0,0.0,0.0,0.0,0.0,0.0,0.0,0.0,0.0,0.0,-3.3544,-3.3607,-3.367,-3.3607,-3.3607,-3.367,-3.3481,-3.3418,-3.3418,-3.3418,-3.3418,-3.3355,-3.2502,-3.1387,-2.9986,0.0,0.0,0.0,-2.4386,-2.3716,-2.3106,-2.3106,-2.3106,-2.3106,-2.3106,-2.3106,-2.3106,-2.3106,-2.3106,-2.3106,-2.3106,-2.3106,-2.3106,-2.3106,-2.3106,-2.3084,-2.2952,-2.2776,-2.2593,-2.2476,-2.2447,-2.2315,-2.1796,-2.0332,-1.8891,-1.8203,-1.6652,-1.5389,-1.5389,-1.5389,-1.5345,-1.5214,-1.5192,-1.5082,-1.4801,-1.464,-1.4494,-1.4335,-1.4027,-1.3784,-1.3784,-1.3382,-1.3104,-1.3104,-1.2928,-1.2784,-1.268,-1.2423,-1.2119,-1.184,-1.195,-1.1907,-1.169,-1.1864,-1.1897,-1.1784,-1.2017,-1.2011,-1.1784,-1.1844,-1.1839,-2.4873,-2.5391,-2.5693,-2.5693,-2.4756,-2.3223,0.0,0.0,-1.8295,-1.6188,-1.5875,-1.6019,-1.6153,-1.6331,-1.6749,-1.7575,-1.8714,-1.9918,-2.1115,0.0,0.0,0.0,0.0,0.0,0.0,0.0,0.0,0.0,0.0,0.0,0.0,-3.3418,-3.3491,-3.3733,-3.3607,-3.3607,-3.3733,-3.3544,-3.3418,-3.3418,-3.3418,-3.3418,-3.3355,-3.2365,-3.0936,-2.9083,0.0,0.0,0.0,-2.3376,-2.3106,-2.3106,-2.3106,-2.3106,-2.3106,-2.3106,-2.3106,-2.3106,-2.3106,-2.3106,-2.3106,-2.3106,-2.3106,-2.3106,-2.3106,-2.3106,-2.3106,-2.3106,-2.2945,-2.2762,-2.2762,-2.2762,-2.274,-2.2645,-2.0911,-1.9184,-1.8855,-1.7018,-1.5389,-1.5389,-1.5389,-1.5389,-1.5389,-1.5389,-1.5309,-1.5082,-1.4966,-1.482,-1.464,-1.4326,-1.4122,-1.3996,-1.3777,-1.3601,-1.3506,-1.3287,-1.312,-1.3013,-1.2733,-1.243,-1.2144,-1.2317,-1.2327,-1.2105,-1.2307,-1.2378,-1.2305,-1.2305,-1.2305,-1.2298,-1.2091,-1.2033,-2.3691,-2.4756,-2.5693,-2.5693,-2.4756,-2.3223,0.0,0.0,-1.8329,-1.6317,-1.6009,-1.6153,-1.6374,-1.6413,-1.6655,-1.7369,-1.7668,-1.8694,-2.1135,0.0,0.0,0.0,0.0,0.0,0.0,0.0,0.0,0.0,0.0,0.0,0.0,-3.3418,-3.3418,-3.3428,-3.3733,-3.3733,-3.3418,-3.3418,-3.3418,-3.3418,-3.3418,-3.3418,-3.3418,-3.3355,-3.1854,0.0,0.0,0.0,0.0,-2.3376,-2.3106,-2.3106,-2.3106,-2.3106,-2.3106,-2.3106,-2.3106,-2.3106,-2.3106,-2.3106,-2.3106,-2.3106,-2.3106,-2.3106,-2.3106,-2.3106,-2.3106,-2.3106,-2.3106,-2.3106,-2.3106,-2.3106,-2.3025,-2.2696,-2.0911,-1.9184,-1.8855,-1.7018,-1.5389,-1.5389,-1.5389,-1.5389,-1.5389,-1.5389,-1.5389,-1.5382,-1.5104,-1.49,-1.49,-1.4662,-1.4379,-1.4056,-1.402,-1.385,-1.3521,-1.3492,-1.3492,-1.3492,-1.3302,-1.3185,-1.3185,-1.3003,-1.2783,-1.2599,-1.2599,-1.2489,-1.2305,-1.2305,-1.2305,-1.2305,-1.2298,-1.2298,-2.0947,-2.1843,-2.2477,-2.1863,-2.1445,-2.0732,-1.918,-1.8261,-1.7398,-1.6156,-1.6116,-1.6316,-1.6374,-1.6413,-1.6748,-1.7758,-1.7849,-1.8355,0.0,0.0,0.0,0.0,0.0,0.0,0.0,0.0,0.0,0.0,0.0,0.0,0.0,-3.3418,-3.3491,-3.3733,-3.3607,-3.3607,-3.3733,-3.3481,-3.3418,-3.3418,-3.3418,-3.3418,-3.3355,-3.1405,0.0,0.0,0.0,0.0,0.0,-2.3376,-2.3106,-2.3106,-2.3106,-2.3106,-2.3106,-2.3106,-2.3106,-2.3106,-2.3106,-2.3106,-2.3106,-2.3106,-2.3106,-2.3106,-2.3106,-2.3106,-2.3106,-2.3106,-2.3106,-2.3106,-2.3106,-2.3106,-2.3025,-2.2696,-2.1584,-2.0267,-1.9052,-1.7706,-1.6425,-1.5557,-1.5389,-1.5389,-1.5389,-1.5389,-1.5389,-1.5389,-1.5301,-1.5236,-1.5236,-1.4951,-1.471,-1.4608,-1.4245,-1.385,-1.3521,-1.3492,-1.3492,-1.3492,-1.3455,-1.3346,-1.32,-1.301,-1.2826,-1.2599,-1.2452,-1.2378,-1.2305,-1.2305,-1.2305,-1.2305,-1.2305,-1.2305,-1.886,-1.9989,-2.0683,-2.0254,-1.9795,0.0,0.0,-1.7444,-1.6748,-1.6036,-1.6173,-1.6413,-1.6413,-1.6413,-1.6738,-1.779,-1.773,0.0,0.0,0.0,0.0,0.0,0.0,0.0,0.0,0.0,0.0,0.0,0.0,0.0,0.0,0.0,-3.3544,-3.3859,-3.3544,-3.3481,-3.3733,-3.3481,-3.3418,-3.3418,-3.3418,-3.3418,-3.3355,-3.1598,0.0,0.0,0.0,0.0,0.0,-2.3376,-2.3106,-2.3106,-2.3106,-2.3106,-2.3106,-2.3106,-2.3106,-2.3106,-2.3106,-2.3106,-2.3091,-2.2967,-2.2923,-2.2945,-2.3069,-2.3106,-2.3084,-2.2959,-2.2923,-2.2901,-2.2791,-2.2842,-2.2871,-2.2674,-2.1898,-2.0801,-1.9301,-1.8108,-1.6907,-1.5637,-1.5389,-1.5389,-1.5389,-1.5389,-1.5389,-1.5389,-1.5389,-1.5389,-1.5389,-1.5206,-1.5039,-1.4915,-1.4542,-1.4216,-1.3887,-1.3638,-1.3492,-1.3492,-1.3419,-1.3346,-1.32,-1.301,-1.2826,-1.2599,-1.2489,-1.2378,-1.2305,-1.2305,-1.2365,-1.2509,-1.2509,-1.2532,0.0,-1.8844,-1.9873,-2.0095,0.0,0.0,0.0,-1.7169,0.0,-1.6004,-1.6173,-1.6423,-1.6454,-1.6425,-1.6736,-1.7647,-1.7541,0.0,0.0,0.0,0.0,0.0,0.0,0.0,0.0,0.0,0.0,0.0,0.0,0.0,0.0,0.0,-3.3544,-3.3859,-3.3544,-3.3418,-3.3418,-3.3418,-3.3418,-3.3418,-3.3418,-3.3418,-3.3418,-3.3155,0.0,0.0,0.0,0.0,0.0,-2.3369,-2.3106,-2.3106,-2.3106,-2.3106,-2.3106,-2.3106,-2.3106,-2.3106,-2.3106,-2.3106,-2.3062,-2.2754,-2.2659,-2.271,-2.2988,-2.3069,-2.301,-2.271,-2.2608,-2.2535,-2.2279,-2.2418,-2.263,-2.2652,-2.1986,-2.0991,-1.9696,-1.8386,-1.7045,-1.5768,-1.5447,-1.5389,-1.5389,-1.5389,-1.5389,-1.5389,-1.5389,-1.5389,-1.5389,-1.5389,-1.5272,-1.4973,-1.4915,-1.4783,-1.457,-1.3923,-1.3565,-1.3565,-1.3411,-1.3301,-1.3264,-1.3073,-1.2889,-1.2668,-1.2668,-1.2557,-1.2365,-1.2365,-1.2505,-1.2817,-1.2817,-1.2971,-1.4925,0.0,-1.6737,-1.6148,-1.6787,-1.7334,0.0,-1.6578,0.0,0.0,0.0,0.0,0.0,-1.6862,-1.7265,-1.8547,0.0,0.0,0.0,0.0,0.0,0.0,0.0,0.0,0.0,0.0,0.0,0.0,0.0,0.0,0.0,0.0,-3.3418,-3.3544,-3.3418,-3.3544,-3.3796,-3.3796,-3.367,-3.3418,-3.3418,-3.3418,-3.3355,-3.1139,0.0,0.0,0.0,0.0,-2.3676,-2.3274,-2.3106,-2.3106,-2.3106,-2.3106,-2.3106,-2.3106,-2.3106,-2.3106,-2.3106,-2.3106,-2.3098,-2.3018,-2.2996,-2.2959,-2.2791,-2.2732,-2.2718,-2.2645,-2.2462,-2.2323,-2.2476,-2.2571,-2.2689,-2.2937,-2.2828,-2.2315,-2.1035,-1.9733,-1.843,-1.7089,-1.6053,-1.5389,-1.5389,-1.5389,-1.5389,-1.5389,-1.5389,-1.5389,-1.5389,-1.5389,-1.536,-1.5279,-1.5053,-1.4871,-1.4798,-1.4465,-1.4238,-1.4238,-1.4377,-1.4262,-1.3916,-1.3884,-1.3684,-1.3283,-1.3148,-1.3038,-1.2999,-1.2999,-1.3033,-1.31,-1.31,-1.314,-1.3885,-1.4751,-1.5578,-1.5278,-1.6084,-1.6789,-1.6346,-1.6343,-1.641,0.0,0.0,0.0,0.0,0.0,0.0,0.0,0.0,0.0,0.0,0.0,0.0,0.0,0.0,0.0,0.0,0.0,0.0,0.0,0.0,0.0,0.0,0.0,-3.3481,-3.3607,-3.3607,-3.367,-3.367,-3.367,-3.3607,-3.3418,-3.3418,-3.3418,-3.3355,-3.179,0.0,0.0,0.0,0.0,-2.3574,-2.3245,-2.3106,-2.3106,-2.3106,-2.3106,-2.3106,-2.3106,-2.3106,-2.3106,-2.3106,-2.301,-2.2908,-2.3062,-2.301,-2.2879,-2.2857,-2.2652,-2.2389,-2.2242,-2.2191,-2.2184,-2.2198,-2.241,-2.2667,-2.2842,-2.3003,-2.2762,-2.1489,-2.0194,-1.8891,-1.7582,-1.6257,-1.5423,-1.5499,-1.5465,-1.5423,-1.5499,-1.5465,-1.5423,-1.5541,-1.5465,-1.5431,-1.5541,-1.5519,-1.5445,-1.5141,-1.5349,-1.5222,-1.4682,-1.4638,-1.4552,-1.4287,-1.4145,-1.3831,-1.3351,-1.3246,-1.3213,-1.3213,-1.3213,-1.328,-1.3367,-1.3367,-1.348,-1.3679,-1.4759,-1.583,-1.5778,-1.6223,-1.6647,-1.6587,-1.636,-1.6142,0.0,0.0,0.0,0.0,-1.7482,0.0,0.0,0.0,0.0,0.0,0.0,0.0,0.0,0.0,0.0,0.0,0.0,0.0,0.0,0.0,0.0,0.0,0.0,0.0,-3.3859,-3.3922,-3.3796,-3.3481,-3.3481,-3.3418,-3.3418,-3.3418,-3.3418,-3.3418,-3.3165,-3.1475,0.0,0.0,0.0,-2.3501,-2.3223,-2.3106,-2.3106,-2.3106,-2.3106,-2.3106,-2.3106,-2.3106,-2.3106,-2.3106,-2.2923,-2.274,-2.3018,-2.2923,-2.274,-2.2967,-2.2667,-2.2184,-2.1862,-2.1935,-2.2059,-2.1832,-2.2162,-2.2557,-2.2557,-2.2769,-2.2674,-2.1591,-2.034,-1.9052,-1.7794,-1.6565,-1.5676,-1.5763,-1.5582,-1.5506,-1.5741,-1.5582,-1.5499,-1.5741,-1.5582,-1.5506,-1.5692,-1.604,-1.6072,-1.546,-1.6147,-1.6141,-1.5157,-1.4887,-1.4778,-1.47,-1.4234,-1.3772,-1.338,-1.3347,-1.3347,-1.3347,-1.3347,-1.3433,-1.3666,-1.3666,-1.3848,-1.4097,-1.6042,-1.7482,-1.5615,-1.6051,-1.6854,-1.6502,-1.6397,-1.6345,0.0,0.0,0.0,0.0,-1.7905,0.0,0.0,0.0,0.0,0.0,0.0,0.0,0.0,0.0,0.0,0.0,0.0,0.0,0.0,0.0,0.0,0.0,0.0,0.0,-3.3922,-3.4173,-3.4173,-3.3859,-3.3796,-3.367,-3.3418,-3.3418,-3.3418,-3.3355,-3.2174,-3.0465,0.0,0.0,-2.5241,-2.3179,-2.3128,-2.3106,-2.3106,-2.3106,-2.3106,-2.3106,-2.3106,-2.3106,-2.3106,-2.3106,-2.3076,-2.3047,-2.3091,-2.3076,-2.2988,-2.2762,-2.263,-2.2491,-2.2191,-2.1942,-2.1825,-2.2052,-2.2176,-2.225,-2.225,-2.2286,-2.2271,-2.2081,-2.1006,-1.9837,-1.8969,-1.7814,-1.6735,-1.6149,-1.5831,-1.5741,-1.6004,-1.5831,-1.5741,-1.6004,-1.5824,-1.565,-1.5692,-1.604,-1.6072,-1.546,-1.6147,-1.653,-1.6335,-1.6203,-1.5952,-1.5543,-1.4759,-1.4303,-1.422,-1.4067,-1.3955,-1.3955,-1.3955,-1.3975,-1.4021,-1.4021,-1.4041,-1.3845,-1.5522,-1.7,-1.6398,-1.8119,-1.9899,-1.9544,-1.9274,-1.8862,0.0,0.0,0.0,0.0,0.0,0.0,0.0,0.0,0.0,0.0,0.0,0.0,0.0,0.0,0.0,0.0,0.0,0.0,0.0,0.0,0.0,0.0,0.0,0.0,0.0,-3.4235,-3.4235,-3.3922,-3.3922,-3.3733,-3.3418,-3.3418,-3.3418,-3.3355,-3.2535,-3.069,-2.8243,0.0,-2.547,-2.3106,-2.3106,-2.3106,-2.3106,-2.3106,-2.3106,-2.3106,-2.3106,-2.3106,-2.3106,-2.3106,-2.3106,-2.3106,-2.3106,-2.3106,-2.3084,-2.293,-2.2762,-2.263,-2.2674,-2.2337,-2.1993,-2.214,-2.2184,-2.2184,-2.2184,-2.2184,-2.2184,-2.2184,-2.1159,-2.005,-1.9457,-1.8346,-1.7334,-1.6946,-1.6384,-1.6204,-1.6769,-1.6384,-1.6246,-1.6777,-1.6384,-1.6052,-1.6186,-1.6523,-1.6387,-1.5474,-1.6685,-1.7243,-1.6556,-1.6499,-1.627,-1.5741,-1.5228,-1.4768,-1.4398,-1.4405,-1.4328,-1.4088,-1.4088,-1.4088,-1.4088,-1.4088,-1.4088,-1.3831,-1.5143,-1.6625,-1.7396,-1.9441,-2.135,-2.1752,-2.1257,-2.0532,0.0,0.0,0.0,0.0,0.0,0.0,0.0,0.0,0.0,0.0,0.0,0.0,0.0,0.0,0.0,0.0,0.0,0.0,0.0,0.0,0.0,0.0,0.0,0.0,0.0,-3.436,-3.436,-3.4047,-3.4047,-3.3796,-3.3418,-3.3418,-3.3369,-3.3262,-3.2939,-3.1298,-2.8551,-2.7875,-2.6063,-2.3534,-2.323,-2.3106,-2.3106,-2.3106,-2.3106,-2.3106,-2.3106,-2.3106,-2.3106,-2.3106,-2.3106,-2.3106,-2.3106,-2.3106,-2.3106,-2.3106,-2.2937,-2.2791,-2.304,-2.271,-2.2271,-2.2198,-2.2184,-2.214,-2.1993,-2.1957,-2.1957,-2.1957,-2.1167,-2.0299,-1.9829,-1.8858,-1.8021,-1.7774,-1.6962,-1.6662,-1.7434,-1.6891,-1.6627,-1.7399,-1.6909,-1.6533,-1.6627,-1.6995,-1.69,-1.6144,-1.736,-1.7702,-1.669,-1.6569,-1.6337,-1.593,-1.5555,-1.5091,-1.4508,-1.4592,-1.448,-1.4088,-1.4088,-1.4088,-1.4088,-1.4155,-1.4188,-1.4502,-1.603,-1.7593,-1.8317,-1.8029,-1.8217,-2.0532,-1.9839,-1.9224,-2.1121,0.0,0.0,0.0,0.0,0.0,0.0,0.0,0.0,0.0,0.0,0.0,0.0,0.0,0.0,0.0,0.0,0.0,0.0,0.0,0.0,0.0,0.0,0.0,0.0,0.0,-3.4673,-3.436,-3.436,-3.4047,-3.3418,-3.3418,-3.3213,-3.2842,-3.2803,-3.1579,-2.945,-2.8132,-2.6619,-2.4887,-2.3596,-2.3106,-2.3106,-2.3106,-2.3106,-2.3106,-2.3106,-2.3106,-2.3106,-2.3106,-2.3106,-2.3106,-2.3106,-2.3106,-2.3106,-2.3106,-2.3091,-2.3084,-2.3098,-2.2857,-2.2528,-2.2257,-2.2184,-2.203,-2.1423,-2.1276,-2.1276,-2.1276,-2.1203,-2.0916,-2.0184,-1.9678,-1.917,-1.8474,-1.7365,-1.6834,-1.768,-1.7098,-1.6799,-1.7347,-1.7188,-1.6946,-1.6734,-1.7212,-1.7702,-1.8058,-1.7807,-1.7549,-1.7339,-1.67,-1.6412,-1.6601,-1.5713,-1.5088,-1.4893,-1.4619,-1.4398,-1.4088,-1.4088,-1.4088,-1.4095,-1.4362,-1.4489,-1.4235,-1.5958,-1.7732,-1.8231,-1.8438,-1.9219,-2.1958,-2.2464,-2.2603,-2.3264,-2.3786,0.0,0.0,0.0,0.0,0.0,0.0,0.0,0.0,0.0,0.0,0.0,0.0,0.0,0.0,0.0,0.0,0.0,0.0,0.0,0.0,0.0,0.0,0.0,0.0,-3.4735,-3.4423,-3.4423,-3.4173,-3.3733,-3.3217,-3.3086,-3.3164,-3.2363,-3.0841,-2.8703,-2.7669,-2.5921,-2.3845,-2.3293,-2.3106,-2.3106,-2.3106,-2.3106,-2.3106,-2.3106,-2.3106,-2.3106,-2.3106,-2.3106,-2.3106,-2.3106,-2.3106,-2.3106,-2.3106,-2.3106,-2.3106,-2.3106,-2.3018,-2.2857,-2.2542,-2.2323,-2.2125,-2.1876,-2.1818,-2.1759,-2.1554,-2.1672,-2.1583,-2.0877,-2.0423,-1.9972,-1.9401,-1.8149,-1.7501,-1.8285,-1.7736,-1.7465,-1.8165,-1.7784,-1.7384,-1.7258,-1.7004,-1.7341,-1.8498,-1.797,-1.7794,-1.8249,-1.7526,-1.6994,-1.6727,-1.6162,-1.5746,-1.5415,-1.5276,-1.4994,-1.4673,-1.4673,-1.4673,-1.468,-1.4743,-1.4796,-1.4384,-1.5853,-1.7494,-1.8168,-1.8831,-2.0038,-2.2949,-2.3762,-2.4201,-2.5243,-2.5713,-2.5752,-2.5146,0.0,0.0,0.0,0.0,0.0,0.0,0.0,0.0,0.0,0.0,0.0,0.0,0.0,0.0,0.0,0.0,0.0,0.0,0.0,0.0,0.0,0.0,-3.4548,-3.4423,-3.4423,-3.4235,-3.3912,-3.3237,-3.3064,-3.3193,-3.2314,-3.1072,-2.9413,-2.7896,-2.6146,-2.4486,-2.3628,-2.3267,-2.3252,-2.3149,-2.3106,-2.3106,-2.3106,-2.3106,-2.3106,-2.3106,-2.3106,-2.3106,-2.3106,-2.3106,-2.3106,-2.3106,-2.3106,-2.3106,-2.3106,-2.3106,-2.3054,-2.2835,-2.255,-2.2301,-2.2206,-2.2184,-2.2125,-2.1898,-2.2023,-2.2038,-2.1536,-2.11,-2.0673,-2.0195,-1.888,-1.8156,-1.8735,-1.8116,-1.7925,-1.8745,-1.8226,-1.7735,-1.7735,-1.7123,-1.7259,-1.8696,-1.8148,-1.8026,-1.8681,-1.8102,-1.75,-1.6914,-1.6482,-1.6022,-1.5587,-1.558,-1.5359,-1.5008,-1.5008,-1.5008,-1.5015,-1.5102,-1.5149,-1.5157,-1.5846,-1.6866,-1.8247,-1.8984,-2.0117,-2.3125,-2.2822,-2.3018,-2.6926,-2.7002,-2.6406,-2.6387,0.0,0.0,0.0,0.0,0.0,0.0,0.0,0.0,0.0,0.0,0.0,0.0,0.0,0.0,0.0,0.0,0.0,0.0,0.0,0.0,0.0,0.0,0.0,-3.4423,-3.4423,-3.4235,-3.3922,-3.3495,-3.3112,-3.2803,-3.2793,-3.2568,-3.2027,-2.8975,-2.7631,-2.7384,-2.4715,-2.3596,-2.3559,-2.3237,-2.3106,-2.3106,-2.3106,-2.3106,-2.3106,-2.3106,-2.3106,-2.3106,-2.3106,-2.3106,-2.3106,-2.3106,-2.3106,-2.3106,-2.3106,-2.3106,-2.3106,-2.3106,-2.2871,-2.2557,-2.2264,-2.2191,-2.2191,-2.2184,-2.2191,-2.2191,-2.2184,-2.1883,-2.1347,-2.0635,-1.9534,-1.8742,-1.8807,-1.8124,-1.7972,-1.8878,-1.8488,-1.8094,-1.8094,-1.7621,-1.7714,-1.8743,-1.8373,-1.8241,-1.8489,-1.8241,-1.7854,-1.7326,-1.6519,-1.5897,-1.5398,-1.5398,-1.5257,-1.5015,-1.5015,-1.5015,-1.5022,-1.5264,-1.5398,-1.5147,-1.7063,0.0,-1.8662,0.0,0.0,0.0,-2.4441,0.0,0.0,-2.791,-2.7451,0.0,0.0,0.0,0.0,0.0,0.0,0.0,0.0,0.0,0.0,0.0,0.0,0.0,0.0,0.0,0.0,0.0,0.0,0.0,0.0,0.0,0.0,0.0,0.0,-3.4047,-3.4298,-3.4235,-3.3922,-3.3793,-3.3546,-3.3213,-3.2627,-3.1992,-3.124,-2.9998,-2.8391,-2.6437,-2.4434,-2.3464,-2.3245,-2.3142,-2.3106,-2.3106,-2.3106,-2.3106,-2.3106,-2.3106,-2.3106,-2.3106,-2.3106,-2.3106,-2.3106,-2.3106,-2.3106,-2.3106,-2.3106,-2.3106,-2.3106,-2.3106,-2.304,-2.2945,-2.2857,-2.2835,-2.2769,-2.2542,-2.2674,-2.2769,-2.2535,-2.2209,-2.1815,-2.1271,-2.037,-1.9683,-1.9565,-1.9232,-1.9048,-1.9307,-1.9196,-1.9086,-1.9086,-1.8748,-1.8837,-1.951,-1.927,-1.9182,-1.947,-1.8806,-1.8197,-1.7589,-1.6872,-1.6402,-1.6261,-1.5886,-1.5658,-1.5571,-1.5571,-1.5571,-1.5571,-1.5658,-1.5698,-1.6548,-1.846,0.0,-2.0595,-2.2373,-2.4404,-2.583,0.0,0.0,0.0,0.0,0.0,0.0,0.0,0.0,0.0,0.0,0.0,0.0,0.0,0.0,0.0,0.0,0.0,0.0,0.0,0.0,0.0,0.0,0.0,0.0,0.0,0.0,0.0,0.0,0.0,-3.3664,-3.402,-3.411,-3.3922,-3.3922,-3.3733,-3.3408,-3.29,-3.2411,-3.1841,-3.0918,-2.8822,-2.608,-2.4916,-2.397,-2.3288,-2.3157,-2.3106,-2.3106,-2.3106,-2.3106,-2.3106,-2.3106,-2.3106,-2.3106,-2.3106,-2.3106,-2.3106,-2.3106,-2.3106,-2.3106,-2.3106,-2.3106,-2.3106,-2.3106,-2.3106,-2.3106,-2.3106,-2.3106,-2.3054,-2.2857,-2.2974,-2.3054,-2.2857,-2.2634,-2.2357,-2.1854,-2.1058,-2.0429,-2.0158,-1.9964,-1.9781,-1.955,-1.9603,-1.9634,-1.9493,-1.9241,-1.9339,-1.986,-1.9673,-1.9624,-1.9868,-1.9291,-1.8801,-1.8451,-1.7236,-1.6541,-1.6447,-1.6021,-1.5784,-1.5784,-1.5784,-1.5784,-1.5784,-1.5784,-1.5784,-1.87,-1.9859,0.0,-2.3232,-2.4199,0.0,-2.7207,-2.7988,-2.8291,0.0,0.0,0.0,0.0,0.0,0.0,0.0,0.0,0.0,0.0,0.0,0.0,0.0,0.0,0.0,0.0,0.0,0.0,0.0,0.0,0.0,0.0,0.0,0.0,0.0,0.0,0.0,-3.3228,-3.3644,-3.3862,0.0,-3.3902,-3.3733,-3.3418,-3.3418,-3.3418,-3.3272,-3.1526,-2.9075,-2.6336,-2.5763,-2.4786,-2.3523,-2.323,-2.3106,-2.3106,-2.3106,-2.3106,-2.3106,-2.3106,-2.3106,-2.3106,-2.3106,-2.3106,-2.3106,-2.3106,-2.3106,-2.3106,-2.3106,-2.3106,-2.3106,-2.3106,-2.3106,-2.3106,-2.3106,-2.3106,-2.3106,-2.3106,-2.3106,-2.3168,-2.3168,-2.3168,-2.2936,-2.2363,-2.1645,-2.1018,-2.0506,-2.0444,-2.0229,-1.9716,-1.9902,-1.998,-1.9659,-1.9432,-1.9481,-1.9963,-1.9768,-1.9719,-1.9963,-1.9695,-1.9532,-1.9532,-1.775,-1.6611,-1.6306,-1.6014,-1.5804,-1.5784,-1.5784,-1.5784,-1.5784,-1.5784,-1.5784,-1.8546,-2.0549,0.0,0.0,-2.4883,-2.667,-2.7532,-2.7988,0.0,0.0,0.0,0.0,0.0,0.0,0.0,0.0,0.0,0.0,0.0,0.0,0.0,0.0,0.0,0.0,0.0,0.0,0.0,0.0,0.0,0.0,0.0,0.0,0.0,0.0,0.0,-3.2478,-3.2772,-3.3208,-3.3426,0.0,-3.3763,-3.3733,-3.3418,-3.3418,-3.3418,-3.3282,-3.0662,-2.8944,-2.7685,-2.5393,-2.3988,-2.3208,-2.3135,-2.3106,-2.3106,-2.3106,-2.3106,-2.3106,-2.3106,-2.3106,-2.3106,-2.3106,-2.3106,-2.3106,-2.3106,-2.3106,-2.3106,-2.3106,-2.3106,-2.3106,-2.3106,-2.3106,-2.3106,-2.3106,-2.3106,-2.3106,-2.3106,-2.33,-2.3479,-2.3479,-2.3479,-2.3441,-2.3325,-2.2452,-2.1559,-2.0908,-2.0802,-2.0731,-2.0609,-2.0664,-2.068,-2.0609,-2.0542,-2.0542,-2.0694,-2.0644,-2.0644,-2.0694,-2.0189,-1.9891,-1.9891,-1.8439,-1.7476,-1.7234,-1.656,-1.6059,-1.5784,-1.5784,-1.5784,-1.5784,-1.5784,-1.5784,-1.9605,0.0,0.0,-2.4531,0.0,-2.7187,-2.7822,-2.8135,0.0,0.0,0.0,0.0,0.0,0.0,0.0,0.0,0.0,0.0,0.0,0.0,0.0,0.0,0.0,0.0,0.0,0.0,0.0,0.0,0.0,0.0,0.0,0.0,0.0,0.0,-3.1631,-3.1906,-3.2086,-3.2519,-3.2895,-3.304,-3.3257,-3.3348,-3.3418,-3.3418,-3.3418,-3.3282,-3.1002,-2.9465,-2.8374,-2.5866,-2.4269,-2.3325,-2.3171,-2.3106,-2.3106,-2.3106,-2.3106,-2.3106,-2.3106,-2.3106,-2.3106,-2.3106,-2.3106,-2.3106,-2.3106,-2.3106,-2.3106,-2.3106,-2.3106,-2.3113,-2.3293,-2.3355,-2.3362,-2.3542,-2.3487,-2.3355,-2.3355,-2.3611,-2.386,-2.386,-2.386,-2.3808,-2.384,-2.294,-2.1981,-2.1274,-2.1035,-2.0925,-2.0925,-2.0925,-2.0925,-2.0925,-2.0925,-2.0925,-2.0925,-2.0925,-2.0925,-2.0925,-2.0597,-2.0452,-2.0452,-1.9499,-1.8575,-1.7701,-1.7162,-1.6577,-1.6039,-1.6039,-1.5972,-1.5784,-1.5784,-1.5784,-2.0464,0.0,-2.278,-2.6153,-2.7012,0.0,-2.8096,0.0,0.0,0.0,0.0,0.0,0.0,0.0,0.0,0.0,0.0,0.0,0.0,0.0,0.0,0.0,0.0,0.0,0.0,0.0,0.0,0.0,0.0,0.0,0.0,0.0,-3.0889,-3.0889,-3.123,-3.1406,-3.1465,-3.1896,-3.2297,-3.264,-3.2786,-3.2978,-3.331,-3.3389,-3.3418,-3.3272,-3.1427,-2.9867,-2.8554,-2.6349,-2.4705,-2.3567,-2.3237,-2.3142,-2.3186,-2.3128,-2.3106,-2.3106,-2.3106,-2.3106,-2.3106,-2.3106,-2.3106,-2.3106,-2.3106,-2.3106,-2.3113,-2.3168,-2.3175,-2.323,-2.3611,-2.3673,-2.3736,-2.4046,-2.3922,-2.3736,-2.3673,-2.3922,-2.417,-2.417,-2.4232,-2.4201,-2.3963,-2.3312,-2.2469,-2.162,-2.127,-2.106,-2.0933,-2.0925,-2.0925,-2.0925,-2.0925,-2.0925,-2.0925,-2.0925,-2.0925,-2.0925,-2.0925,-2.0925,-2.0925,-2.0447,-1.9615,-1.831,-1.7754,-1.7161,-1.6419,-1.6268,-1.6072,-1.5784,-1.5784,-1.5784,-1.8827,0.0,-2.3653,0.0,-2.7012,-2.7246,0.0,0.0,0.0,0.0,0.0,0.0,0.0,0.0,0.0,0.0,0.0,0.0,0.0,0.0,0.0,0.0,0.0,0.0,0.0,0.0,0.0,0.0,0.0,0.0,0.0,-3.0889,-3.0889,-3.0889,-3.0947,-3.1084,-3.1297,-3.1505,-3.175,-3.2108,-3.2564,-3.2822,-3.2891,-3.3252,-3.3418,-3.3228,-3.056,-2.9004,-2.814,-2.5448,-2.4038,-2.3567,-2.3237,-2.3281,-2.3501,-2.3215,-2.3106,-2.3106,-2.3106,-2.3106,-2.3106,-2.3106,-2.3106,-2.3106,-2.3106,-2.3106,-2.3175,-2.3425,-2.3549,-2.3611,-2.3922,-2.4046,-2.4046,-2.4108,-2.4293,-2.4363,-2.4108,-2.4293,-2.4548,-2.4548,-2.4795,-2.4607,-2.342,-2.3574,-2.336,-2.1744,-2.1679,-2.16,-2.0996,-2.0925,-2.0925,-2.0925,-2.0925,-2.0925,-2.0925,-2.0925,-2.0925,-2.0925,-2.0925,-2.0925,-2.0925,-2.0822,-2.0459,-1.9795,-1.8275,-1.7302,-1.7002,-1.6259,-1.5824,-1.5784,-1.5784,-1.5784,-1.946,-2.159,-2.3865,0.0,-2.6836,-2.7178,0.0,0.0,0.0,0.0,0.0,0.0,0.0,0.0,0.0,0.0,0.0,0.0,0.0,0.0,0.0,0.0,0.0,0.0,0.0,0.0,0.0,0.0,0.0,0.0,-3.0889,-3.0889,-3.0889,-3.0889,-3.0889,-3.0947,-3.1054,-3.1133,-3.1348,-3.1702,-3.2209,-3.2568,-3.2803,-3.2988,-3.3203,-3.3282,-3.1093,-2.9575,-2.8434,-2.6192,-2.4694,-2.3859,-2.3713,-2.3632,-2.3581,-2.3435,-2.3267,-2.3106,-2.3106,-2.3106,-2.3106,-2.3106,-2.3106,-2.3113,-2.3293,-2.3362,-2.3425,-2.3798,-2.386,-2.3984,-2.4293,-2.4363,-2.4425,-2.461,-2.4795,-2.4857,-2.4672,-2.4795,-2.4857,-2.4857,-2.4988,-2.4763,-2.3848,-2.3899,-2.3597,-2.2035,-2.1885,-2.1703,-2.1012,-2.0925,-2.0925,-2.0925,-2.0925,-2.0925,-2.0925,-2.0925,-2.0925,-2.0925,-2.0925,-2.0925,-2.0925,-2.0925,-2.0763,-2.055,-1.9191,-1.8139,-1.7302,-1.6632,-1.6152,-1.5784,-1.5784,-1.5784,0.0,0.0,-2.2683,-2.5173,-2.6045,-2.6582,0.0,0.0,0.0,0.0,0.0,0.0,0.0,0.0,0.0,0.0,0.0,0.0,0.0,0.0,0.0,0.0,0.0,0.0,0.0,0.0,0.0,0.0,0.0,0.0,-3.0889,-3.0889,-3.0889,-3.0889,-3.0889,-3.0889,-3.0889,-3.0889,-3.1055,-3.1367,-3.1917,-3.2289,-3.2471,-3.2763,-3.2985,-3.3179,-3.1671,-3.0184,-2.8682,-2.6994,-2.5481,-2.4188,-2.402,-2.3859,-2.3698,-2.3537,-2.3318,-2.3106,-2.3106,-2.3106,-2.3106,-2.3106,-2.3175,-2.3293,-2.3549,-2.3673,-2.3798,-2.4108,-2.4232,-2.4293,-2.4672,-2.4734,-2.4795,-2.5042,-2.5111,-2.5111,-2.5111,-2.5111,-2.5111,-2.5111,-2.5111,-2.4919,-2.4355,-2.4303,-2.3846,-2.2337,-2.2174,-2.191,-2.1036,-2.0925,-2.0925,-2.0925,-2.0925,-2.0925,-2.0925,-2.0925,-2.0925,-2.0925,-2.0925,-2.0925,-2.0925,-2.0925,-2.0925,-2.0925,-1.999,-1.8899,-1.7704,-1.7081,-1.648,-1.5784,-1.5784,-1.5784,0.0,-1.8638,0.0,-2.3195,0.0,0.0,0.0,0.0,0.0,0.0,0.0,0.0,0.0,0.0,0.0,0.0,0.0,0.0,0.0,0.0,0.0,0.0,0.0,0.0,0.0,0.0,0.0,0.0,0.0,0.0,-3.0889,-3.0889,-3.0889,-3.0889,-3.0889,-3.0889,-3.0889,-3.0889,-3.0898,-3.0928,-3.1643,-3.186,-3.1601,-3.2595,-3.2962,-3.278,-3.1722,-3.0371,-2.87,-2.7263,-2.5836,-2.4481,-2.3866,-2.3801,-2.3984,-2.3362,-2.3128,-2.3106,-2.3106,-2.3106,-2.3106,-2.3106,-2.3293,-2.3611,-2.3604,-2.3798,-2.417,-2.4487,-2.4548,-2.4672,-2.4988,-2.505,-2.5111,-2.5111,-2.5111,-2.5111,-2.5111,-2.5111,-2.5111,-2.5111,-2.5111,-2.498,-2.461,-2.4826,-2.4466,-2.2757,-2.2757,-2.2466,-2.1099,-2.0925,-2.0925,-2.0925,-2.0925,-2.0925,-2.0925,-2.0925,-2.0925,-2.0925,-2.0925,-2.0925,-2.0925,-2.0925,-2.0925,-2.0925,-2.0344,-1.9504,-1.8363,-1.7512,-1.6615,-1.5784,-1.5784,-1.5784,0.0,0.0,0.0,-2.1382,-2.327,0.0,0.0,0.0,0.0,0.0,0.0,0.0,0.0,0.0,0.0,0.0,0.0,0.0,0.0,0.0,0.0,0.0,0.0,0.0,0.0,0.0,0.0,0.0,0.0,0.0,-3.0889,-3.0889,-3.0889,-3.0889,-3.0889,-3.0889,-3.0889,-3.0889,-3.0889,-3.0889,-3.1162,-3.1486,-3.1821,-3.1969,-3.2274,-3.2637,-3.2378,-3.1451,-3.0049,-2.8818,-2.7352,-2.5836,-2.4699,-2.4166,-2.4027,-2.3581,-2.3288,-2.3106,-2.3106,-2.3106,-2.3113,-2.3362,-2.3487,-2.3673,-2.4108,-2.4355,-2.4479,-2.4857,-2.4919,-2.4919,-2.505,-2.5111,-2.5111,-2.5111,-2.5111,-2.5111,-2.5111,-2.5111,-2.5111,-2.5111,-2.5111,-2.498,-2.4672,-2.4857,-2.4664,-2.3372,-2.3079,-2.2672,-2.1711,-2.1195,-2.0925,-2.0925,-2.0925,-2.0925,-2.0925,-2.0925,-2.0925,-2.0925,-2.0925,-2.0925,-2.0925,-2.0925,-2.0925,-2.0925,-2.0712,-2.0011,-1.8833,-1.7837,-1.6981,-1.6298,-1.5967,-1.5784,-1.7635,0.0,0.0,0.0,0.0,0.0,0.0,0.0,0.0,0.0,0.0,0.0,0.0,0.0,0.0,0.0,0.0,0.0,0.0,0.0,0.0,0.0,0.0,0.0,0.0,0.0,0.0,0.0,0.0,0.0,-3.0889,-3.0889,-3.0889,-3.0889,-3.0889,-3.0889,-3.0889,-3.0889,-3.0889,-3.0889,-3.0995,-3.1259,-3.1663,-3.1594,-3.1821,-3.2245,-3.2419,-3.1884,-3.0754,-2.9678,-2.8186,-2.6563,-2.503,-2.4276,-2.4042,-2.372,-2.3457,-2.3274,-2.3274,-2.3263,-2.3293,-2.3549,-2.3736,-2.4046,-2.4479,-2.4672,-2.4795,-2.505,-2.5111,-2.5111,-2.5111,-2.5111,-2.5111,-2.5111,-2.5111,-2.5111,-2.5111,-2.5111,-2.5111,-2.5111,-2.5111,-2.505,-2.4795,-2.4919,-2.4812,-2.3877,-2.3549,-2.3022,-2.2131,-2.156,-2.1179,-2.0948,-2.0925,-2.0925,-2.0925,-2.0925,-2.0925,-2.0925,-2.0925,-2.0925,-2.0925,-2.0925,-2.0925,-2.0925,-2.0925,-2.0428,-1.9535,-1.835,-1.7386,-1.6581,-1.6069,-1.5879,0.0,0.0,0.0,0.0,0.0,0.0,0.0,0.0,0.0,0.0,0.0,0.0,0.0,0.0,0.0,0.0,0.0,0.0,0.0,0.0,0.0,0.0,0.0,0.0,0.0,0.0,0.0,0.0,0.0,-3.0391,-3.085,-3.0889,-3.0889,-3.0889,-3.0889,-3.0889,-3.0889,-3.0889,-3.0889,-3.0889,-3.116,-3.117,-3.0947,-3.1508,-3.1679,-3.1494,-3.186,-3.153,-3.0663,-2.9651,-2.8243,-2.6605,-2.4863,-2.4158,-2.4042,-2.372,-2.3596,-2.3596,-2.3588,-2.3629,-2.3611,-2.3611,-2.4046,-2.461,-2.461,-2.4857,-2.5111,-2.5111,-2.5111,-2.5111,-2.5111,-2.5111,-2.5111,-2.5111,-2.5111,-2.5111,-2.5111,-2.5111,-2.5111,-2.5111,-2.5111,-2.5111,-2.5111,-2.5111,-2.4873,-2.4249,-2.4121,-2.3612,-2.2218,-2.2027,-2.1748,-2.0996,-2.0925,-2.0925,-2.0925,-2.0925,-2.0925,-2.0925,-2.0925,-2.0925,-2.0925,-2.0925,-2.0925,-2.0925,-2.0925,-2.075,-2.0392,-1.9064,-1.779,-1.6664,-1.6089,-1.6012,-1.7327,0.0,0.0,0.0,0.0,0.0,0.0,0.0,0.0,0.0,0.0,0.0,0.0,0.0,0.0,0.0,0.0,0.0,0.0,0.0,0.0,0.0,0.0,0.0,0.0,0.0,0.0,0.0,-3.0029,-3.0254,-3.0381,-3.0703,-3.0889,-3.0889,-3.0889,-3.0889,-3.0889,-3.0889,-3.0889,-3.0889,-3.1005,-3.1054,-3.1218,-3.117,-3.1229,-3.1357,-3.1555,-3.1521,-3.1239,-3.0544,-2.9491,-2.8048,-2.6598,-2.5191,-2.4042,-2.372,-2.3596,-2.3623,-2.3577,-2.3624,-2.3673,-2.417,-2.4425,-2.4672,-2.4919,-2.505,-2.5111,-2.5111,-2.5111,-2.5111,-2.5111,-2.5111,-2.5111,-2.5111,-2.5111,-2.5111,-2.5111,-2.5111,-2.5111,-2.5111,-2.5111,-2.5111,-2.5111,-2.5111,-2.504,-2.4841,-2.438,-2.3787,-2.2839,-2.2275,-2.1748,-2.0996,-2.0925,-2.0925,-2.0925,-2.0925,-2.0925,-2.0925,-2.0925,-2.0925,-2.0925,-2.0925,-2.0925,-2.0925,-2.0925,-2.075,-2.0392,-1.941,-1.8562,-1.7791,-1.6903,-1.6506,0.0,0.0,0.0,0.0,0.0,0.0,0.0,-2.2692,0.0,0.0,0.0,0.0,0.0,0.0,0.0,0.0,0.0,0.0,0.0,0.0,0.0,0.0,0.0,0.0,0.0,0.0,0.0,0.0,-2.9531,-2.9824,-3.0176,-3.0635,-3.0889,-3.0889,-3.0889,-3.0889,-3.0889,-3.0889,-3.0889,-3.0889,-3.0889,-3.1005,-3.1112,-3.0947,-3.1005,-3.1122,-3.1201,-3.1357,-3.1493,-3.1171,-3.0021,-2.8332,-2.6357,-2.5015,-2.4057,-2.3866,-2.3713,-2.363,-2.3754,-2.3786,-2.3922,-2.4425,-2.4672,-2.4857,-2.5042,-2.5111,-2.5111,-2.5111,-2.5111,-2.5111,-2.5111,-2.5111,-2.5111,-2.5111,-2.5111,-2.5111,-2.5111,-2.5111,-2.5111,-2.5111,-2.5111,-2.5111,-2.5111,-2.5111,-2.5111,-2.5111,-2.4754,-2.4134,-2.3141,-2.2656,-2.2021,-2.1028,-2.0925,-2.0925,-2.0925,-2.0925,-2.0925,-2.0925,-2.0925,-2.0925,-2.0925,-2.0925,-2.0925,-2.0925,-2.0925,-2.075,-2.0392,-1.9698,-1.8885,-1.7952,-1.7107,-1.6774,0.0,0.0,0.0,0.0,0.0,0.0,-2.2727,-2.2975,0.0,0.0,0.0,0.0,0.0,0.0,0.0,0.0,0.0,0.0,0.0,0.0,0.0,0.0,0.0,0.0,0.0,0.0,-2.8447,-2.8818,-2.8887,-2.9287,-3.0146,-3.0596,-3.084,-3.0889,-3.0889,-3.0889,-3.0889,-3.0889,-3.0889,-3.0889,-3.0889,-3.0889,-3.0889,-3.0889,-3.0889,-3.0947,-3.0889,-3.1103,-3.1445,-3.1069,-2.9919,-2.8063,-2.5535,-2.4461,-2.4331,-2.4107,-2.3909,-2.3723,-2.3996,-2.4109,-2.4232,-2.4548,-2.4857,-2.5111,-2.5111,-2.5111,-2.5111,-2.5111,-2.5111,-2.5111,-2.5111,-2.5111,-2.5111,-2.5111,-2.5111,-2.5111,-2.5111,-2.5111,-2.5111,-2.5111,-2.5111,-2.5111,-2.5111,-2.5111,-2.5111,-2.5111,-2.5111,-2.4627,-2.33,-2.3062,-2.2506,-2.1179,-2.0964,-2.0925,-2.0925,-2.0925,-2.0925,-2.0925,-2.0925,-2.0925,-2.0925,-2.0925,-2.0925,-2.0925,-2.0925,-2.0766,-2.0448,-1.9996,-1.9017,-1.7604,-1.7139,-1.6998,0.0,0.0,0.0,0.0,0.0,0.0,-1.9968,-2.0241,0.0,0.0,0.0,0.0,0.0,0.0,0.0,0.0,0.0,0.0,0.0,0.0,0.0,0.0,0.0,0.0,0.0,0.0,-2.833,-2.8408,-2.873,-2.9287,-3.0146,-3.0283,-3.0508,-3.0879,-3.0889,-3.0889,-3.0889,-3.0889,-3.0889,-3.0889,-3.0889,-3.0889,-3.0889,-3.0889,-3.0995,-3.1218,-3.0995,-3.1044,-3.1162,-2.8535,-2.8402,-2.9626,-2.8,-2.6679,-2.5632,-2.4227,-2.3846,-2.4004,-2.4049,-2.4285,-2.4548,-2.4919,-2.505,-2.5111,-2.5111,-2.5111,-2.5111,-2.5111,-2.5111,-2.5111,-2.5111,-2.5111,-2.5111,-2.5111,-2.5111,-2.5111,-2.5111,-2.5111,-2.5111,-2.5111,-2.5111,-2.5111,-2.5111,-2.5111,-2.5111,-2.5111,-2.5111,-2.4801,-2.4018,-2.3363,-2.2696,-2.1846,-2.125,-2.0925,-2.0925,-2.0925,-2.0925,-2.0925,-2.0925,-2.0925,-2.0925,-2.0925,-2.0925,-2.0925,-2.0925,-2.0885,-2.0821,-2.0295,-1.9505,-1.8484,-1.8173,-1.7859,0.0,0.0,0.0,-1.9388,0.0,0.0,0.0,-2.0324,-2.0595,0.0,0.0,0.0,0.0,0.0,0.0,0.0,0.0,0.0,0.0,0.0,0.0,0.0,0.0,0.0,0.0,0.0,-2.8291,-2.8291,-2.8682,-2.9101,-2.9531,-2.9961,-3.0303,-3.0537,-3.0771,-3.0889,-3.0889,-3.0889,-3.0889,-3.0889,-3.0889,-3.0889,-3.0889,-3.0889,-3.1054,-3.1267,-3.0995,-3.1054,-3.115,-2.9561,-2.9697,-3.0518,-2.696,-2.5342,-2.4825,-2.3902,-2.3684,-2.3898,-2.4045,-2.4293,-2.4672,-2.498,-2.5111,-2.5111,-2.5111,-2.5111,-2.5111,-2.5111,-2.5111,-2.5111,-2.5111,-2.5111,-2.5111,-2.5111,-2.5111,-2.5111,-2.5111,-2.5111,-2.5111,-2.5111,-2.5111,-2.5111,-2.5111,-2.5111,-2.5111,-2.5111,-2.5111,-2.4913,-2.438,-2.4007,-2.3387,-2.2331,-2.191,-2.1489,-2.0964,-2.0925,-2.0925,-2.0925,-2.0925,-2.0925,-2.0925,-2.0925,-2.0925,-2.0925,-2.0925,-2.0925,-2.0925,-2.0344,-1.9737,-1.8979,-1.83,-1.7845,0.0,0.0,0.0,0.0,0.0,-1.971,0.0,0.0,0.0,-2.1849,0.0,0.0,0.0,0.0,0.0,0.0,0.0,0.0,0.0,0.0,0.0,0.0,0.0,0.0,0.0,0.0,-2.7939,-2.8271,-2.8301,-2.8486,-2.8896,-2.958,-3.0029,-3.0185,-3.0566,-3.0801,-3.0889,-3.0889,-3.0889,-3.0889,-3.0889,-3.0889,-3.0889,-3.0947,-3.1112,-3.1267,-3.1054,-3.1112,-3.1383,-3.0956,-3.081,-3.0285,-2.571,-2.4093,-2.4272,-2.3713,-2.3521,-2.3666,-2.3922,-2.4232,-2.4548,-2.4795,-2.4919,-2.5042,-2.5111,-2.5111,-2.5111,-2.5111,-2.5111,-2.5111,-2.5111,-2.5111,-2.5111,-2.5111,-2.5111,-2.5111,-2.5111,-2.5111,-2.5111,-2.5111,-2.5111,-2.5111,-2.5111,-2.5111,-2.5111,-2.5111,-2.5111,-2.5032,-2.4817,-2.4666,-2.4118,-2.2919,-2.2609,-2.2084,-2.1056,-2.0964,-2.0925,-2.0925,-2.0925,-2.0925,-2.0925,-2.0925,-2.0925,-2.0925,-2.0925,-2.0925,-2.0925,-2.0344,-1.9828,-1.9279,-1.8213,-1.7687,0.0,0.0,0.0,0.0,-2.0017,0.0,0.0,0.0,-1.9841,-1.9558,0.0,0.0,0.0,0.0,0.0,0.0,0.0,0.0,0.0,0.0,0.0,0.0,0.0,0.0,0.0,0.0,0.0,-2.8174,-2.6934,-2.6873,-2.8818,-2.9014,-2.9414,-3.0176,-3.0244,-3.0478,-3.0889,-3.0889,-3.0889,-3.0889,-3.0889,-3.0889,-3.0889,-3.117,-3.1267,-3.1325,-3.1267,-3.1441,-3.1614,-2.9905,-2.8683,-2.7908,-2.7237,-2.7078,-2.6847,-2.4128,-2.3329,-2.3611,-2.3666,-2.386,-2.417,-2.417,-2.4417,-2.4734,-2.4988,-2.5111,-2.5111,-2.5111,-2.5111,-2.5111,-2.5111,-2.5111,-2.5111,-2.5111,-2.5111,-2.5111,-2.5111,-2.5111,-2.5111,-2.5111,-2.5111,-2.5111,-2.5111,-2.5111,-2.5111,-2.5111,-2.5111,-2.5206,-2.5422,-2.4968,-2.4396,-2.3986,-2.3094,-2.2188,-2.1396,-2.1048,-2.0925,-2.0925,-2.0925,-2.0925,-2.0925,-2.0925,-2.0925,-2.0925,-2.0925,-2.0925,-2.0925,-2.0344,-1.9828,-1.9279,-1.8639,-1.8055,0.0,0.0,0.0,0.0,0.0,0.0,0.0,0.0,-1.9336,0.0,0.0,0.0,0.0,0.0,0.0,0.0,0.0,0.0,0.0,0.0,0.0,0.0,0.0,0.0,0.0,0.0,0.0,0.0,0.0,-2.6512,-2.8457,-2.8789,-2.9199,-2.9814,-3.0068,-3.042,-3.0889,-3.0889,-3.0889,-3.0889,-3.0889,-3.1005,-3.1112,-3.1112,-3.1276,-3.1556,-3.1383,-3.1498,-3.173,-3.1111,-3.009,-2.8801,-2.8059,-2.6722,-2.5133,-2.3877,-2.3706,-2.4187,-2.4187,-2.425,-2.4375,-2.4169,-2.417,-2.4363,-2.4487,-2.4548,-2.4548,-2.4548,-2.4548,-2.4548,-2.4548,-2.4548,-2.4548,-2.4734,-2.4795,-2.4857,-2.505,-2.5111,-2.5111,-2.5111,-2.5111,-2.5111,-2.5111,-2.5111,-2.5111,-2.5111,-2.5286,-2.554,-2.589,-2.585,-2.5588,-2.5032,-2.4023,-2.303,-2.2132,-2.1362,-2.0925,-2.0925,-2.0925,-2.0925,-2.0925,-2.0925,-2.0925,-2.0925,-2.0925,-2.0925,-2.0925,-2.0042,-1.9532,-1.9272,-1.8691,-1.8108,-2.0996,0.0,0.0,0.0,0.0,0.0,0.0,0.0,0.0,0.0,0.0,0.0,0.0,0.0,0.0,0.0,0.0,0.0,0.0,0.0,0.0,0.0,0.0,0.0,0.0,0.0,0.0,0.0,0.0,0.0,-2.8174,-2.8584,-2.8945,-2.9375,-2.9805,-3.0244,-3.0693,-3.083,-3.0889,-3.0889,-3.0889,-3.0995,-3.116,-3.1054,-3.1228,-3.1566,-3.1441,-3.1556,-3.1845,-3.2133,-3.1121,-2.9275,-2.8406,-2.6249,-2.3706,-2.353,-2.3861,-2.432,-2.423,-2.4172,-2.4184,-2.4005,-2.3984,-2.3984,-2.4046,-2.4108,-2.4108,-2.4108,-2.417,-2.4239,-2.4239,-2.4301,-2.4425,-2.4672,-2.4734,-2.4795,-2.505,-2.5111,-2.5111,-2.5111,-2.5111,-2.5111,-2.5111,-2.5111,-2.5111,-2.5111,-2.5413,-2.5763,-2.6168,-2.6519,-2.6446,-2.5842,-2.4833,-2.3769,-2.272,-2.1671,-2.102,-2.0925,-2.0925,-2.0925,-2.0925,-2.0925,-2.0925,-2.0925,-2.0925,-2.0925,-2.0925,-2.0101,-1.9635,-1.948,-1.8579,-1.795,0.0,0.0,0.0,-2.0403,0.0,0.0,0.0,0.0,-1.9772,0.0,0.0,0.0,0.0,0.0,-1.8909,-1.7993,0.0,0.0,0.0,0.0,0.0,0.0,0.0,0.0,0.0,0.0,0.0,0.0,0.0,0.0,-2.8115,-2.8301,-2.8506,-2.8926,-2.9365,-2.9795,-3.0215,-3.0664,-3.0889,-3.0889,-3.0889,-3.0889,-3.0947,-3.116,-3.117,-3.0947,-3.1508,-3.1787,-3.1845,-3.2133,-3.0568,-2.8017,-2.8278,-2.6627,-2.3991,-2.3354,-2.3332,-2.3567,-2.3252,-2.3135,-2.3183,-2.3487,-2.3611,-2.3673,-2.3984,-2.4108,-2.4108,-2.4108,-2.4355,-2.461,-2.461,-2.4795,-2.505,-2.5111,-2.5111,-2.5111,-2.5111,-2.5111,-2.5111,-2.5111,-2.5111,-2.5111,-2.5111,-2.5111,-2.5111,-2.5111,-2.5413,-2.5763,-2.6168,-2.6519,-2.6598,-2.6232,-2.5252,-2.4142,-2.3085,-2.1983,-2.1238,-2.0941,-2.0925,-2.0925,-2.0925,-2.0925,-2.0925,-2.0925,-2.0925,-2.0925,-2.0925,-2.0873,-2.0557,-2.0027,-1.8363,-1.7635,0.0,0.0,-2.4552,-2.1997,0.0,0.0,0.0,0.0,0.0,0.0,0.0,0.0,0.0,0.0,-1.918,-1.9132,-1.876,0.0,0.0,0.0,0.0,0.0,0.0,0.0,0.0,0.0,0.0,0.0,0.0,0.0,0.0,-2.8291,-2.8486,-2.8906,-2.9346,-2.9766,-3.0195,-3.0664,-3.0889,-3.0889,-3.0889,-3.0995,-3.116,-3.1054,-3.1228,-3.1508,-3.173,-3.1903,-3.2133,-3.243,-3.1103,-2.8832,-2.8524,-2.7051,-2.5035,-2.4355,-2.4284,-2.4481,-2.394,-2.361,-2.3398,-2.3304,-2.3293,-2.3293,-2.3425,-2.3417,-2.3417,-2.3417,-2.3549,-2.3611,-2.3611,-2.386,-2.417,-2.4363,-2.461,-2.4857,-2.505,-2.5111,-2.5111,-2.5111,-2.5111,-2.5111,-2.5111,-2.5111,-2.5111,-2.5111,-2.5604,-2.6081,-2.6192,-2.666,-2.6978,-2.6859,-2.5906,-2.4952,-2.4118,-2.2623,-2.1507,-2.0948,-2.107,-2.1173,-2.1173,-2.0968,-2.0968,-2.1173,-2.0968,-2.0925,-2.0925,-2.055,-2.0292,-2.0078,-1.9153,-1.8534,-2.5459,-2.585,0.0,-2.3315,-2.3166,0.0,-2.0564,0.0,0.0,0.0,0.0,0.0,0.0,0.0,-1.9558,-1.9231,-1.8954,-1.8748,0.0,-1.807,0.0,0.0,0.0,0.0,0.0,0.0,0.0,-2.4424,-2.468,0.0,0.0,0.0,-2.8418,-2.8682,-2.9268,-2.9697,-2.9971,-3.0586,-3.0889,-3.0889,-3.0889,-3.0995,-3.117,-3.1054,-3.1276,-3.1614,-3.1845,-3.2167,-3.2483,-3.2183,-3.1003,-2.9379,-2.8446,-2.6992,-2.5348,-2.4635,-2.4459,-2.4474,-2.4057,-2.3698,-2.3391,-2.3179,-2.3106,-2.3106,-2.3106,-2.3106,-2.3106,-2.3106,-2.3175,-2.33,-2.33,-2.3611,-2.3984,-2.4232,-2.4548,-2.4857,-2.505,-2.5111,-2.5111,-2.5111,-2.5111,-2.5111,-2.5111,-2.5111,-2.5111,-2.5111,-2.5699,-2.6208,-2.6208,-2.6764,-2.72,-2.72,-2.6374,-2.5396,-2.4244,-2.2779,-2.1671,-2.1094,-2.1224,-2.1326,-2.1326,-2.1019,-2.1134,-2.1667,-2.1134,-2.104,-2.127,-2.0671,-2.0395,-2.0344,-1.9835,-1.9413]},{"header":{"parameterUnit":"m.s-1","parameterCategory":1,"la1":30.6,"la2":29.2853,"lo1":-89.7004,"lo2":-87.6739,"dy":0.0162,"dx":0.0183,"nx":112,"ny":82,"refTime":"2023-05-06T12:00:00:Z","depth":0,"parameterNumber":3,"parameterNumberName":"V-component_of_WINDS"},"data":[0.0,0.0,0.0,0.0,0.0,0.0,0.0,0.0,0.0,0.0,0.0,0.0,0.0,0.0,0.0,0.0,0.0,0.0,0.0,0.0,0.0,0.0,0.0,0.0,0.0,0.0,0.0,0.0,0.0,0.0,0.0,0.0,0.0,0.0,0.0,0.0,0.0,0.0,0.0,0.0,0.0,0.0,0.0,0.0,0.0,0.0,0.0,0.0,0.0,0.0,0.0,0.0,0.0,0.0,0.0,0.0,0.0,0.0,0.0,0.0,0.0,0.0,0.0,0.0,0.0,0.0,0.0,0.0,0.0,0.0,0.0,0.0,0.0,0.0,0.0,0.0,0.0,0.0,0.0,0.0,0.0,0.0,0.0,0.0,0.0,0.0,0.0,0.0,0.0,0.0,0.0,2.0603,2.1473,2.2299,2.3116,2.3189,2.3492,2.4153,0.0,0.0,0.0,0.0,0.0,0.0,0.0,0.0,0.0,0.0,0.0,0.0,0.0,0.0,0.0,0.0,0.0,0.0,0.0,0.0,0.0,0.0,0.0,0.0,0.0,0.0,0.0,0.0,0.0,0.0,0.0,0.0,0.0,0.0,0.0,0.0,0.0,0.0,0.0,0.0,0.0,0.0,0.0,0.0,0.0,0.0,0.0,0.0,0.0,0.0,0.0,0.0,0.0,0.0,0.0,0.0,0.0,0.0,0.0,0.0,0.0,0.0,0.0,0.0,0.0,0.0,0.0,0.0,0.0,0.0,0.0,0.0,0.0,0.0,0.0,0.0,0.0,0.0,0.0,0.0,0.0,0.0,0.0,0.0,0.0,0.0,0.0,0.0,0.0,0.0,0.0,0.0,0.0,0.0,0.0,0.0,0.0,0.0,0.0,0.0,0.0,0.0,0.0,0.0,1.9885,2.1445,2.2336,2.3134,2.3951,2.4025,2.4061,2.419,0.0,0.0,0.0,0.0,0.0,0.0,0.0,0.0,0.0,0.0,0.0,0.0,0.0,0.0,0.0,0.0,0.0,0.0,0.0,0.0,0.0,0.0,0.0,0.0,0.0,0.0,0.0,0.0,0.0,0.0,0.0,0.0,0.0,0.0,0.0,0.0,0.0,0.0,0.0,0.0,0.0,0.0,0.0,0.0,0.0,0.0,0.0,0.0,0.0,0.0,0.0,0.0,0.0,0.0,0.0,0.0,0.0,0.0,0.0,0.0,0.0,0.0,0.0,0.0,0.0,0.0,0.0,0.0,0.0,0.0,0.0,0.0,0.0,0.0,0.0,0.0,0.0,0.0,0.0,0.0,0.0,0.0,0.0,0.0,0.0,0.0,0.0,0.0,0.0,0.0,0.0,0.0,0.0,0.0,0.0,0.0,0.0,0.0,0.0,0.0,0.0,0.0,0.0,2.0181,2.0427,2.1666,2.252,2.3153,2.3529,2.3951,2.4006,2.3584,2.3547,0.0,0.0,0.0,0.0,0.0,0.0,0.0,0.0,0.0,0.0,0.0,0.0,0.0,0.0,0.0,0.0,0.0,0.0,0.0,0.0,0.0,0.0,0.0,0.0,0.0,0.0,0.0,0.0,0.0,0.0,0.0,0.0,0.0,0.0,0.0,0.0,0.0,0.0,0.0,0.0,0.0,0.0,0.0,0.0,0.0,0.0,0.0,0.0,0.0,0.0,0.0,0.0,0.0,0.0,0.0,0.0,0.0,0.0,0.0,0.0,0.0,0.0,0.0,0.0,0.0,0.0,0.0,0.0,0.0,0.0,0.0,0.0,0.0,0.0,0.0,0.0,0.0,0.0,0.0,0.0,0.0,0.0,0.0,0.0,0.0,0.0,0.0,0.0,0.0,0.0,0.0,0.0,0.0,0.0,0.0,0.0,0.0,0.0,0.0,0.0,0.0,0.0,2.0217,2.0529,2.1408,2.2226,2.2786,2.2988,2.3566,2.3749,2.3299,2.3098,0.0,0.0,0.0,0.0,0.0,0.0,0.0,0.0,0.0,0.0,0.0,0.0,0.0,0.0,0.0,0.0,0.0,0.0,0.0,0.0,0.0,0.0,0.0,0.0,0.0,0.0,0.0,0.0,0.0,0.0,0.0,0.0,0.0,0.0,0.0,0.0,0.0,0.0,0.0,0.0,0.0,0.0,0.0,0.0,0.0,0.0,0.0,0.0,0.0,0.0,0.0,0.0,0.0,0.0,0.0,0.0,0.0,0.0,0.0,0.0,0.0,0.0,0.0,0.0,0.0,0.0,0.0,0.0,0.0,0.0,0.0,0.0,0.0,0.0,0.0,0.0,0.0,0.0,0.0,0.0,0.0,0.0,0.0,0.0,0.0,0.0,0.0,0.0,0.0,0.0,0.0,0.0,0.0,0.0,0.0,0.0,0.0,0.0,0.0,0.0,0.0,0.0,1.9389,1.9693,2.0511,2.1363,2.2198,2.2933,2.3043,2.3373,2.4061,2.341,0.0,0.0,0.0,0.0,0.0,0.0,0.0,0.0,0.0,0.0,0.0,0.0,0.0,0.0,0.0,0.0,0.0,0.0,0.0,0.0,0.0,0.0,0.0,0.0,0.0,0.0,0.0,0.0,0.0,0.0,0.0,0.0,0.0,0.0,0.0,0.0,0.0,0.0,0.0,0.0,0.0,0.0,0.0,0.0,0.0,0.0,0.0,0.0,0.0,0.0,0.0,0.0,0.0,0.0,0.0,0.0,0.0,0.0,0.0,0.0,0.0,0.0,0.0,0.0,0.0,0.0,0.0,0.0,0.0,0.0,0.0,0.0,0.0,0.0,0.0,0.0,0.0,0.0,0.0,0.0,0.0,0.0,0.0,0.0,0.0,0.0,0.0,0.0,0.0,0.0,0.0,0.0,0.0,0.0,0.0,0.0,0.0,0.0,0.0,0.0,0.0,0.0,1.9297,1.9426,0.0,2.0986,2.1923,2.2235,2.3162,2.3657,2.3465,0.0,0.0,0.0,0.0,0.0,0.0,0.0,0.0,0.0,0.0,0.0,0.0,0.0,0.0,0.0,0.0,0.0,0.0,0.0,0.0,0.0,0.0,0.0,0.0,0.0,0.0,0.0,0.0,0.0,0.0,0.0,0.0,0.0,0.0,0.0,0.0,0.0,0.0,0.0,0.0,0.0,0.0,0.0,0.0,0.0,0.0,0.0,0.0,0.0,0.0,0.0,0.0,0.0,0.0,0.0,0.0,0.0,0.0,0.0,0.0,0.0,0.0,0.0,0.0,0.0,0.0,0.0,0.0,0.0,0.0,0.0,0.0,0.0,0.0,0.0,0.0,0.0,0.0,0.0,0.0,0.0,0.0,0.0,0.0,0.0,0.0,0.0,0.0,0.0,0.0,0.0,0.0,0.0,0.0,0.0,0.0,0.0,0.0,0.0,0.0,0.0,0.0,1.9656,1.9675,1.9785,0.0,2.1353,2.218,2.218,2.318,2.3694,2.3391,0.0,0.0,0.0,0.0,0.0,0.0,0.0,0.0,0.0,0.0,0.0,0.0,0.0,0.0,0.0,0.0,0.0,0.0,0.0,0.0,0.0,0.0,0.0,0.0,0.0,0.0,0.0,0.0,0.0,0.0,0.0,0.0,0.0,0.0,0.0,0.0,0.0,0.0,0.0,0.0,0.0,0.0,0.0,0.0,0.0,0.0,0.0,0.0,0.0,0.0,0.0,0.0,0.0,0.0,0.0,0.0,0.0,0.0,0.0,0.0,0.0,0.0,0.0,0.0,0.0,0.0,0.0,0.0,0.0,0.0,0.0,0.0,0.0,0.0,0.0,0.0,0.0,0.0,0.0,0.0,0.0,0.0,0.0,0.0,0.0,0.0,0.0,0.0,0.0,0.0,0.0,0.0,0.0,0.0,0.0,0.0,0.0,0.0,0.0,0.0,0.0,0.0,2.0419,2.0503,2.0841,2.1702,2.252,2.3006,2.3006,2.3006,2.3354,0.0,0.0,0.0,0.0,0.0,0.0,0.0,0.0,0.0,0.0,0.0,0.0,0.0,0.0,0.0,0.0,0.0,0.0,0.0,0.0,0.0,0.0,0.0,0.0,0.0,0.0,0.0,0.0,0.0,0.0,0.0,0.0,0.0,0.0,0.0,0.0,0.0,0.0,0.0,0.0,0.0,0.0,0.0,0.0,0.0,0.0,0.0,0.0,0.0,0.0,0.0,0.0,0.0,0.0,0.0,0.0,0.0,0.0,0.0,0.0,0.0,0.0,0.0,0.0,0.0,0.0,0.0,0.0,0.0,0.0,0.0,0.0,0.0,0.0,0.0,0.0,0.0,0.0,0.0,0.0,0.0,0.0,0.0,0.0,0.0,0.0,0.0,0.0,0.0,0.0,0.0,0.0,0.0,0.0,0.0,0.0,0.0,0.0,0.0,0.0,0.0,0.0,0.0,2.139,2.1427,2.1519,2.1776,2.252,2.3006,2.3006,2.3529,2.3951,2.419,0.0,0.0,0.0,0.0,0.0,0.0,0.0,0.0,0.0,0.0,0.0,0.0,0.0,0.0,0.0,0.0,0.0,0.0,0.0,0.0,0.0,0.0,0.0,0.0,0.0,0.0,0.0,0.0,0.0,0.0,0.0,0.0,0.0,0.0,0.0,0.0,0.0,0.0,0.0,0.0,0.0,0.0,0.0,0.0,0.0,0.0,0.0,0.0,0.0,0.0,0.0,0.0,0.0,0.0,0.0,0.0,0.0,0.0,0.0,0.0,0.0,0.0,0.0,0.0,0.0,0.0,0.0,0.0,0.0,0.0,0.0,0.0,0.0,0.0,0.0,0.0,0.0,0.0,0.0,0.0,0.0,0.0,0.0,0.0,0.0,0.0,0.0,0.0,0.0,0.0,0.0,0.0,0.0,0.0,0.0,0.0,0.0,0.0,0.0,0.0,0.0,0.0,2.2244,2.2281,2.2391,2.273,2.3199,2.3492,2.3492,2.3914,2.4061,2.3749,0.0,0.0,0.0,0.0,0.0,0.0,0.0,0.0,0.0,0.0,0.0,0.0,0.0,0.0,0.0,0.0,0.0,0.0,0.0,0.0,0.0,0.0,0.0,0.0,0.0,0.0,0.0,0.0,0.0,0.0,0.0,0.0,0.0,0.0,0.0,0.0,0.0,0.0,0.0,0.0,0.0,0.0,0.0,0.0,0.0,0.0,0.0,0.0,0.0,0.0,0.0,0.0,0.0,0.0,0.0,0.0,0.0,0.0,0.0,0.0,0.0,0.0,0.0,0.0,0.0,0.0,0.0,0.0,0.0,0.0,0.0,0.0,0.0,0.0,0.0,0.0,0.0,0.0,0.0,0.0,0.0,0.0,0.0,0.0,0.0,0.0,0.0,0.0,0.0,0.0,0.0,0.0,0.0,0.0,0.0,0.0,0.0,0.0,0.0,0.0,0.0,0.0,2.3024,2.3116,2.3391,2.4116,2.419,2.419,2.419,2.419,2.3859,2.3043,0.0,0.0,0.0,0.0,0.0,0.0,0.0,0.0,0.0,0.0,0.0,0.0,0.0,0.0,0.0,0.0,0.0,0.0,0.0,0.0,0.0,0.0,0.0,0.0,0.0,0.0,0.0,0.0,0.0,0.0,0.0,0.0,0.0,0.0,0.0,0.0,0.0,0.0,0.0,0.0,0.0,0.0,0.0,0.0,0.0,0.0,0.0,0.0,0.0,0.0,0.0,0.0,0.0,0.0,0.0,0.0,0.0,0.0,0.0,0.0,2.6733,0.0,0.0,0.0,0.0,0.0,0.0,0.0,0.0,0.0,0.0,0.0,0.0,0.0,0.0,0.0,0.0,0.0,0.0,0.0,0.0,0.0,0.0,0.0,0.0,0.0,0.0,0.0,0.0,0.0,0.0,0.0,0.0,0.0,0.0,0.0,0.0,0.0,0.0,0.0,0.0,0.0,2.3914,2.3933,2.4006,2.4171,2.419,2.419,2.419,2.419,2.3859,2.3043,0.0,0.0,0.0,0.0,0.0,0.0,0.0,0.0,0.0,0.0,0.0,0.0,0.0,0.0,0.0,0.0,0.0,0.0,0.0,0.0,0.0,0.0,0.0,0.0,0.0,0.0,0.0,0.0,0.0,0.0,0.0,0.0,0.0,0.0,0.0,0.0,0.0,0.0,0.0,0.0,0.0,0.0,0.0,0.0,0.0,0.0,0.0,0.0,0.0,0.0,0.0,0.0,0.0,0.0,0.0,0.0,0.0,0.0,0.0,0.0,0.0,2.811,0.0,0.0,0.0,0.0,0.0,0.0,0.0,0.0,0.0,0.0,0.0,0.0,0.0,0.0,0.0,0.0,0.0,0.0,0.0,0.0,0.0,0.0,0.0,0.0,0.0,0.0,0.0,0.0,0.0,0.0,0.0,0.0,0.0,0.0,0.0,0.0,0.0,0.0,0.0,0.0,2.419,2.419,2.419,2.419,2.419,2.419,2.419,2.419,2.3859,2.3043,2.3006,0.0,0.0,0.0,0.0,0.0,0.0,0.0,0.0,0.0,0.0,0.0,0.0,0.0,0.0,0.0,0.0,0.0,0.0,0.0,0.0,0.0,0.0,0.0,0.0,0.0,0.0,0.0,0.0,0.0,0.0,0.0,0.0,0.0,0.0,0.0,0.0,0.0,0.0,0.0,0.0,0.0,0.0,0.0,0.0,0.0,0.0,0.0,0.0,0.0,0.0,0.0,0.0,0.0,3.4197,3.4491,3.5312,3.6399,3.6527,3.5917,3.5917,3.322,2.8796,0.0,0.0,0.0,0.0,0.0,0.0,0.0,0.0,0.0,0.0,0.0,0.0,0.0,0.0,0.0,0.0,0.0,0.0,0.0,0.0,0.0,0.0,0.0,0.0,0.0,2.5301,2.5044,0.0,0.0,0.0,0.0,0.0,0.0,0.0,0.0,0.0,0.0,0.0,0.0,2.419,2.419,2.419,2.419,2.419,2.419,2.419,2.419,2.3859,2.3043,2.2859,2.2483,0.0,0.0,0.0,0.0,0.0,0.0,0.0,0.0,0.0,0.0,0.0,0.0,0.0,0.0,0.0,0.0,0.0,0.0,0.0,0.0,0.0,0.0,0.0,0.0,0.0,0.0,0.0,0.0,0.0,0.0,0.0,0.0,3.0589,2.7783,0.0,0.0,0.0,0.0,0.0,0.0,0.0,0.0,0.0,0.0,0.0,0.0,0.0,0.0,3.4215,3.4527,3.5477,3.7033,3.9038,4.0398,4.1258,4.3461,4.4415,4.4305,4.4305,0.0,3.2797,2.9977,0.0,0.0,0.0,0.0,0.0,0.0,0.0,0.0,0.0,0.0,0.0,0.0,0.0,0.0,0.0,0.0,0.0,0.0,0.0,0.0,0.0,0.0,2.5209,2.453,2.4897,2.5338,0.0,2.5172,2.5007,2.419,0.0,0.0,0.0,0.0,0.0,0.0,0.0,0.0,2.419,2.419,2.419,2.419,2.419,2.419,2.419,2.419,2.3859,2.3043,2.2336,2.1904,2.1794,2.0951,0.0,0.0,0.0,0.0,0.0,0.0,0.0,0.0,0.0,0.0,0.0,0.0,0.0,0.0,0.0,0.0,0.0,0.0,0.0,0.0,0.0,0.0,0.0,0.0,0.0,0.0,0.0,0.0,0.0,2.834,2.8888,2.6098,2.7684,2.7904,0.0,0.0,0.0,0.0,0.0,0.0,0.0,0.0,0.0,3.2894,3.6142,3.8068,3.8417,4.0215,4.1497,4.2231,4.3296,4.3993,4.436,4.5424,4.5902,4.5902,4.5902,4.3883,4.0341,3.7132,3.4729,3.2963,0.0,0.0,0.0,0.0,0.0,3.0198,2.9751,2.9898,0.0,0.0,0.0,0.0,0.0,0.0,0.0,0.0,0.0,0.0,0.0,0.0,0.0,2.6833,2.6833,2.7291,2.6843,2.6751,2.6384,0.0,2.4879,2.4732,2.4281,0.0,0.0,0.0,0.0,0.0,2.419,2.419,2.419,2.419,2.419,2.419,2.419,2.3786,2.3373,2.3024,2.1785,2.107,2.107,2.0262,2.0005,0.0,0.0,0.0,0.0,0.0,0.0,0.0,0.0,0.0,0.0,0.0,0.0,0.0,0.0,0.0,0.0,0.0,0.0,0.0,0.0,0.0,0.0,0.0,0.0,0.0,0.0,0.0,0.0,2.8172,2.8998,2.6355,2.8521,2.9292,0.0,0.0,0.0,0.0,0.0,0.0,3.232,3.5224,3.6876,3.6876,4.0618,4.2636,4.2636,4.5223,4.6617,4.6838,4.6819,4.6929,4.715,4.715,4.715,4.715,4.715,4.715,4.6838,4.2765,3.9698,3.7441,3.6615,3.6303,3.6211,3.5573,3.5334,3.5243,3.4651,3.4835,3.5334,3.5334,0.0,3.6009,3.6229,0.0,0.0,0.0,0.0,3.2467,2.9035,3.0962,3.2834,2.9017,2.8565,2.8895,2.8503,2.8411,2.7824,0.0,2.5393,2.5136,2.4337,0.0,0.0,0.0,0.0,2.419,2.419,2.4373,2.4511,2.4511,2.4685,2.4814,2.4814,2.4281,2.3831,2.3639,2.2254,2.1355,2.1153,2.0372,1.994,1.994,0.0,0.0,0.0,0.0,0.0,0.0,0.0,0.0,0.0,0.0,0.0,0.0,0.0,0.0,0.0,0.0,0.0,0.0,0.0,0.0,0.0,0.0,0.0,0.0,0.0,0.0,0.0,0.0,0.0,3.1415,3.2522,0.0,0.0,0.0,0.0,3.5514,3.5881,3.6615,3.8193,4.0598,4.1937,4.1937,4.5095,4.6801,4.6801,4.7718,4.8581,4.9408,4.9353,4.9756,5.0545,5.0545,5.0545,5.0545,5.0545,5.0545,5.0068,4.37,4.1003,4.0545,3.7496,3.6303,3.6285,3.6248,3.6229,3.6229,3.6193,3.6193,3.6229,3.6229,3.5701,3.5224,3.6046,3.6156,0.0,0.0,3.7,3.7404,3.3353,3.3054,3.2981,2.9702,2.8968,2.9207,2.9916,3.0081,2.9145,0.0,2.5393,2.5136,2.4337,0.0,2.419,2.419,2.419,2.419,2.419,2.4879,2.5338,2.5338,2.6025,2.6473,2.6473,2.6437,2.6098,2.5319,2.4493,2.3676,2.2914,2.2097,2.1666,2.1666,2.1666,0.0,0.0,0.0,0.0,0.0,0.0,0.0,0.0,0.0,0.0,0.0,0.0,0.0,0.0,0.0,0.0,0.0,0.0,0.0,0.0,0.0,0.0,0.0,0.0,0.0,0.0,0.0,0.0,3.3793,3.6083,0.0,0.0,3.4578,3.5716,3.7698,3.9276,4.0634,4.1717,4.458,4.6416,4.6985,4.8104,4.8967,4.9481,4.9774,5.0068,5.0362,5.0343,5.0508,5.0802,5.0802,5.0802,5.0802,5.0802,5.0802,5.0618,4.8306,4.7352,4.7241,4.6085,4.5626,4.5571,4.5039,4.4873,4.4782,4.4213,4.4378,4.4947,4.5461,4.5424,4.4837,4.302,4.247,4.2047,3.9974,4.1295,4.2525,3.8985,3.827,3.7554,3.3757,3.128,2.9702,2.9482,2.9427,2.8943,2.7265,2.7365,2.731,2.597,2.575,2.575,2.575,2.575,2.575,2.575,2.5988,2.6172,2.6172,2.6429,2.6602,2.6602,2.5658,2.4924,2.4658,2.3391,2.2528,2.2244,2.1959,2.1794,2.1794,2.1794,2.1794,0.0,0.0,0.0,0.0,0.0,0.0,0.0,0.0,0.0,0.0,0.0,0.0,0.0,0.0,0.0,0.0,0.0,0.0,0.0,0.0,0.0,0.0,0.0,0.0,0.0,0.0,3.5954,3.6215,3.8891,4.0175,3.8854,3.9218,4.032,4.2231,4.3864,4.5112,4.592,4.7976,4.9407,4.9996,5.0271,5.0675,5.1206,5.1481,5.161,5.161,5.161,5.161,5.161,5.161,5.161,5.161,5.161,5.161,5.161,5.161,5.161,5.1573,5.1022,5.0802,5.0747,5.0196,4.9994,4.9903,4.9352,4.9517,5.0086,5.0637,5.0802,5.0398,4.8214,4.7553,4.7113,4.4984,4.592,4.6819,4.3571,4.1902,4.0068,3.5977,3.2546,3.0063,2.9519,2.939,2.9244,2.8705,2.8594,2.8161,2.6822,2.6602,2.6602,2.6602,2.6602,2.6602,2.6602,2.6851,2.6998,2.6998,2.7244,2.7409,2.7409,2.619,2.5291,2.5034,2.3759,2.2896,2.262,2.2602,2.2602,2.2602,2.2602,2.2602,2.2602,0.0,0.0,0.0,0.0,0.0,0.0,0.0,0.0,0.0,0.0,0.0,0.0,0.0,0.0,0.0,0.0,0.0,0.0,0.0,0.0,0.0,0.0,0.0,3.297,3.6971,3.9717,3.9038,4.1056,4.28,4.3625,4.3717,4.5369,4.9335,4.9665,5.0033,5.0802,5.0857,5.0875,5.0875,5.1628,5.2032,5.2032,5.2839,5.3243,5.3243,5.3259,5.328,5.328,5.328,5.328,5.328,5.328,5.328,5.328,5.328,5.328,5.3112,5.1499,5.0875,5.0875,5.0875,5.0875,5.0875,5.0875,5.0875,5.0875,5.0875,5.0875,5.0875,5.0875,5.0875,5.0875,5.0875,5.0875,5.0141,4.6948,4.3663,4.0159,3.6178,3.2674,3.0228,3.021,3.0173,3.0173,3.0173,2.8906,2.7585,2.6814,2.6675,2.6675,2.6675,2.6675,0.0,2.6675,2.7365,2.7842,2.7842,2.8528,2.9005,2.9005,2.8246,2.742,2.6649,2.5815,2.5007,2.4226,2.419,2.419,2.419,2.419,2.419,2.419,0.0,0.0,0.0,0.0,0.0,0.0,0.0,0.0,0.0,0.0,0.0,0.0,0.0,0.0,0.0,0.0,0.0,0.0,0.0,0.0,0.0,0.0,3.8527,3.8721,4.0416,4.2415,4.4526,4.5902,4.6985,4.7848,4.8453,4.926,5.038,5.1004,5.1446,5.1665,5.2215,5.2546,5.2546,5.2747,5.2876,5.2876,5.3683,5.4069,5.4087,5.4656,5.4932,5.4932,5.4932,5.4932,5.4932,5.4932,5.4932,5.4932,5.4932,5.4932,5.4766,5.317,5.2546,5.2546,5.2546,5.2546,5.2546,5.2546,5.2546,5.2546,5.2546,5.2546,5.2546,5.2546,5.2546,5.2546,5.2546,5.2546,5.2323,5.1444,4.704,4.2415,4.0708,3.5569,3.0907,3.0338,2.9739,2.9335,2.9335,2.8968,2.8601,2.8381,2.8345,2.8345,2.8345,2.8345,0.0,2.8345,2.8528,2.8675,2.8675,2.8877,2.9005,2.9005,2.7732,2.6851,0.0,2.5291,2.4428,2.4208,2.419,2.419,2.419,2.419,2.419,0.0,0.0,0.0,0.0,0.0,0.0,0.0,0.0,0.0,0.0,0.0,0.0,0.0,0.0,0.0,0.0,0.0,0.0,0.0,0.0,0.0,0.0,3.8833,4.2173,4.3542,4.4364,4.5645,4.7884,4.8857,4.9682,5.0528,5.1022,5.1444,5.1793,5.2234,5.2509,5.2509,5.328,5.3702,5.3702,5.4032,5.4216,5.4216,5.4675,5.4895,5.4913,5.5372,5.5614,5.5614,5.5614,5.5614,0.0,5.5614,5.5614,5.5614,5.5614,5.5614,0.0,0.0,0.0,0.0,0.0,5.3185,5.3185,5.3185,5.3185,5.3185,5.3185,5.3185,5.3185,5.3185,5.3185,5.3185,5.3185,5.3185,5.3185,5.3185,4.8379,4.3313,4.2488,3.6982,3.1586,3.0448,2.9831,2.939,2.9078,0.0,0.0,2.9005,2.9005,2.9005,2.9005,2.9005,2.9005,2.9005,2.9005,2.9005,2.9005,2.9005,2.9005,2.9005,2.7537,0.0,0.0,0.0,2.419,2.419,2.419,0.0,0.0,0.0,2.419,0.0,0.0,0.0,0.0,2.3988,2.3951,0.0,0.0,0.0,0.0,0.0,0.0,0.0,0.0,0.0,0.0,0.0,0.0,0.0,0.0,0.0,0.0,4.136,4.4959,4.7349,4.8198,4.8907,4.9756,5.049,5.1242,5.205,5.2142,5.2435,5.3148,5.3277,5.3332,5.3332,0.0,0.0,0.0,0.0,5.5614,5.5614,5.5684,5.5739,5.5739,5.5812,5.589,5.589,5.589,5.589,5.589,5.589,5.589,5.589,5.589,5.589,5.5853,5.5666,5.5152,5.4454,5.3739,5.3482,0.0,0.0,0.0,0.0,5.3482,5.3482,5.3482,5.3482,5.3427,5.3332,5.3332,5.328,5.3185,5.3185,4.8379,4.3331,4.2598,3.7404,3.2197,3.0779,3.0393,3.0099,2.9299,2.9122,2.9104,2.9023,2.9005,2.9005,2.9005,2.9005,2.9005,2.9005,2.9005,2.9005,2.9005,0.0,0.0,2.9005,2.7537,2.6602,2.6602,2.5089,2.419,2.419,2.419,2.419,2.419,2.419,2.419,2.419,2.419,2.419,2.419,2.419,2.419,0.0,0.0,0.0,0.0,0.0,0.0,0.0,0.0,0.0,0.0,0.0,0.0,0.0,0.0,0.0,3.8353,4.2783,4.6831,4.9107,4.9988,5.0679,5.1458,5.1665,5.2087,5.2894,5.2968,5.3041,5.3185,5.3812,5.4179,5.4179,5.4932,0.0,5.5354,5.5522,5.5614,5.5614,5.6235,5.6565,5.6583,0.0,0.0,5.7538,5.7538,5.7538,5.7538,5.7538,5.7538,5.7538,5.7538,5.7538,5.7409,5.6106,5.5482,5.5335,5.5188,5.5133,5.5133,5.5133,5.5133,5.5133,5.5133,5.5133,5.5133,5.5133,5.4675,0.0,5.4179,5.3702,5.3185,5.3185,4.8379,4.346,4.3313,3.7808,3.2509,3.2197,3.1623,3.0925,3.0118,2.9917,2.9691,2.9104,2.9005,2.9005,2.9005,2.9005,2.9005,2.9005,2.9005,2.9005,2.9005,2.9005,2.9005,2.9005,2.7537,2.6602,2.6602,2.5089,2.419,2.419,2.419,2.419,2.419,2.419,2.419,2.419,2.419,2.419,2.419,2.419,2.419,0.0,0.0,0.0,0.0,0.0,0.0,0.0,0.0,0.0,0.0,0.0,3.288,0.0,0.0,3.9956,4.1242,4.5,4.8141,4.9257,5.033,5.1143,5.1506,5.1846,5.2207,5.2626,5.3008,5.3393,5.3772,5.4546,5.4987,5.4987,5.5757,5.6198,5.6198,5.6583,5.6785,5.6785,5.7207,5.7409,5.7409,5.8235,5.8602,5.8621,5.9024,5.9208,5.9208,5.9208,5.8969,5.8584,5.8162,5.7997,5.7923,5.7097,5.6547,5.6143,5.5739,5.5614,5.5614,5.5614,5.5614,5.5614,5.5614,5.5614,5.5614,5.5614,5.5317,5.4987,5.4987,5.4711,5.4399,5.4399,5.0802,4.6728,4.5076,4.0689,3.6178,3.372,3.2889,3.2228,3.0986,3.0406,2.9978,2.9582,2.9168,2.8917,2.8994,2.8964,2.8952,2.8994,2.9005,2.9005,2.9005,2.9005,2.9005,2.9005,2.7537,2.6429,2.6025,2.4869,2.419,2.419,2.419,2.419,2.419,2.419,2.419,2.419,2.419,2.419,2.419,2.419,2.419,0.0,0.0,0.0,0.0,0.0,0.0,0.0,0.0,3.2327,3.3566,3.5521,3.7297,3.82,4.0552,4.2749,4.3991,4.6859,4.8935,4.8935,5.006,5.0876,5.09,5.1607,5.2114,5.2114,5.2839,5.361,5.4318,5.5135,5.5637,5.5746,5.6538,5.6978,5.6978,5.779,5.8235,5.8235,5.8382,5.8474,5.8474,5.9134,5.9423,5.9459,6.0107,6.0401,6.0401,6.0401,6.0034,5.9368,5.8731,5.8474,5.8474,5.8474,5.7978,5.7171,5.6363,5.6073,5.6073,5.6073,5.6073,5.6073,5.6073,5.6073,5.6073,5.6073,5.5959,5.5831,5.5831,5.5702,5.5614,5.5614,5.3206,4.9976,4.6673,4.3425,3.9832,3.5275,3.427,3.3711,3.1882,3.1009,3.038,2.9861,2.9217,2.8822,2.897,2.8929,2.8929,2.8994,2.9005,2.9005,2.9005,2.9005,2.8932,2.8785,2.7427,2.6264,2.5448,2.464,2.419,2.419,2.419,2.419,2.419,2.419,2.419,2.419,2.419,2.419,2.419,2.419,2.419,2.8109,2.926,3.0747,3.0277,3.2086,3.399,0.0,0.0,3.5135,3.5318,3.6655,3.7827,3.795,4.1417,4.4332,4.4529,4.7039,4.8989,4.8989,4.9641,5.0149,5.0202,5.1364,5.2183,5.2183,5.2874,5.3593,5.4273,5.5062,5.5756,5.627,5.7178,5.7687,5.7687,5.8569,5.9056,5.9056,5.9777,6.0126,6.0126,6.0236,6.0272,6.0272,6.0364,6.0401,6.0401,6.0401,6.0346,6.0272,6.0181,6.0126,6.0126,6.0126,5.9648,5.8817,5.8033,5.7721,5.7721,5.7721,5.7721,5.7721,5.7721,5.7721,5.7721,5.7721,5.7226,5.6675,5.6675,5.6143,5.5614,5.5614,5.3206,4.9976,4.6673,4.3409,4.0079,3.6729,3.5933,3.5158,3.2815,3.2232,3.1448,2.929,2.8816,2.8755,2.8893,2.8887,2.8929,2.8994,2.9005,2.9005,2.9005,2.9005,2.8712,2.7989,2.7108,2.6264,2.5448,2.464,2.419,2.419,2.419,2.419,2.419,2.419,2.419,2.419,2.419,2.419,2.419,2.419,2.419,3.2838,3.2983,3.3141,0.0,3.5893,3.711,3.711,3.8024,3.9242,4.0561,4.2033,4.3217,4.3629,4.5263,4.6667,0.0,4.8189,4.9001,4.9001,4.96,5.0066,5.0113,5.1374,5.226,5.2247,5.295,5.3675,5.4376,5.5169,5.5732,5.599,5.725,5.7974,5.7974,5.8762,5.9205,5.9205,5.9532,5.9696,5.9696,6.0646,6.1098,6.1117,6.1594,6.1814,6.1777,6.13,6.1098,6.1062,6.0584,6.0401,6.0401,6.0401,5.9924,5.9148,5.8822,5.84,5.7997,5.7997,5.7997,5.7997,5.7997,5.7997,5.7997,5.7997,5.7776,5.7501,5.7501,5.7262,5.6987,5.6987,5.5996,5.3683,4.8468,4.6232,4.3703,3.8037,3.6811,3.6339,3.4776,3.3708,3.257,3.1101,3.0051,2.9277,2.8936,2.8905,2.8917,2.894,2.8982,2.9005,2.9005,2.9005,2.8675,2.786,2.7053,2.6264,2.5448,2.464,2.419,2.419,2.419,2.419,2.419,2.419,2.419,2.419,2.419,2.419,2.419,2.419,2.419,3.4883,3.5204,0.0,3.7635,3.9225,4.0273,4.0476,4.1525,4.2963,4.4807,4.621,4.7276,4.7787,4.8058,4.8392,4.8917,4.9001,4.9001,4.9001,4.9627,5.0168,5.0371,5.1522,5.2376,5.2619,5.3177,5.3762,5.4425,5.5022,5.5513,5.5899,5.7061,5.781,5.7998,5.8778,5.9302,5.9538,5.9736,5.997,6.0219,6.1371,6.1924,6.1942,6.2292,6.2368,6.2103,6.1529,6.1275,6.122,6.063,6.0541,6.0711,6.0489,6.0161,5.9755,5.9353,5.867,5.795,5.795,5.795,5.795,5.795,5.7973,5.7997,5.7997,5.7997,5.7997,5.7997,5.7997,5.7997,5.7997,5.7997,5.6341,4.9786,4.8247,4.6267,3.9122,3.7557,3.7234,3.6124,3.4978,3.3793,3.2514,3.116,3.003,2.9308,2.9009,2.8881,2.8905,2.894,2.8964,2.8964,2.8994,2.8767,2.8172,2.7383,2.6594,2.5778,2.4989,2.4428,2.4208,2.419,2.419,2.419,2.419,2.419,2.419,2.419,2.419,2.419,2.419,2.419,3.1633,0.0,3.6107,3.8396,4.1136,4.3487,4.4259,4.501,4.5788,4.6566,4.7344,4.7855,4.7889,4.8494,4.8984,4.9001,4.9001,4.9001,4.9001,4.9627,5.0371,5.1099,5.1843,5.2604,0.0,5.3484,5.3749,5.4356,5.4437,5.5046,5.6408,5.6652,5.7064,5.7809,5.8714,5.9579,6.0368,6.1153,6.1923,6.2682,6.2743,6.2768,6.2743,6.1978,6.1218,6.0476,6.0458,6.044,6.0423,6.0423,6.0837,6.1504,6.0689,6.0765,6.1156,5.9724,5.8627,5.7792,5.7792,5.7792,5.7792,5.7792,5.7886,5.7997,5.7997,5.7997,5.7997,5.7997,5.7997,5.7997,5.7997,5.7997,5.6363,4.9848,4.8189,4.6337,3.9865,3.8348,3.7798,3.6215,3.5912,3.5159,3.2706,3.1682,3.0883,3.0099,2.9302,2.8822,2.8893,2.8905,2.8887,2.8887,2.8952,2.8987,2.8968,2.8227,2.742,2.6602,2.5815,2.5007,2.4226,2.419,2.419,2.419,2.419,2.419,2.419,2.419,2.419,2.419,2.419,2.419,3.3694,0.0,3.9242,4.1999,4.3826,4.5128,4.5872,4.6633,4.7242,4.7496,4.6955,4.6447,4.6447,4.665,4.6819,4.6819,4.8054,4.9001,4.9001,5.0067,5.093,5.1183,5.2334,0.0,0.0,0.0,0.0,5.3783,5.4259,5.4734,5.5205,5.672,5.7683,5.7927,5.8724,5.9269,5.9538,5.9801,6.0065,6.0344,6.0938,6.1189,6.1189,6.0926,6.0658,6.0414,6.0414,6.0414,6.0414,6.0414,6.0567,6.076,6.0506,6.0208,5.9931,5.9877,5.9276,5.8408,5.7947,5.7792,5.7792,5.7697,5.7815,5.7973,5.7886,5.7927,5.7997,5.7997,5.7997,5.7997,5.7997,5.7997,5.6891,5.2413,4.9722,4.6922,4.2396,3.9779,3.8143,3.7598,3.6651,3.5518,3.42,3.2866,3.1532,3.0132,2.9246,2.8761,2.8822,2.8834,2.8846,2.8905,2.8917,2.8709,2.8178,2.7885,2.7391,2.6577,2.5813,2.5283,2.5007,2.4483,2.419,2.419,2.419,2.419,2.419,2.419,2.419,2.419,2.419,2.419,3.6563,3.9208,4.1551,4.4327,4.5534,4.6295,4.7022,4.7564,4.7956,4.8257,4.6921,4.5703,4.5703,4.4823,4.4181,4.4434,4.5466,4.6599,4.7665,4.9103,5.0289,5.11,5.257,0.0,0.0,0.0,0.0,5.3501,5.4177,5.4718,5.4972,5.6611,5.7706,5.7981,5.8428,5.8806,5.9077,5.9111,5.9245,5.9574,6.0117,6.026,5.9928,5.9928,5.9768,5.9526,5.9753,5.9721,5.9543,6.0058,6.0278,6.0322,6.0278,6.0283,6.0246,6.0167,5.9885,5.9393,5.8469,5.8135,5.8032,5.7716,5.7721,5.7839,5.7745,5.7792,5.7857,5.7857,5.7857,5.7881,5.7927,5.7886,5.7028,5.3719,5.0464,4.7154,4.3721,4.049,3.8167,3.7876,3.7021,3.5999,3.495,3.3421,3.1806,3.0122,2.9419,2.8996,2.8761,2.8749,2.8785,2.8815,2.8863,2.8686,2.8162,2.8148,2.7812,2.7017,2.6528,2.5999,2.5411,2.4897,2.4493,2.4208,2.419,2.419,2.419,2.419,2.419,2.419,2.419,2.419,3.9901,4.1847,4.2997,4.5263,4.6346,4.7056,4.78,4.7939,4.8122,4.8663,4.7005,4.5432,0.0,0.0,4.1424,4.2117,4.188,4.2608,4.5466,4.7158,4.8835,0.0,0.0,0.0,0.0,0.0,0.0,5.3551,0.0,5.4972,5.5733,5.6461,5.7171,5.7865,5.7881,5.8263,5.9027,5.9061,5.9443,6.026,6.026,5.9832,5.9061,5.9061,5.8633,5.7918,5.8581,5.8493,5.8027,5.938,6.003,6.0121,6.003,6.0844,6.1879,6.0549,6.0318,6.0494,5.9281,5.8742,5.8503,5.7808,5.7601,5.7601,5.7601,5.7583,5.7601,5.7601,5.7601,5.7649,5.7768,5.7697,5.6859,5.392,5.0508,4.7068,4.3994,4.0635,3.7973,3.7212,3.7041,3.6526,3.4912,3.3346,3.1769,3.016,2.9857,2.9513,2.8708,2.8662,2.8694,2.8694,2.8803,2.8893,2.8893,2.894,2.8663,2.7897,2.7824,2.7108,2.5595,2.5429,2.5044,2.4281,2.4226,2.419,2.419,2.419,2.419,2.419,2.419,2.419,4.1356,4.3403,4.5246,4.6938,4.7466,4.7817,4.8562,4.8731,4.8156,4.6126,4.391,4.1677,0.0,0.0,0.0,4.1457,4.4587,0.0,4.8054,4.9441,0.0,5.1117,0.0,5.3501,5.3501,5.3501,0.0,0.0,5.5006,5.575,5.6478,5.7222,5.7695,5.7881,5.7881,5.801,5.8192,5.8192,5.8334,5.8563,5.8563,5.8423,5.8192,5.8192,5.8101,5.7918,5.8082,5.8046,5.7954,5.8806,5.9196,5.9279,5.9806,5.9867,5.9762,6.0469,6.0085,5.9181,5.9468,5.9139,5.8453,5.7586,5.7455,5.7577,5.748,5.7528,5.7601,5.7601,5.7673,5.7721,5.7673,5.7697,5.7496,5.6509,5.1981,4.7647,4.6747,4.214,3.8153,3.7985,3.7017,3.569,3.4073,3.294,3.2081,3.165,3.0581,2.9513,2.8708,2.8662,2.8694,2.8694,2.8731,2.8767,2.8822,2.8798,2.873,2.8636,2.8068,2.7548,2.721,2.6035,2.5301,2.5099,2.4511,2.419,2.419,2.419,2.419,2.419,2.419,2.419,4.3217,4.4959,4.6464,4.7601,4.8125,4.8156,4.7259,4.7056,4.621,4.3234,4.0832,0.0,3.703,0.0,0.0,0.0,0.0,0.0,4.7378,4.8832,5.0103,0.0,5.257,0.0,5.3501,5.3501,5.394,0.0,5.548,5.6038,5.6765,5.7492,5.7881,5.7881,5.7881,5.7881,5.7881,5.7881,5.7881,5.7881,5.7881,5.7881,5.7881,5.7881,5.8046,5.8369,0.0,5.8841,5.8892,5.9853,5.9865,5.9376,6.0076,5.987,5.9247,6.0085,5.9803,5.905,5.9154,5.8885,5.8377,5.7561,5.7356,5.7412,5.7356,5.7363,5.7455,5.7504,5.7255,5.7006,5.7054,5.703,5.7,5.6903,5.2241,4.7783,4.7717,4.2701,3.7991,3.7334,3.6188,3.4936,3.3669,3.3042,3.2614,3.2252,3.1419,3.055,2.9753,2.9072,2.8662,2.8662,2.8682,2.8724,2.8761,2.8749,2.8785,2.8858,2.8461,2.8093,2.7761,2.6914,2.6292,2.5933,2.5136,2.4732,2.4732,2.4373,2.419,2.419,2.419,2.4392,4.4959,4.6244,4.6972,4.7733,4.846,4.8223,4.5275,4.4615,4.3616,4.0062,0.0,3.6326,3.5807,3.6128,3.6817,3.7836,0.0,4.2709,4.572,4.7327,4.8951,5.0948,5.2469,5.3382,5.3501,5.3602,5.4228,5.5615,5.5801,5.619,5.6917,5.7543,5.7881,5.7881,5.7881,5.7881,5.7881,5.7881,5.7881,5.7881,5.7881,5.7881,5.7881,5.7881,5.8244,5.8806,0.0,0.0,5.9776,6.1066,6.0819,5.9713,6.0386,6.0158,5.9452,5.9561,5.947,5.9198,5.8619,5.8329,5.8156,5.7549,5.7289,5.7188,5.7188,5.7188,5.7195,5.7211,5.6635,5.6031,5.6157,5.6025,5.5915,5.6146,5.1756,4.7572,4.7702,4.272,3.7774,3.6254,3.5403,3.4624,3.3719,3.3556,3.3284,3.2488,3.227,3.1944,3.1252,2.9753,2.8763,2.8763,2.8717,2.8682,2.8694,2.8749,2.8773,2.8798,2.8846,2.8571,2.7887,2.7816,2.7464,2.6778,2.598,2.5503,2.5393,2.4915,2.4575,2.4355,2.4575,2.4989,4.5399,4.6244,4.6972,4.7733,4.846,4.8223,4.5275,4.4615,0.0,0.0,3.5165,3.4112,3.1544,3.3157,3.5904,3.8991,0.0,0.0,0.0,0.0,5.0084,0.0,0.0,0.0,0.0,0.0,0.0,0.0,0.0,0.0,5.7662,5.7814,5.7881,5.7881,5.7881,5.7881,5.7881,5.7881,5.7881,5.7881,5.7881,5.7881,5.7881,5.7881,5.7954,5.8082,0.0,0.0,5.8145,5.9004,5.9147,5.8874,5.9556,5.9325,5.8691,5.9361,5.8764,5.7695,5.822,5.7967,5.7387,5.7268,5.7213,5.7188,5.7188,5.7188,5.7062,5.6416,5.62,5.5995,5.5347,5.5166,5.5365,5.6043,5.1343,4.6923,4.7697,4.2758,3.7919,3.6977,3.6687,3.6125,3.4661,3.4389,3.4117,3.3302,3.2632,3.2144,3.1999,3.0586,2.9603,2.9603,2.9023,2.865,2.8694,2.8662,2.8675,2.8785,2.8761,2.8725,2.8686,2.8064,2.7676,2.7585,2.6796,2.6062,2.5393,2.6605,2.6494,2.5209,2.6568,2.6888,4.55,4.5957,4.6397,4.7141,4.7597,4.6667,4.2134,0.0,0.0,0.0,3.165,3.1151,2.9563,0.0,0.0,0.0,0.0,0.0,0.0,0.0,0.0,0.0,0.0,0.0,0.0,0.0,0.0,0.0,0.0,0.0,5.7848,5.7881,5.7881,5.7881,5.7881,5.7881,5.7881,5.7881,5.7881,5.7881,5.7881,5.7881,5.7881,5.7881,5.8315,5.8977,5.8564,0.0,5.9312,5.9247,5.8926,5.8529,5.8858,5.8474,5.7822,5.8202,5.7858,5.7261,5.7641,5.7514,5.7188,5.7188,5.7188,5.7188,5.7188,5.7188,5.7141,5.6835,5.6146,5.5438,5.5057,5.4967,5.5057,5.5438,5.1221,4.6796,4.5551,4.1561,3.7955,3.7158,3.6995,3.6633,3.5439,3.5206,3.4953,3.4154,3.3701,3.3302,3.2886,3.1781,3.0889,3.0473,3.0079,2.9857,2.9896,2.9489,2.9266,2.9373,2.8985,2.8798,2.8905,2.8977,2.9019,2.9053,2.8668,2.8282,2.7897,2.8246,2.8026,2.7273,2.764,2.7824,4.5314,4.5585,4.5838,4.6413,4.6667,4.5229,3.9259,3.7905,0.0,0.0,2.872,2.8665,2.8462,0.0,3.3469,0.0,0.0,0.0,0.0,0.0,0.0,0.0,0.0,0.0,0.0,0.0,0.0,0.0,0.0,0.0,5.7865,5.7845,5.7845,5.7881,5.7845,5.7845,5.7881,5.7881,5.7881,5.7881,5.7881,5.7881,5.7881,5.7881,5.8563,5.9721,5.8905,0.0,0.0,5.9465,5.8724,5.8148,5.8148,5.775,5.7188,5.7188,5.7188,5.7188,5.7188,5.7188,5.7188,5.7188,5.7188,5.7188,5.7188,5.7188,5.7195,5.7114,5.6139,5.5112,5.5009,5.4943,5.4744,5.4037,5.0728,4.6796,4.3371,4.0293,3.8009,3.7375,3.7267,3.7013,3.62,3.6073,3.5768,3.4971,3.47,3.4371,3.3737,3.294,3.2216,3.1582,3.1202,3.0998,3.0998,3.0418,3.0069,3.014,2.9604,2.932,2.9393,3.0058,3.0436,3.0467,3.0467,3.0375,3.021,2.9904,2.9592,2.9244,2.8962,2.9072,4.4682,4.5179,4.572,4.5788,4.6295,4.5229,3.9259,0.0,0.0,2.9201,2.7819,2.7765,2.7566,2.7907,2.9576,3.3649,3.5435,3.8282,0.0,0.0,0.0,0.0,0.0,0.0,0.0,0.0,0.0,0.0,0.0,0.0,0.0,5.7735,5.7698,5.7881,5.7735,5.7698,5.7881,5.7881,5.7881,5.7881,5.7881,5.7881,5.7881,5.7881,5.8298,5.8959,0.0,0.0,0.0,5.7927,5.7487,5.7315,5.7315,5.7261,5.7188,5.7188,5.7188,5.7188,5.7188,5.7188,5.7188,5.7188,5.7188,5.7188,5.7188,5.7188,5.7043,5.6326,5.6018,5.574,5.507,5.4907,5.4164,5.123,4.918,4.6773,4.2702,3.9912,3.8191,3.81,3.81,3.7828,3.7031,3.6886,3.6633,3.5804,3.5077,3.4555,3.4516,3.3791,3.3266,3.3194,3.1872,3.0998,3.0998,3.0926,3.0889,3.0889,3.0898,3.0927,3.0998,3.113,3.123,3.1292,3.1286,3.0925,3.021,3.1592,3.1518,3.0118,3.15,3.1806,4.4242,4.479,4.5026,4.5026,4.4215,4.2219,3.756,0.0,3.3069,2.8071,2.7009,2.6939,2.6781,2.7219,2.8464,3.1133,3.34,0.0,0.0,0.0,0.0,0.0,0.0,0.0,0.0,0.0,0.0,0.0,0.0,0.0,0.0,5.7808,5.7772,5.7735,5.7772,5.7772,5.7735,5.7845,5.7881,5.7881,5.7881,5.7881,5.7918,5.8334,5.8875,5.9491,0.0,0.0,0.0,5.7801,5.7255,5.7188,5.7188,5.7188,5.7188,5.7188,5.7188,5.7188,5.7188,5.7188,5.7188,5.7188,5.7188,5.7188,5.7188,5.7188,5.7134,5.6808,5.6373,5.5921,5.5631,5.5558,5.5233,5.3947,5.0641,4.72,4.5055,4.1216,3.8209,3.8209,3.8209,3.81,3.7774,3.772,3.7448,3.6635,3.6236,3.5874,3.5369,3.4609,3.4117,3.4117,3.3121,3.2433,3.2433,3.1999,3.1741,3.1783,3.1338,3.1164,3.125,3.1751,3.2059,3.2118,3.2596,3.2687,3.2375,3.3018,3.2999,3.2375,3.254,3.2417,4.3081,4.409,4.4615,4.4615,4.2878,4.0223,0.0,0.0,3.1136,2.7345,2.6486,2.6399,2.6294,2.6781,2.7669,2.9178,3.1456,3.3898,3.6388,0.0,0.0,0.0,0.0,0.0,0.0,0.0,0.0,0.0,0.0,0.0,0.0,5.7881,5.7862,5.7698,5.7772,5.7772,5.7698,5.7808,5.7881,5.7881,5.7881,5.7881,5.7918,5.8388,5.9113,5.996,0.0,0.0,0.0,5.7858,5.7188,5.7188,5.7188,5.7188,5.7188,5.7188,5.7188,5.7188,5.7188,5.7188,5.7188,5.7188,5.7188,5.7188,5.7188,5.7188,5.7188,5.7188,5.679,5.6337,5.6337,5.6337,5.6283,5.6047,5.1756,4.7482,4.6667,4.2122,3.8209,3.8209,3.8209,3.8209,3.8209,3.8209,3.8009,3.7448,3.7158,3.6796,3.6236,3.5457,3.4844,3.4643,3.4099,3.3665,3.3429,3.2886,3.2574,3.2617,3.2119,3.186,3.1949,3.251,3.2861,3.2923,3.3473,3.378,3.3807,3.3807,3.3807,3.3788,3.322,3.2949,4.1035,4.2878,4.4615,4.4615,4.2878,4.0223,0.0,0.0,3.1116,2.7291,2.6382,2.6294,2.6203,2.6202,2.6718,2.8275,2.9259,3.1422,3.5969,0.0,0.0,0.0,0.0,0.0,0.0,0.0,0.0,0.0,0.0,0.0,0.0,5.7881,5.7881,5.7898,5.7698,5.7698,5.7881,5.7881,5.7881,5.7881,5.7881,5.7881,5.7881,5.7918,5.8668,0.0,0.0,0.0,0.0,5.7858,5.7188,5.7188,5.7188,5.7188,5.7188,5.7188,5.7188,5.7188,5.7188,5.7188,5.7188,5.7188,5.7188,5.7188,5.7188,5.7188,5.7188,5.7188,5.7188,5.7188,5.7188,5.7188,5.6989,5.6174,5.1756,4.7482,4.6667,4.2122,3.8209,3.8209,3.8209,3.8209,3.8209,3.8209,3.8209,3.8191,3.7502,3.6995,3.6995,3.629,3.5478,3.4682,3.4591,3.428,3.3465,3.3393,3.3393,3.3393,3.3448,3.3473,3.3473,3.3545,3.3629,3.3698,3.3698,3.3739,3.3807,3.3807,3.3807,3.3807,3.3788,3.3788,3.6282,3.7929,3.9029,3.7963,3.7144,3.591,3.322,3.1156,2.9171,2.6955,2.6363,2.6239,2.6203,2.6202,2.6868,2.8907,2.956,3.0851,0.0,0.0,0.0,0.0,0.0,0.0,0.0,0.0,0.0,0.0,0.0,0.0,0.0,5.7881,5.7862,5.7698,5.7772,5.7772,5.7698,5.7845,5.7881,5.7881,5.7881,5.7881,5.7918,5.8909,0.0,0.0,0.0,0.0,0.0,5.7858,5.7188,5.7188,5.7188,5.7188,5.7188,5.7188,5.7188,5.7188,5.7188,5.7188,5.7188,5.7188,5.7188,5.7188,5.7188,5.7188,5.7188,5.7188,5.7188,5.7188,5.7188,5.7188,5.6989,5.6174,5.3422,5.0162,4.7156,4.3824,4.0781,3.8625,3.8209,3.8209,3.8209,3.8209,3.8209,3.8209,3.7991,3.7828,3.7828,3.7122,3.6524,3.627,3.5258,3.428,3.3465,3.3393,3.3393,3.3393,3.3408,3.3452,3.3509,3.3563,3.3633,3.3698,3.3753,3.378,3.3807,3.3807,3.3807,3.3807,3.3807,3.3807,3.2502,3.4535,3.5735,3.5081,3.4286,0.0,0.0,2.9688,2.7943,2.6754,2.6328,2.6202,2.6202,2.6202,2.6851,2.8818,2.929,0.0,0.0,0.0,0.0,0.0,0.0,0.0,0.0,0.0,0.0,0.0,0.0,0.0,0.0,0.0,5.7808,5.7625,5.7808,5.7845,5.7698,5.7845,5.7881,5.7881,5.7881,5.7881,5.7918,5.8806,0.0,0.0,0.0,0.0,0.0,5.7858,5.7188,5.7188,5.7188,5.7188,5.7188,5.7188,5.7188,5.7188,5.7188,5.7188,5.7152,5.6844,5.6736,5.679,5.7098,5.7188,5.7134,5.6826,5.6736,5.6681,5.641,5.6536,5.6609,5.612,5.42,5.1484,4.7772,4.482,4.1977,3.8825,3.8209,3.8209,3.8209,3.8209,3.8209,3.8209,3.8209,3.8209,3.8209,3.7756,3.7339,3.7031,3.6107,3.5186,3.4371,3.3755,3.3393,3.3393,3.3422,3.3452,3.3509,3.3563,3.3633,3.3698,3.3739,3.378,3.3807,3.3807,3.3972,3.4252,3.4252,3.4431,0.0,3.215,3.3992,3.4631,0.0,0.0,0.0,2.9147,0.0,2.6636,2.6328,2.6219,2.6268,2.6286,2.6783,2.831,2.8765,0.0,0.0,0.0,0.0,0.0,0.0,0.0,0.0,0.0,0.0,0.0,0.0,0.0,0.0,0.0,5.7808,5.7625,5.7808,5.7881,5.7881,5.7881,5.7881,5.7881,5.7881,5.7881,5.7881,5.801,0.0,0.0,0.0,0.0,0.0,5.784,5.7188,5.7188,5.7188,5.7188,5.7188,5.7188,5.7188,5.7188,5.7188,5.7188,5.708,5.6319,5.6084,5.621,5.6899,5.7098,5.6953,5.621,5.5957,5.5776,5.5142,5.5486,5.6011,5.6066,5.4418,5.1955,4.8749,4.5508,4.2321,3.9151,3.8354,3.8209,3.8209,3.8209,3.8209,3.8209,3.8209,3.8209,3.8209,3.8209,3.7919,3.7176,3.7031,3.6705,3.5949,3.4461,3.3574,3.3574,3.3615,3.3659,3.3673,3.3727,3.3797,3.3881,3.3881,3.3922,3.3972,3.3972,3.4357,3.5096,3.5096,3.5518,2.4595,0.0,2.8132,2.7142,2.8216,2.9208,0.0,2.7522,0.0,0.0,0.0,0.0,0.0,2.705,2.7696,2.9682,0.0,0.0,0.0,0.0,0.0,0.0,0.0,0.0,0.0,0.0,0.0,0.0,0.0,0.0,0.0,0.0,5.7881,5.7808,5.7881,5.7808,5.7662,5.7662,5.7735,5.7881,5.7881,5.7881,5.7918,5.9028,0.0,0.0,0.0,0.0,5.8601,5.7605,5.7188,5.7188,5.7188,5.7188,5.7188,5.7188,5.7188,5.7188,5.7188,5.7188,5.717,5.6971,5.6917,5.6826,5.641,5.6265,5.6228,5.6047,5.5595,5.5251,5.5631,5.5866,5.6156,5.6772,5.65,5.5233,5.2063,4.884,4.5617,4.243,3.9857,3.8209,3.8209,3.8209,3.8209,3.8209,3.8209,3.8209,3.8209,3.8209,3.8136,3.7937,3.7375,3.6922,3.6741,3.5802,3.524,3.524,3.5142,3.5188,3.5327,3.536,3.5417,3.5528,3.564,3.5701,3.5716,3.5716,3.5807,3.5991,3.5991,3.6101,2.2438,2.413,2.5798,2.5363,2.6702,2.7942,2.7137,2.6933,2.6778,0.0,0.0,0.0,0.0,0.0,0.0,0.0,0.0,0.0,0.0,0.0,0.0,0.0,0.0,0.0,0.0,0.0,0.0,0.0,0.0,0.0,0.0,0.0,5.7845,5.7772,5.7772,5.7735,5.7735,5.7735,5.7772,5.7881,5.7881,5.7881,5.7918,5.8702,0.0,0.0,0.0,0.0,5.8347,5.7532,5.7188,5.7188,5.7188,5.7188,5.7188,5.7188,5.7188,5.7188,5.7188,5.6953,5.6699,5.708,5.6953,5.6627,5.6573,5.6066,5.5414,5.5051,5.4925,5.4907,5.4943,5.5468,5.6102,5.6536,5.6935,5.6337,5.3186,4.9981,4.6757,4.3516,4.0365,3.8174,3.8122,3.8157,3.8174,3.8122,3.8157,3.8174,3.8105,3.8157,3.8192,3.8105,3.8051,3.787,3.7593,3.7403,3.6863,3.5776,3.5668,3.5682,3.581,3.5908,3.603,3.619,3.627,3.6303,3.6303,3.6303,3.6486,3.685,3.685,3.7037,2.1945,2.385,2.5896,2.6065,2.68,2.7434,2.7334,2.6763,2.6278,0.0,0.0,0.0,0.0,2.8182,0.0,0.0,0.0,0.0,0.0,0.0,0.0,0.0,0.0,0.0,0.0,0.0,0.0,0.0,0.0,0.0,0.0,0.0,0.0,5.7625,5.7588,5.7662,5.7845,5.7845,5.7881,5.7881,5.7881,5.7881,5.7881,5.8027,5.8273,0.0,0.0,0.0,5.8166,5.7478,5.7188,5.7188,5.7188,5.7188,5.7188,5.7188,5.7188,5.7188,5.7188,5.6736,5.6283,5.6971,5.6736,5.6283,5.6844,5.6102,5.4907,5.411,5.4291,5.4599,5.4037,5.4852,5.583,5.583,5.6355,5.612,5.344,5.0343,4.7156,4.4041,4.0872,3.8556,3.8056,3.8088,3.814,3.8002,3.8088,3.8122,3.8002,3.8088,3.814,3.8001,3.8723,3.8921,3.8264,3.8742,3.8258,3.6256,3.6051,3.6011,3.6043,3.6251,3.6471,3.6637,3.667,3.667,3.667,3.667,3.7033,3.7676,3.7676,3.8046,2.2559,2.5673,2.8044,2.5111,2.5875,2.717,2.6538,2.6304,2.6221,0.0,0.0,0.0,0.0,2.9435,0.0,0.0,0.0,0.0,0.0,0.0,0.0,0.0,0.0,0.0,0.0,0.0,0.0,0.0,0.0,0.0,0.0,0.0,0.0,5.7588,5.7439,5.7439,5.7625,5.7662,5.7735,5.7881,5.7881,5.7881,5.7918,5.8493,5.8367,0.0,0.0,5.805,5.7369,5.7243,5.7188,5.7188,5.7188,5.7188,5.7188,5.7188,5.7188,5.7188,5.7188,5.7116,5.7043,5.7152,5.7116,5.6899,5.6337,5.6011,5.5667,5.4925,5.4309,5.4019,5.4581,5.4888,5.507,5.507,5.516,5.5124,5.4653,5.1991,4.8945,4.6367,4.3274,4.0402,3.8276,3.7985,3.8002,3.7934,3.7985,3.8002,3.7934,3.7967,3.8018,3.8001,3.8723,3.8921,3.8264,3.8742,3.8942,3.86,3.7828,3.7468,3.764,3.7954,3.8128,3.8159,3.8258,3.834,3.834,3.834,3.8395,3.8524,3.8524,3.8579,2.221,2.4962,2.7539,2.6694,2.9281,3.1923,3.166,3.1299,3.0704,0.0,0.0,0.0,0.0,0.0,0.0,0.0,0.0,0.0,0.0,0.0,0.0,0.0,0.0,0.0,0.0,0.0,0.0,0.0,0.0,0.0,0.0,0.0,0.0,0.0,5.7402,5.7402,5.7588,5.7588,5.7698,5.7881,5.7881,5.7881,5.7918,5.78,5.7719,5.7588,0.0,5.7374,5.7188,5.7188,5.7188,5.7188,5.7188,5.7188,5.7188,5.7188,5.7188,5.7188,5.7188,5.7188,5.7188,5.7188,5.7188,5.7134,5.6754,5.6337,5.6011,5.612,5.5287,5.4436,5.4798,5.4907,5.4907,5.4907,5.4907,5.4907,5.4907,5.2371,4.947,4.7413,4.4428,4.1591,3.9443,3.8834,3.8761,3.9031,3.8834,3.8743,3.9049,3.8834,3.8634,3.8599,3.9284,3.9319,3.8301,3.9427,3.9656,3.842,3.8403,3.833,3.8002,3.8168,3.8348,3.851,3.8528,3.8578,3.8707,3.8707,3.8707,3.8707,3.8707,3.8707,2.2242,2.4531,2.7196,2.8739,3.1724,3.4585,3.5759,3.5031,3.3918,0.0,0.0,0.0,0.0,0.0,0.0,0.0,0.0,0.0,0.0,0.0,0.0,0.0,0.0,0.0,0.0,0.0,0.0,0.0,0.0,0.0,0.0,0.0,0.0,0.0,5.7327,5.7327,5.7514,5.7514,5.7662,5.7881,5.7881,5.7797,5.7611,5.7053,5.6902,5.7108,5.668,5.6699,5.6992,5.7138,5.7188,5.7188,5.7188,5.7188,5.7188,5.7188,5.7188,5.7188,5.7188,5.7188,5.7188,5.7188,5.7188,5.7188,5.7188,5.6772,5.641,5.7025,5.621,5.5124,5.4943,5.4907,5.4798,5.4436,5.4345,5.4345,5.4345,5.2389,5.0086,4.8168,4.5526,4.2976,4.1,3.984,3.9373,3.9977,3.9552,3.9409,4.0014,3.9714,3.9428,3.9409,4.0038,4.0057,3.8976,4.0286,4.035,3.8384,3.8798,3.8959,3.8578,3.85,3.8558,3.8802,3.8771,3.8729,3.8707,3.8707,3.8707,3.8707,3.8891,3.8982,2.3549,2.6095,2.871,3.0259,2.9931,3.0319,3.451,3.3264,3.2152,3.5501,0.0,0.0,0.0,0.0,0.0,0.0,0.0,0.0,0.0,0.0,0.0,0.0,0.0,0.0,0.0,0.0,0.0,0.0,0.0,0.0,0.0,0.0,0.0,0.0,0.0,5.7139,5.7327,5.7327,5.7514,5.7881,5.7881,5.7526,5.6884,5.6816,5.6388,5.568,5.627,5.644,5.6393,5.6966,5.7188,5.7188,5.7188,5.7188,5.7188,5.7188,5.7188,5.7188,5.7188,5.7188,5.7188,5.7188,5.7188,5.7188,5.7188,5.7152,5.7134,5.717,5.6573,5.5758,5.5088,5.4907,5.4526,5.3023,5.2661,5.2661,5.2661,5.248,5.1606,4.9183,4.7216,4.5162,4.2741,4.0539,3.93,3.9826,3.9441,3.9337,4.0015,4.0126,4.0165,4.0275,4.0922,4.1202,4.0919,4.1199,4.097,3.9997,3.9463,3.95,4.0203,3.9762,3.9564,3.9701,3.9761,3.9426,3.8707,3.8707,3.8707,3.8726,3.946,3.9808,2.3117,2.6298,2.9585,3.072,3.1301,3.2791,3.7184,3.8042,3.8277,3.9792,4.0889,0.0,0.0,0.0,0.0,0.0,0.0,0.0,0.0,0.0,0.0,0.0,0.0,0.0,0.0,0.0,0.0,0.0,0.0,0.0,0.0,0.0,0.0,0.0,0.0,5.7101,5.7289,5.7289,5.7439,5.7698,5.7389,5.7306,5.7442,5.6055,5.5927,5.6791,5.6107,5.6227,5.6863,5.7112,5.7188,5.7188,5.7188,5.7188,5.7188,5.7188,5.7188,5.7188,5.7188,5.7188,5.7188,5.7188,5.7188,5.7188,5.7188,5.7188,5.7188,5.7188,5.6971,5.6573,5.5794,5.5251,5.4762,5.4146,5.4001,5.3856,5.3349,5.3639,5.3253,5.0715,4.8852,4.705,4.5021,4.237,4.0735,4.131,4.0911,4.0772,4.1405,4.1145,4.0955,4.103,4.0924,4.1101,4.1792,4.1576,4.1417,4.1475,4.0916,4.0526,4.0384,4.0255,4.0231,4.0422,4.0454,4.0372,4.0178,4.0178,4.0178,4.0196,4.0506,4.0653,2.353,2.6385,2.9477,3.1075,3.2452,3.4619,3.9252,4.0542,4.1394,4.3612,4.4536,4.4604,4.3555,0.0,0.0,0.0,0.0,0.0,0.0,0.0,0.0,0.0,0.0,0.0,0.0,0.0,0.0,0.0,0.0,0.0,0.0,0.0,0.0,0.0,0.0,5.7214,5.7289,5.7289,5.7402,5.7571,5.6993,5.6981,5.7492,5.597,5.5911,5.6955,5.6104,5.623,5.6994,5.7397,5.7587,5.755,5.7297,5.7188,5.7188,5.7188,5.7188,5.7188,5.7188,5.7188,5.7188,5.7188,5.7188,5.7188,5.7188,5.7188,5.7188,5.7188,5.7188,5.7062,5.6518,5.5812,5.5196,5.4961,5.4907,5.4762,5.42,5.4508,5.4375,5.264,5.094,4.9149,4.7146,4.4479,4.2516,4.2328,4.1789,4.1722,4.2601,4.2167,4.1782,4.1782,4.1467,4.1538,4.2239,4.1988,4.1956,4.2331,4.2008,4.1606,4.1215,4.1053,4.1067,4.1276,4.1258,4.1216,4.1095,4.1095,4.1095,4.1113,4.1352,4.148,2.5163,2.6503,2.8419,3.1526,3.2882,3.4844,4.0054,3.9529,3.9868,4.6519,4.6769,4.5737,4.5703,0.0,0.0,0.0,0.0,0.0,0.0,0.0,0.0,0.0,0.0,0.0,0.0,0.0,0.0,0.0,0.0,0.0,0.0,0.0,0.0,0.0,0.0,0.0,5.7289,5.7289,5.7402,5.7588,5.6864,5.6636,5.6816,5.6799,5.641,5.5753,5.6258,5.6495,5.6616,5.7873,5.8402,5.8311,5.7514,5.7188,5.7188,5.7188,5.7188,5.7188,5.7188,5.7188,5.7188,5.7188,5.7188,5.7188,5.7188,5.7188,5.7188,5.7188,5.7188,5.7188,5.7188,5.6609,5.583,5.5106,5.4925,5.4925,5.4907,5.4925,5.4925,5.4907,5.349,5.1535,4.9059,4.6726,4.4559,4.2616,4.1807,4.1957,4.3417,4.3032,4.2627,4.2627,4.2804,4.2765,4.2346,4.2508,4.2586,4.2521,4.2586,4.2707,4.2882,4.2341,4.2098,4.2304,4.2304,4.1919,4.1113,4.1113,4.1113,4.1132,4.1937,4.2304,2.5146,2.8824,0.0,3.2324,0.0,0.0,0.0,4.2226,0.0,0.0,4.8342,4.7547,0.0,0.0,0.0,0.0,0.0,0.0,0.0,0.0,0.0,0.0,0.0,0.0,0.0,0.0,0.0,0.0,0.0,0.0,0.0,0.0,0.0,0.0,0.0,0.0,5.7514,5.7364,5.7402,5.7588,5.7369,5.7378,5.7526,5.6511,5.6402,5.709,5.6716,5.71,5.801,5.8268,5.8076,5.7532,5.7279,5.7188,5.7188,5.7188,5.7188,5.7188,5.7188,5.7188,5.7188,5.7188,5.7188,5.7188,5.7188,5.7188,5.7188,5.7188,5.7188,5.7188,5.7188,5.7025,5.679,5.6573,5.6518,5.6355,5.5794,5.612,5.6355,5.5776,5.4285,5.2504,5.0572,4.8281,4.609,4.4203,4.3838,4.3939,4.4402,4.428,4.4157,4.4157,4.4302,4.4243,4.395,4.4056,4.4115,4.3989,4.364,4.3262,4.2859,4.2832,4.2868,4.2921,4.3061,4.302,4.2782,4.2782,4.2782,4.2782,4.302,4.313,2.754,3.1106,0.0,3.5583,3.8751,4.2269,4.4626,0.0,0.0,0.0,0.0,0.0,0.0,0.0,0.0,0.0,0.0,0.0,0.0,0.0,0.0,0.0,0.0,0.0,0.0,0.0,0.0,0.0,0.0,0.0,0.0,0.0,0.0,0.0,0.0,0.0,5.715,5.7325,5.7476,5.7588,5.7588,5.7698,5.7865,5.6985,5.6995,5.774,5.7242,5.765,5.8577,5.8169,5.7869,5.7641,5.7315,5.7188,5.7188,5.7188,5.7188,5.7188,5.7188,5.7188,5.7188,5.7188,5.7188,5.7188,5.7188,5.7188,5.7188,5.7188,5.7188,5.7188,5.7188,5.7188,5.7188,5.7188,5.7188,5.7062,5.6573,5.6862,5.7062,5.6573,5.5672,5.4309,5.2276,5.0217,4.8129,4.5948,4.5372,4.509,4.4829,4.5083,4.5154,4.4832,4.492,4.4878,4.4607,4.4711,4.4732,4.4624,4.4366,4.4025,4.36,4.3339,4.3233,4.3269,4.3428,4.3515,4.3515,4.3515,4.3515,4.3515,4.3515,4.3515,3.1122,3.3297,0.0,4.0037,4.1914,0.0,4.7124,4.8477,4.9001,0.0,0.0,0.0,0.0,0.0,0.0,0.0,0.0,0.0,0.0,0.0,0.0,0.0,0.0,0.0,0.0,0.0,0.0,0.0,0.0,0.0,0.0,0.0,0.0,0.0,0.0,0.0,5.641,5.7116,5.7487,0.0,5.7554,5.7698,5.7881,5.7881,5.7881,5.792,5.7913,5.8156,5.8463,5.7864,5.7864,5.822,5.7496,5.7188,5.7188,5.7188,5.7188,5.7188,5.7188,5.7188,5.7188,5.7188,5.7188,5.7188,5.7188,5.7188,5.7188,5.7188,5.7188,5.7188,5.7188,5.7188,5.7188,5.7188,5.7188,5.7188,5.7188,5.7188,5.7163,5.7163,5.7163,5.6414,5.3989,5.2257,5.0276,4.7586,4.6463,4.5704,4.5076,4.5634,4.5813,4.5079,4.5093,4.5072,4.4839,4.4925,4.4947,4.4839,4.4893,4.4922,4.4922,4.3932,4.3415,4.3468,4.3555,4.357,4.3515,4.3515,4.3515,4.3515,4.3515,4.3515,3.0942,3.4886,0.0,0.0,4.3098,4.6194,4.7567,4.8477,0.0,0.0,0.0,0.0,0.0,0.0,0.0,0.0,0.0,0.0,0.0,0.0,0.0,0.0,0.0,0.0,0.0,0.0,0.0,0.0,0.0,0.0,0.0,0.0,0.0,0.0,0.0,5.583,5.5636,5.6376,5.6746,0.0,5.7318,5.7698,5.7881,5.7881,5.7881,5.7937,5.9058,5.8854,5.788,5.8751,5.8453,5.7442,5.7261,5.7188,5.7188,5.7188,5.7188,5.7188,5.7188,5.7188,5.7188,5.7188,5.7188,5.7188,5.7188,5.7188,5.7188,5.7188,5.7188,5.7188,5.7188,5.7188,5.7188,5.7188,5.7188,5.7188,5.7188,5.713,5.7036,5.7036,5.7036,5.6418,5.4453,5.2893,5.0789,4.7517,4.686,4.6699,4.6561,4.6686,4.6722,4.6561,4.6548,4.6548,4.648,4.6503,4.6503,4.648,4.602,4.5745,4.5745,4.5212,4.4651,4.4033,4.4291,4.4121,4.3515,4.3515,4.3515,4.3515,4.3515,4.3515,3.2789,0.0,0.0,4.2489,0.0,4.709,4.8189,4.8731,0.0,0.0,0.0,0.0,0.0,0.0,0.0,0.0,0.0,0.0,0.0,0.0,0.0,0.0,0.0,0.0,0.0,0.0,0.0,0.0,0.0,0.0,0.0,0.0,0.0,0.0,5.4786,5.5123,5.5019,5.5761,5.6265,5.6655,5.7027,5.7471,5.7881,5.7881,5.7881,5.7937,5.8615,5.8616,5.8176,5.8438,5.8231,5.7732,5.7351,5.7188,5.7188,5.7188,5.7188,5.7188,5.7188,5.7188,5.7188,5.7188,5.7188,5.7188,5.7188,5.7188,5.7188,5.7188,5.7188,5.7206,5.7112,5.7087,5.7105,5.701,5.7054,5.7087,5.7087,5.7003,5.6899,5.6899,5.6899,5.6603,5.5656,5.3555,5.1161,4.8637,4.7525,4.6998,4.6998,4.6998,4.6998,4.6998,4.6998,4.6998,4.6998,4.6998,4.6998,4.6998,4.6673,4.6481,4.6481,4.6359,4.5832,4.4793,4.5002,4.4784,4.4066,4.4066,4.3883,4.3515,4.3515,4.3515,3.4142,0.0,3.8672,4.5184,4.6786,0.0,4.8663,0.0,0.0,0.0,0.0,0.0,0.0,0.0,0.0,0.0,0.0,0.0,0.0,0.0,0.0,0.0,0.0,0.0,0.0,0.0,0.0,0.0,0.0,0.0,0.0,0.0,5.3501,5.3501,5.4093,5.4397,5.4363,5.5107,5.58,5.6391,5.6645,5.712,5.7695,5.7831,5.7881,5.792,5.8033,5.8303,5.8544,5.7985,5.8026,5.8329,5.7514,5.7279,5.7387,5.7243,5.7188,5.7188,5.7188,5.7188,5.7188,5.7188,5.7188,5.7188,5.7188,5.7188,5.7206,5.7163,5.7181,5.7138,5.7003,5.6977,5.6951,5.6821,5.6873,5.6951,5.6977,5.6873,5.6768,5.6768,5.6742,5.667,5.6453,5.4097,5.1674,4.9871,4.834,4.7301,4.7015,4.6998,4.6998,4.6998,4.6998,4.6998,4.6998,4.6998,4.6998,4.6998,4.6998,4.6998,4.6998,4.7165,4.6776,4.5749,4.5654,4.5296,4.4655,4.4544,4.4158,4.3515,4.3515,4.3515,3.1411,0.0,4.0763,0.0,4.6786,4.7192,0.0,0.0,0.0,0.0,0.0,0.0,0.0,0.0,0.0,0.0,0.0,0.0,0.0,0.0,0.0,0.0,0.0,0.0,0.0,0.0,0.0,0.0,0.0,0.0,0.0,5.3501,5.3501,5.3501,5.3602,5.3568,5.3398,5.4295,5.4717,5.4644,5.6119,5.685,5.6968,5.7594,5.7881,5.7991,5.9176,5.8976,5.7855,5.8876,5.8939,5.8329,5.7514,5.7623,5.8166,5.746,5.7188,5.7188,5.7188,5.7188,5.7188,5.7188,5.7188,5.7188,5.7188,5.7188,5.7181,5.7079,5.7028,5.7003,5.6873,5.6821,5.6821,5.6794,5.6715,5.6707,5.6794,5.6715,5.6626,5.6626,5.6519,5.609,5.5007,5.4217,5.2776,5.0008,4.9269,4.8514,4.7158,4.6998,4.6998,4.6998,4.6998,4.6998,4.6998,4.6998,4.6998,4.6998,4.6998,4.6998,4.6998,4.7043,4.7053,4.7061,4.6099,4.5221,4.4436,4.3923,4.3625,4.3515,4.3515,4.3515,3.2466,3.6653,4.1024,0.0,4.6481,4.7073,0.0,0.0,0.0,0.0,0.0,0.0,0.0,0.0,0.0,0.0,0.0,0.0,0.0,0.0,0.0,0.0,0.0,0.0,0.0,0.0,0.0,0.0,0.0,0.0,5.3501,5.3501,5.3501,5.3501,5.3501,5.3467,5.3382,5.3788,5.416,5.4497,5.5647,5.641,5.6816,5.7137,5.7509,5.7937,5.8478,5.8517,5.8299,5.8827,5.9069,5.9054,5.8691,5.8492,5.8365,5.8003,5.7587,5.7188,5.7188,5.7188,5.7188,5.7188,5.7188,5.7206,5.7112,5.7105,5.7079,5.6925,5.6899,5.6847,5.6715,5.6707,5.668,5.66,5.6519,5.6492,5.6573,5.6519,5.6492,5.6492,5.6455,5.6277,5.5843,5.48,5.3312,5.1287,5.0032,4.8746,4.7194,4.6998,4.6998,4.6998,4.6998,4.6998,4.6998,4.6998,4.6998,4.6998,4.6998,4.6998,4.6998,4.6998,4.7048,4.712,4.691,4.6195,4.5074,4.4931,4.4378,4.3515,4.3515,4.3515,0.0,0.0,3.8797,4.3382,4.5111,4.6041,0.0,0.0,0.0,0.0,0.0,0.0,0.0,0.0,0.0,0.0,0.0,0.0,0.0,0.0,0.0,0.0,0.0,0.0,0.0,0.0,0.0,0.0,0.0,0.0,5.3501,5.3501,5.3501,5.3501,5.3501,5.3501,5.3501,5.3501,5.3788,5.4329,5.5004,5.5646,5.6241,5.632,5.6846,5.7613,5.7878,5.8293,5.8808,5.8893,5.9309,5.9868,5.9452,5.9054,5.8655,5.8257,5.7713,5.7188,5.7188,5.7188,5.7188,5.7188,5.7181,5.7112,5.7028,5.6977,5.6925,5.6794,5.6742,5.6715,5.6573,5.6546,5.6519,5.641,5.6401,5.6401,5.6401,5.6401,5.6401,5.6401,5.6401,5.6465,5.6689,5.5562,5.4034,5.2305,5.0844,4.921,4.7247,4.6998,4.6998,4.6998,4.6998,4.6998,4.6998,4.6998,4.6998,4.6998,4.6998,4.6998,4.6998,4.6998,4.6998,4.6998,4.7381,4.6923,4.5526,4.5534,4.482,4.3515,4.3515,4.3515,0.0,3.1251,0.0,3.9674,0.0,0.0,0.0,0.0,0.0,0.0,0.0,0.0,0.0,0.0,0.0,0.0,0.0,0.0,0.0,0.0,0.0,0.0,0.0,0.0,0.0,0.0,0.0,0.0,0.0,0.0,5.3501,5.3501,5.3501,5.3501,5.3501,5.3501,5.3501,5.3501,5.3518,5.3568,5.4124,5.4495,5.4735,5.506,5.5818,5.6919,5.8273,5.8812,5.8843,5.9479,6.0134,6.0593,5.9072,5.8909,5.9361,5.7822,5.7243,5.7188,5.7188,5.7188,5.7188,5.7188,5.7112,5.7003,5.6984,5.6925,5.6768,5.6653,5.6626,5.6573,5.6455,5.6428,5.6401,5.6401,5.6401,5.6401,5.6401,5.6401,5.6401,5.6401,5.6401,5.6437,5.66,5.642,5.5276,5.2337,5.1719,5.0459,4.739,4.6998,4.6998,4.6998,4.6998,4.6998,4.6998,4.6998,4.6998,4.6998,4.6998,4.6998,4.6998,4.6998,4.6998,4.6998,4.7209,4.6654,4.5307,4.4742,4.4145,4.3515,4.3515,4.3515,0.0,0.0,0.0,3.639,3.9902,0.0,0.0,0.0,0.0,0.0,0.0,0.0,0.0,0.0,0.0,0.0,0.0,0.0,0.0,0.0,0.0,0.0,0.0,0.0,0.0,0.0,0.0,0.0,0.0,0.0,5.3501,5.3501,5.3501,5.3501,5.3501,5.3501,5.3501,5.3501,5.3501,5.3501,5.3703,5.399,5.4427,5.468,5.5203,5.5964,5.7082,5.7775,5.8187,5.9415,6.0018,6.0134,5.9998,5.9814,5.947,5.8365,5.7641,5.7188,5.7188,5.7188,5.7206,5.7105,5.7054,5.6977,5.6794,5.6689,5.6635,5.6492,5.6465,5.6465,5.6428,5.6401,5.6401,5.6401,5.6401,5.6401,5.6401,5.6401,5.6401,5.6401,5.6401,5.6437,5.6573,5.6492,5.5723,5.3752,5.2452,5.0923,4.8764,4.7604,4.6998,4.6998,4.6998,4.6998,4.6998,4.6998,4.6998,4.6998,4.6998,4.6998,4.6998,4.6998,4.6998,4.6998,4.707,4.6438,4.505,4.5138,4.4528,4.3304,4.3427,4.3515,2.8707,0.0,0.0,0.0,0.0,0.0,0.0,0.0,0.0,0.0,0.0,0.0,0.0,0.0,0.0,0.0,0.0,0.0,0.0,0.0,0.0,0.0,0.0,0.0,0.0,0.0,0.0,0.0,0.0,0.0,5.3501,5.3501,5.3501,5.3501,5.3501,5.3501,5.3501,5.3501,5.3501,5.3501,5.3416,5.3602,5.4022,5.404,5.4427,5.5152,5.5729,5.6643,5.784,5.9362,5.9933,5.9838,6.0241,6.0086,5.9506,5.8709,5.8058,5.7605,5.7605,5.7398,5.7112,5.7028,5.6951,5.6821,5.6635,5.6573,5.6519,5.6428,5.6401,5.6401,5.6401,5.6401,5.6401,5.6401,5.6401,5.6401,5.6401,5.6401,5.6401,5.6401,5.6401,5.6428,5.6519,5.6465,5.5892,5.4426,5.3205,5.1708,4.9561,4.8425,4.7568,4.7051,4.6998,4.6998,4.6998,4.6998,4.6998,4.6998,4.6998,4.6998,4.6998,4.6998,4.6998,4.6998,4.6998,4.6427,4.5197,4.5417,4.4707,4.3196,4.341,4.3626,0.0,0.0,0.0,0.0,0.0,0.0,0.0,0.0,0.0,0.0,0.0,0.0,0.0,0.0,0.0,0.0,0.0,0.0,0.0,0.0,0.0,0.0,0.0,0.0,0.0,0.0,0.0,0.0,0.0,5.2638,5.3433,5.3501,5.3501,5.3501,5.3501,5.3501,5.3501,5.3501,5.3501,5.3501,5.3298,5.3314,5.3467,5.3093,5.3513,5.4549,5.4359,5.5587,5.7822,5.9309,5.9885,5.9755,5.9655,5.9607,5.9506,5.8709,5.8402,5.8402,5.8383,5.7756,5.7003,5.7003,5.6821,5.66,5.66,5.6492,5.6401,5.6401,5.6401,5.6401,5.6401,5.6401,5.6401,5.6401,5.6401,5.6401,5.6401,5.6401,5.6401,5.6401,5.6401,5.6401,5.6401,5.6401,5.5865,5.4304,5.4019,5.2878,4.9757,4.9329,4.8705,4.7158,4.6998,4.6998,4.6998,4.6998,4.6998,4.6998,4.6998,4.6998,4.6998,4.6998,4.6998,4.6998,4.6998,4.6605,4.5802,4.5462,4.459,4.3269,4.3465,4.3993,2.7796,0.0,0.0,0.0,0.0,0.0,0.0,0.0,0.0,0.0,0.0,0.0,0.0,0.0,0.0,0.0,0.0,0.0,0.0,0.0,0.0,0.0,0.0,0.0,0.0,0.0,0.0,0.0,5.2012,5.2401,5.2621,5.3179,5.3501,5.3501,5.3501,5.3501,5.3501,5.3501,5.3501,5.3501,5.3433,5.3382,5.3264,5.3314,5.3416,5.3635,5.4243,5.4872,5.5639,5.7597,5.8669,5.9135,5.9565,5.9708,5.9506,5.8709,5.8402,5.8285,5.7629,5.7209,5.6977,5.6768,5.668,5.6573,5.6465,5.6428,5.6401,5.6401,5.6401,5.6401,5.6401,5.6401,5.6401,5.6401,5.6401,5.6401,5.6401,5.6401,5.6401,5.6401,5.6401,5.6401,5.6401,5.6401,5.624,5.5794,5.4759,5.327,5.1298,5.0031,4.8705,4.7158,4.6998,4.6998,4.6998,4.6998,4.6998,4.6998,4.6998,4.6998,4.6998,4.6998,4.6998,4.6998,4.6998,4.6605,4.5802,4.5315,4.4951,4.4736,4.5059,4.5351,0.0,0.0,0.0,0.0,0.0,0.0,0.0,3.7952,0.0,0.0,0.0,0.0,0.0,0.0,0.0,0.0,0.0,0.0,0.0,0.0,0.0,0.0,0.0,0.0,0.0,0.0,0.0,0.0,5.115,5.1657,5.2266,5.3061,5.3501,5.3501,5.3501,5.3501,5.3501,5.3501,5.3501,5.3501,5.3501,5.3433,5.3348,5.3467,5.3433,5.3365,5.3906,5.4313,5.4685,5.5945,5.7211,5.8413,5.9373,5.9655,5.9542,5.9072,5.8691,5.8303,5.7704,5.7247,5.6873,5.668,5.6573,5.6492,5.641,5.6401,5.6401,5.6401,5.6401,5.6401,5.6401,5.6401,5.6401,5.6401,5.6401,5.6401,5.6401,5.6401,5.6401,5.6401,5.6401,5.6401,5.6401,5.6401,5.6401,5.6401,5.5598,5.4206,5.1976,5.0887,4.946,4.7229,4.6998,4.6998,4.6998,4.6998,4.6998,4.6998,4.6998,4.6998,4.6998,4.6998,4.6998,4.6998,4.6998,4.6605,4.5802,4.5574,4.5452,4.5429,4.5754,4.6085,0.0,0.0,0.0,0.0,0.0,0.0,3.7178,3.8238,0.0,0.0,0.0,0.0,0.0,0.0,0.0,0.0,0.0,0.0,0.0,0.0,0.0,0.0,0.0,0.0,0.0,0.0,4.9272,4.9915,5.0033,5.0727,5.2215,5.2993,5.3416,5.3501,5.3501,5.3501,5.3501,5.3501,5.3501,5.3501,5.3501,5.3501,5.3501,5.3501,5.3501,5.3467,5.3501,5.3873,5.4465,5.4635,5.5828,5.7697,5.8902,5.942,5.9473,5.948,5.8991,5.835,5.8111,5.7493,5.6742,5.6626,5.6492,5.6401,5.6401,5.6401,5.6401,5.6401,5.6401,5.6401,5.6401,5.6401,5.6401,5.6401,5.6401,5.6401,5.6401,5.6401,5.6401,5.6401,5.6401,5.6401,5.6401,5.6401,5.6401,5.6401,5.6401,5.5312,5.2332,5.1797,5.0548,4.7568,4.7087,4.6998,4.6998,4.6998,4.6998,4.6998,4.6998,4.6998,4.6998,4.6998,4.6998,4.6998,4.6998,4.6641,4.5927,4.6125,4.6052,4.5712,4.5992,4.6544,0.0,0.0,0.0,0.0,0.0,0.0,3.211,3.263,0.0,0.0,0.0,0.0,0.0,0.0,0.0,0.0,0.0,0.0,0.0,0.0,0.0,0.0,0.0,0.0,0.0,0.0,4.9069,4.9204,4.9763,5.0727,5.2215,5.2452,5.2841,5.3484,5.3501,5.3501,5.3501,5.3501,5.3501,5.3501,5.3501,5.3501,5.3501,5.3501,5.3416,5.3264,5.3416,5.3501,5.3568,5.4814,5.5893,5.6911,5.7728,5.8372,5.8775,5.8671,5.8469,5.8129,5.7349,5.6867,5.6626,5.6465,5.6428,5.6401,5.6401,5.6401,5.6401,5.6401,5.6401,5.6401,5.6401,5.6401,5.6401,5.6401,5.6401,5.6401,5.6401,5.6401,5.6401,5.6401,5.6401,5.6401,5.6401,5.6401,5.6401,5.6401,5.6401,5.5705,5.3787,5.2475,5.0976,4.9067,4.7729,4.6998,4.6998,4.6998,4.6998,4.6998,4.6998,4.6998,4.6998,4.6998,4.6998,4.6998,4.6998,4.6908,4.6766,4.6954,4.6801,4.6332,4.7188,4.7767,0.0,0.0,0.0,3.0952,0.0,0.0,0.0,3.2763,3.3445,0.0,0.0,0.0,0.0,0.0,0.0,0.0,0.0,0.0,0.0,0.0,0.0,0.0,0.0,0.0,0.0,0.0,4.9001,4.9001,4.9678,5.0405,5.115,5.1894,5.2486,5.2892,5.3298,5.3501,5.3501,5.3501,5.3501,5.3501,5.3501,5.3501,5.3501,5.3501,5.3382,5.3213,5.3416,5.3382,5.3281,5.4023,5.4838,5.577,5.7488,5.8283,5.8484,5.8425,5.8071,5.7518,5.6991,5.6715,5.6573,5.6437,5.6401,5.6401,5.6401,5.6401,5.6401,5.6401,5.6401,5.6401,5.6401,5.6401,5.6401,5.6401,5.6401,5.6401,5.6401,5.6401,5.6401,5.6401,5.6401,5.6401,5.6401,5.6401,5.6401,5.6401,5.6401,5.5955,5.4759,5.392,5.2529,5.0156,4.921,4.8264,4.7087,4.6998,4.6998,4.6998,4.6998,4.6998,4.6998,4.6998,4.6998,4.6998,4.6998,4.6998,4.6998,4.7209,4.7212,4.7122,4.7829,4.8209,0.0,0.0,0.0,0.0,0.0,3.1466,0.0,0.0,0.0,3.5654,0.0,0.0,0.0,0.0,0.0,0.0,0.0,0.0,0.0,0.0,0.0,0.0,0.0,0.0,0.0,0.0,4.8392,4.8968,4.9018,4.934,5.005,5.1234,5.2012,5.2283,5.2942,5.3348,5.3501,5.3501,5.3501,5.3501,5.3501,5.3501,5.3501,5.3467,5.3348,5.3213,5.3382,5.3348,5.3144,5.3349,5.3906,5.4918,5.7074,5.7987,5.806,5.8143,5.7673,5.6959,5.6873,5.6742,5.6626,5.6519,5.6465,5.641,5.6401,5.6401,5.6401,5.6401,5.6401,5.6401,5.6401,5.6401,5.6401,5.6401,5.6401,5.6401,5.6401,5.6401,5.6401,5.6401,5.6401,5.6401,5.6401,5.6401,5.6401,5.6401,5.6401,5.6222,5.574,5.5401,5.417,5.1476,5.078,4.9603,4.7431,4.7087,4.6998,4.6998,4.6998,4.6998,4.6998,4.6998,4.6998,4.6998,4.6998,4.6998,4.6998,4.7209,4.7428,4.7717,4.8072,4.8267,0.0,0.0,0.0,0.0,3.2034,0.0,0.0,0.0,3.1752,3.1376,0.0,0.0,0.0,0.0,0.0,0.0,0.0,0.0,0.0,0.0,0.0,0.0,0.0,0.0,0.0,0.0,0.0,4.8798,4.665,4.6663,4.9915,5.0253,5.0947,5.2266,5.2384,5.279,5.3501,5.3501,5.3501,5.3501,5.3501,5.3501,5.3501,5.3314,5.3213,5.3179,5.3213,5.311,5.3007,5.3811,5.4516,5.507,5.5383,5.5983,5.6764,5.7189,5.7203,5.7003,5.6959,5.6899,5.6768,5.6768,5.6662,5.6546,5.6455,5.6401,5.6401,5.6401,5.6401,5.6401,5.6401,5.6401,5.6401,5.6401,5.6401,5.6401,5.6401,5.6401,5.6401,5.6401,5.6401,5.6401,5.6401,5.6401,5.6401,5.6401,5.6401,5.6615,5.7267,5.6079,5.4795,5.3716,5.1719,4.9834,4.8199,4.7413,4.6998,4.6998,4.6998,4.6998,4.6998,4.6998,4.6998,4.6998,4.6998,4.6998,4.6998,4.7209,4.7428,4.7717,4.7929,4.8131,0.0,0.0,0.0,0.0,0.0,0.0,0.0,0.0,3.087,0.0,0.0,0.0,0.0,0.0,0.0,0.0,0.0,0.0,0.0,0.0,0.0,0.0,0.0,0.0,0.0,0.0,0.0,0.0,0.0,4.6036,4.9289,4.9864,5.0574,5.164,5.208,5.2689,5.3501,5.3501,5.3501,5.3501,5.3501,5.3433,5.3348,5.3348,5.323,5.3041,5.3144,5.3076,5.2938,5.3213,5.373,5.4454,5.4774,5.6024,5.7629,5.7823,5.8125,5.8392,5.8392,5.8006,5.7424,5.6938,5.6768,5.6707,5.6653,5.6626,5.6626,5.6626,5.6626,5.6626,5.6626,5.6626,5.6626,5.6546,5.6519,5.6492,5.6428,5.6401,5.6401,5.6401,5.6401,5.6401,5.6401,5.6401,5.6401,5.6401,5.6793,5.7364,5.8149,5.806,5.7471,5.6222,5.3956,5.1726,4.971,4.7979,4.6998,4.6998,4.6998,4.6998,4.6998,4.6998,4.6998,4.6998,4.6998,4.6998,4.6998,4.7359,4.7593,4.7699,4.7909,4.8111,3.5733,0.0,0.0,0.0,0.0,0.0,0.0,0.0,0.0,0.0,0.0,0.0,0.0,0.0,0.0,0.0,0.0,0.0,0.0,0.0,0.0,0.0,0.0,0.0,0.0,0.0,0.0,0.0,0.0,0.0,4.8798,4.9509,5.0135,5.0879,5.1623,5.2384,5.3162,5.3399,5.3501,5.3501,5.3501,5.3416,5.3298,5.3382,5.328,5.3058,5.311,5.3041,5.2868,5.2694,5.323,5.42,5.4859,5.6613,5.8673,5.8239,5.8505,5.9077,5.886,5.8356,5.7673,5.7071,5.6847,5.6847,5.6821,5.6794,5.6794,5.6794,5.6768,5.676,5.676,5.6733,5.668,5.6573,5.6546,5.6519,5.6428,5.6401,5.6401,5.6401,5.6401,5.6401,5.6401,5.6401,5.6401,5.6401,5.7079,5.7864,5.8602,5.9387,5.9398,5.8042,5.5776,5.3385,5.103,4.8675,4.7212,4.6998,4.6998,4.6998,4.6998,4.6998,4.6998,4.6998,4.6998,4.6998,4.6998,4.7356,4.7551,4.7615,4.7931,4.817,0.0,0.0,0.0,3.4041,0.0,0.0,0.0,0.0,3.1565,0.0,0.0,0.0,0.0,0.0,3.2835,3.1402,0.0,0.0,0.0,0.0,0.0,0.0,0.0,0.0,0.0,0.0,0.0,0.0,0.0,0.0,4.8697,4.9018,4.9373,5.0101,5.0862,5.1606,5.2334,5.3112,5.3501,5.3501,5.3501,5.3501,5.3467,5.3298,5.3314,5.3467,5.3093,5.2903,5.2868,5.2694,5.3482,5.4839,5.5649,5.7428,5.9379,5.7804,5.775,5.8329,5.755,5.7261,5.7199,5.7054,5.7003,5.6977,5.6847,5.6794,5.6794,5.6794,5.6689,5.66,5.66,5.6519,5.6428,5.6401,5.6401,5.6401,5.6401,5.6401,5.6401,5.6401,5.6401,5.6401,5.6401,5.6401,5.6401,5.6401,5.7079,5.7864,5.8602,5.9387,5.9565,5.8745,5.6552,5.4224,5.1851,4.952,4.7841,4.7033,4.6998,4.6998,4.6998,4.6998,4.6998,4.6998,4.6998,4.6998,4.6998,4.702,4.7138,4.7323,4.7994,4.8287,0.0,0.0,4.2206,3.7343,0.0,0.0,0.0,0.0,0.0,0.0,0.0,0.0,0.0,0.0,3.2971,3.1683,3.1928,0.0,0.0,0.0,0.0,0.0,0.0,0.0,0.0,0.0,0.0,0.0,0.0,0.0,0.0,4.9001,4.934,5.0067,5.0828,5.1555,5.23,5.3112,5.3501,5.3501,5.3501,5.3416,5.3298,5.3382,5.328,5.3093,5.2938,5.2834,5.2694,5.2535,5.3602,5.5386,5.5831,5.7683,6.007,5.9717,6.0104,6.0593,5.9253,5.8438,5.7913,5.7319,5.7112,5.7112,5.7079,5.7061,5.7061,5.7061,5.7028,5.7003,5.7003,5.6899,5.6768,5.6707,5.66,5.6492,5.6428,5.6401,5.6401,5.6401,5.6401,5.6401,5.6401,5.6401,5.6401,5.6401,5.7507,5.8406,5.8656,5.988,6.0594,6.0326,5.8185,5.6044,5.417,5.0367,4.7743,4.7051,4.6911,4.6865,4.6865,4.6957,4.6957,4.6865,4.6957,4.6998,4.6998,4.712,4.7232,4.7302,4.7705,4.797,4.4096,4.4773,0.0,4.0079,3.9623,0.0,3.465,0.0,0.0,0.0,0.0,0.0,0.0,0.0,3.3791,3.2648,3.2583,3.2229,0.0,3.1064,0.0,0.0,0.0,0.0,0.0,0.0,0.0,4.2303,4.2855,0.0,0.0,0.0,4.9221,4.9678,5.0693,5.1437,5.1911,5.2976,5.3501,5.3501,5.3501,5.3416,5.3314,5.3382,5.323,5.3007,5.2868,5.2879,5.3007,5.3166,5.4381,5.6136,5.6899,5.855,6.0447,6.0404,6.0538,6.0575,5.9542,5.8655,5.7895,5.7369,5.7188,5.7188,5.7188,5.7188,5.7188,5.7188,5.7181,5.713,5.713,5.7003,5.6847,5.6742,5.6626,5.6492,5.6428,5.6401,5.6401,5.6401,5.6401,5.6401,5.6401,5.6401,5.6401,5.6401,5.7721,5.8692,5.8692,6.0112,6.1093,6.1093,5.9238,5.6873,5.4135,5.0275,4.769,4.6964,4.6842,4.6795,4.6795,4.6934,4.7054,4.7133,4.7054,4.7117,4.7356,4.7259,4.7187,4.7209,4.7446,4.76]}]]